<?xml version="1.0" encoding="UTF-8" standalone="no" ?>
<gpx xmlns="http://www.topografix.com/GPX/1/1" xmlns:xsi="http://www.w3.org/2001/XMLSchema-instance" xsi:schemaLocation="http://www.topografix.com/GPX/1/1 http://www.topografix.com/GPX/1/1/gpx.xsd" version="1.1" creator="VisuGPX - https://www.visugpx.com">
  <metadata>
    <name>Fontainebelleau-2017-50km</name>
    <desc><![CDATA[Belle randonnée VTT, bien organisée, bon fléchage, météo 10°C, petite pluie fine épisodique sans conséquence sur le roulage. La veille il a plut le sable était bien compact. Parcourt bien roulant.]]></desc>
  </metadata>
  <trk>
    <name><![CDATA[FONTAINEBLEAU:32:12 PM]]></name>
    <trkseg>
      <trkpt lat="48.40409" lon="2.68285">
        <ele>80.41</ele>
        <time>2017-03-19T07:58:02Z</time>
      </trkpt>
      <trkpt lat="48.40413" lon="2.68284">
        <ele>80.41</ele>
        <time>2017-03-19T07:58:05Z</time>
      </trkpt>
      <trkpt lat="48.40411" lon="2.68284">
        <ele>78.97</ele>
        <time>2017-03-19T07:58:07Z</time>
      </trkpt>
      <trkpt lat="48.4041" lon="2.68292">
        <ele>83.29</ele>
        <time>2017-03-19T07:58:18Z</time>
      </trkpt>
      <trkpt lat="48.40407" lon="2.68297">
        <ele>84.25</ele>
        <time>2017-03-19T07:58:38Z</time>
      </trkpt>
      <trkpt lat="48.40411" lon="2.68297">
        <ele>84.73</ele>
        <time>2017-03-19T07:58:54Z</time>
      </trkpt>
      <trkpt lat="48.40413" lon="2.68299">
        <ele>85.21</ele>
        <time>2017-03-19T07:58:57Z</time>
      </trkpt>
      <trkpt lat="48.40422" lon="2.68307">
        <ele>82.81</ele>
        <time>2017-03-19T07:59:07Z</time>
      </trkpt>
      <trkpt lat="48.40433" lon="2.68313">
        <ele>83.29</ele>
        <time>2017-03-19T07:59:13Z</time>
      </trkpt>
      <trkpt lat="48.40441" lon="2.68319">
        <ele>83.29</ele>
        <time>2017-03-19T07:59:17Z</time>
      </trkpt>
      <trkpt lat="48.40457" lon="2.68316">
        <ele>83.77</ele>
        <time>2017-03-19T07:59:25Z</time>
      </trkpt>
      <trkpt lat="48.40464" lon="2.68267">
        <ele>81.85</ele>
        <time>2017-03-19T07:59:36Z</time>
      </trkpt>
      <trkpt lat="48.40473" lon="2.68207">
        <ele>81.85</ele>
        <time>2017-03-19T07:59:47Z</time>
      </trkpt>
      <trkpt lat="48.40481" lon="2.6815">
        <ele>82.33</ele>
        <time>2017-03-19T07:59:57Z</time>
      </trkpt>
      <trkpt lat="48.40488" lon="2.68097">
        <ele>83.29</ele>
        <time>2017-03-19T08:00:06Z</time>
      </trkpt>
      <trkpt lat="48.40499" lon="2.68033">
        <ele>82.33</ele>
        <time>2017-03-19T08:00:17Z</time>
      </trkpt>
      <trkpt lat="48.40511" lon="2.67952">
        <ele>78.97</ele>
        <time>2017-03-19T08:00:30Z</time>
      </trkpt>
      <trkpt lat="48.40513" lon="2.67931">
        <ele>77.52</ele>
        <time>2017-03-19T08:00:33Z</time>
      </trkpt>
      <trkpt lat="48.40516" lon="2.6791">
        <ele>75.6</ele>
        <time>2017-03-19T08:00:36Z</time>
      </trkpt>
      <trkpt lat="48.40519" lon="2.67896">
        <ele>75.12</ele>
        <time>2017-03-19T08:00:38Z</time>
      </trkpt>
      <trkpt lat="48.40521" lon="2.67882">
        <ele>74.64</ele>
        <time>2017-03-19T08:00:40Z</time>
      </trkpt>
      <trkpt lat="48.4053" lon="2.67813">
        <ele>72.72</ele>
        <time>2017-03-19T08:00:51Z</time>
      </trkpt>
      <trkpt lat="48.40537" lon="2.67765">
        <ele>71.76</ele>
        <time>2017-03-19T08:01:00Z</time>
      </trkpt>
      <trkpt lat="48.40538" lon="2.67754">
        <ele>73.2</ele>
        <time>2017-03-19T08:01:02Z</time>
      </trkpt>
      <trkpt lat="48.40539" lon="2.67741">
        <ele>74.16</ele>
        <time>2017-03-19T08:01:04Z</time>
      </trkpt>
      <trkpt lat="48.40541" lon="2.67719">
        <ele>75.6</ele>
        <time>2017-03-19T08:01:07Z</time>
      </trkpt>
      <trkpt lat="48.40563" lon="2.67695">
        <ele>77.04</ele>
        <time>2017-03-19T08:01:13Z</time>
      </trkpt>
      <trkpt lat="48.40567" lon="2.67697">
        <ele>78</ele>
        <time>2017-03-19T08:01:14Z</time>
      </trkpt>
      <trkpt lat="48.40617" lon="2.67736">
        <ele>80.89</ele>
        <time>2017-03-19T08:01:25Z</time>
      </trkpt>
      <trkpt lat="48.40621" lon="2.67739">
        <ele>80.89</ele>
        <time>2017-03-19T08:01:26Z</time>
      </trkpt>
      <trkpt lat="48.40638" lon="2.6775">
        <ele>81.37</ele>
        <time>2017-03-19T08:01:30Z</time>
      </trkpt>
      <trkpt lat="48.40672" lon="2.67776">
        <ele>83.29</ele>
        <time>2017-03-19T08:01:39Z</time>
      </trkpt>
      <trkpt lat="48.40687" lon="2.67788">
        <ele>83.77</ele>
        <time>2017-03-19T08:01:43Z</time>
      </trkpt>
      <trkpt lat="48.40721" lon="2.67814">
        <ele>83.29</ele>
        <time>2017-03-19T08:01:53Z</time>
      </trkpt>
      <trkpt lat="48.40725" lon="2.67817">
        <ele>83.29</ele>
        <time>2017-03-19T08:01:54Z</time>
      </trkpt>
      <trkpt lat="48.40739" lon="2.67833">
        <ele>83.77</ele>
        <time>2017-03-19T08:02:01Z</time>
      </trkpt>
      <trkpt lat="48.40741" lon="2.67837">
        <ele>84.25</ele>
        <time>2017-03-19T08:02:03Z</time>
      </trkpt>
      <trkpt lat="48.4074" lon="2.67833">
        <ele>83.29</ele>
        <time>2017-03-19T08:02:09Z</time>
      </trkpt>
      <trkpt lat="48.40737" lon="2.67829">
        <ele>82.81</ele>
        <time>2017-03-19T08:02:11Z</time>
      </trkpt>
      <trkpt lat="48.40709" lon="2.67807">
        <ele>79.45</ele>
        <time>2017-03-19T08:02:22Z</time>
      </trkpt>
      <trkpt lat="48.4069" lon="2.67793">
        <ele>76.56</ele>
        <time>2017-03-19T08:02:27Z</time>
      </trkpt>
      <trkpt lat="48.40627" lon="2.67745">
        <ele>72.72</ele>
        <time>2017-03-19T08:02:39Z</time>
      </trkpt>
      <trkpt lat="48.406" lon="2.67723">
        <ele>71.27</ele>
        <time>2017-03-19T08:02:44Z</time>
      </trkpt>
      <trkpt lat="48.40588" lon="2.67715">
        <ele>71.76</ele>
        <time>2017-03-19T08:02:46Z</time>
      </trkpt>
      <trkpt lat="48.40572" lon="2.67703">
        <ele>71.76</ele>
        <time>2017-03-19T08:02:49Z</time>
      </trkpt>
      <trkpt lat="48.4056" lon="2.6767">
        <ele>73.68</ele>
        <time>2017-03-19T08:02:54Z</time>
      </trkpt>
      <trkpt lat="48.40573" lon="2.67652">
        <ele>73.2</ele>
        <time>2017-03-19T08:02:58Z</time>
      </trkpt>
      <trkpt lat="48.4058" lon="2.67643">
        <ele>72.72</ele>
        <time>2017-03-19T08:03:00Z</time>
      </trkpt>
      <trkpt lat="48.40584" lon="2.67637">
        <ele>72.72</ele>
        <time>2017-03-19T08:03:01Z</time>
      </trkpt>
      <trkpt lat="48.40591" lon="2.67627">
        <ele>72.72</ele>
        <time>2017-03-19T08:03:03Z</time>
      </trkpt>
      <trkpt lat="48.40594" lon="2.67622">
        <ele>72.72</ele>
        <time>2017-03-19T08:03:04Z</time>
      </trkpt>
      <trkpt lat="48.40631" lon="2.67573">
        <ele>73.2</ele>
        <time>2017-03-19T08:03:15Z</time>
      </trkpt>
      <trkpt lat="48.40656" lon="2.6754">
        <ele>76.56</ele>
        <time>2017-03-19T08:03:25Z</time>
      </trkpt>
      <trkpt lat="48.40659" lon="2.67531">
        <ele>76.08</ele>
        <time>2017-03-19T08:03:28Z</time>
      </trkpt>
      <trkpt lat="48.40661" lon="2.67529">
        <ele>75.6</ele>
        <time>2017-03-19T08:03:29Z</time>
      </trkpt>
      <trkpt lat="48.40674" lon="2.67509">
        <ele>74.16</ele>
        <time>2017-03-19T08:03:37Z</time>
      </trkpt>
      <trkpt lat="48.40686" lon="2.6749">
        <ele>71.76</ele>
        <time>2017-03-19T08:03:45Z</time>
      </trkpt>
      <trkpt lat="48.40693" lon="2.67481">
        <ele>70.79</ele>
        <time>2017-03-19T08:03:50Z</time>
      </trkpt>
      <trkpt lat="48.40696" lon="2.67481">
        <ele>70.79</ele>
        <time>2017-03-19T08:03:52Z</time>
      </trkpt>
      <trkpt lat="48.40703" lon="2.67495">
        <ele>74.64</ele>
        <time>2017-03-19T08:03:59Z</time>
      </trkpt>
      <trkpt lat="48.40715" lon="2.67519">
        <ele>81.37</ele>
        <time>2017-03-19T08:04:07Z</time>
      </trkpt>
      <trkpt lat="48.40732" lon="2.67539">
        <ele>83.77</ele>
        <time>2017-03-19T08:04:14Z</time>
      </trkpt>
      <trkpt lat="48.40751" lon="2.67564">
        <ele>84.25</ele>
        <time>2017-03-19T08:04:21Z</time>
      </trkpt>
      <trkpt lat="48.40758" lon="2.6758">
        <ele>84.25</ele>
        <time>2017-03-19T08:04:24Z</time>
      </trkpt>
      <trkpt lat="48.4076" lon="2.67586">
        <ele>84.25</ele>
        <time>2017-03-19T08:04:25Z</time>
      </trkpt>
      <trkpt lat="48.40763" lon="2.67592">
        <ele>84.25</ele>
        <time>2017-03-19T08:04:26Z</time>
      </trkpt>
      <trkpt lat="48.40768" lon="2.67618">
        <ele>84.73</ele>
        <time>2017-03-19T08:04:29Z</time>
      </trkpt>
      <trkpt lat="48.40775" lon="2.67667">
        <ele>85.21</ele>
        <time>2017-03-19T08:04:34Z</time>
      </trkpt>
      <trkpt lat="48.40776" lon="2.67677">
        <ele>85.21</ele>
        <time>2017-03-19T08:04:35Z</time>
      </trkpt>
      <trkpt lat="48.40798" lon="2.67762">
        <ele>84.25</ele>
        <time>2017-03-19T08:04:45Z</time>
      </trkpt>
      <trkpt lat="48.40817" lon="2.67822">
        <ele>85.21</ele>
        <time>2017-03-19T08:04:54Z</time>
      </trkpt>
      <trkpt lat="48.40818" lon="2.67828">
        <ele>85.21</ele>
        <time>2017-03-19T08:04:55Z</time>
      </trkpt>
      <trkpt lat="48.4083" lon="2.67865">
        <ele>84.73</ele>
        <time>2017-03-19T08:05:01Z</time>
      </trkpt>
      <trkpt lat="48.40837" lon="2.67871">
        <ele>84.25</ele>
        <time>2017-03-19T08:05:05Z</time>
      </trkpt>
      <trkpt lat="48.40844" lon="2.67874">
        <ele>83.29</ele>
        <time>2017-03-19T08:05:08Z</time>
      </trkpt>
      <trkpt lat="48.40861" lon="2.67846">
        <ele>79.45</ele>
        <time>2017-03-19T08:05:16Z</time>
      </trkpt>
      <trkpt lat="48.40871" lon="2.67825">
        <ele>78</ele>
        <time>2017-03-19T08:05:20Z</time>
      </trkpt>
      <trkpt lat="48.4089" lon="2.67773">
        <ele>72.72</ele>
        <time>2017-03-19T08:05:29Z</time>
      </trkpt>
      <trkpt lat="48.409" lon="2.67743">
        <ele>70.31</ele>
        <time>2017-03-19T08:05:34Z</time>
      </trkpt>
      <trkpt lat="48.40922" lon="2.67681">
        <ele>69.83</ele>
        <time>2017-03-19T08:05:45Z</time>
      </trkpt>
      <trkpt lat="48.40932" lon="2.67651">
        <ele>70.31</ele>
        <time>2017-03-19T08:05:52Z</time>
      </trkpt>
      <trkpt lat="48.40947" lon="2.67608">
        <ele>72.24</ele>
        <time>2017-03-19T08:06:02Z</time>
      </trkpt>
      <trkpt lat="48.40964" lon="2.67562">
        <ele>75.12</ele>
        <time>2017-03-19T08:06:11Z</time>
      </trkpt>
      <trkpt lat="48.40983" lon="2.67513">
        <ele>76.56</ele>
        <time>2017-03-19T08:06:21Z</time>
      </trkpt>
      <trkpt lat="48.41" lon="2.67472">
        <ele>76.56</ele>
        <time>2017-03-19T08:06:30Z</time>
      </trkpt>
      <trkpt lat="48.41019" lon="2.67425">
        <ele>75.6</ele>
        <time>2017-03-19T08:06:40Z</time>
      </trkpt>
      <trkpt lat="48.41032" lon="2.67382">
        <ele>74.16</ele>
        <time>2017-03-19T08:06:49Z</time>
      </trkpt>
      <trkpt lat="48.41036" lon="2.67375">
        <ele>73.68</ele>
        <time>2017-03-19T08:06:51Z</time>
      </trkpt>
      <trkpt lat="48.41032" lon="2.67326">
        <ele>76.08</ele>
        <time>2017-03-19T08:07:00Z</time>
      </trkpt>
      <trkpt lat="48.41027" lon="2.67289">
        <ele>80.89</ele>
        <time>2017-03-19T08:07:08Z</time>
      </trkpt>
      <trkpt lat="48.41021" lon="2.67243">
        <ele>84.25</ele>
        <time>2017-03-19T08:07:18Z</time>
      </trkpt>
      <trkpt lat="48.41017" lon="2.67209">
        <ele>87.14</ele>
        <time>2017-03-19T08:07:26Z</time>
      </trkpt>
      <trkpt lat="48.41012" lon="2.67172">
        <ele>94.35</ele>
        <time>2017-03-19T08:07:34Z</time>
      </trkpt>
      <trkpt lat="48.41007" lon="2.6713">
        <ele>97.71</ele>
        <time>2017-03-19T08:07:45Z</time>
      </trkpt>
      <trkpt lat="48.41002" lon="2.67094">
        <ele>99.15</ele>
        <time>2017-03-19T08:07:56Z</time>
      </trkpt>
      <trkpt lat="48.40998" lon="2.67059">
        <ele>100.6</ele>
        <time>2017-03-19T08:08:08Z</time>
      </trkpt>
      <trkpt lat="48.40994" lon="2.6703">
        <ele>101.56</ele>
        <time>2017-03-19T08:08:20Z</time>
      </trkpt>
      <trkpt lat="48.40991" lon="2.67">
        <ele>105.88</ele>
        <time>2017-03-19T08:08:32Z</time>
      </trkpt>
      <trkpt lat="48.40991" lon="2.66995">
        <ele>107.32</ele>
        <time>2017-03-19T08:08:34Z</time>
      </trkpt>
      <trkpt lat="48.4099" lon="2.66982">
        <ele>108.29</ele>
        <time>2017-03-19T08:08:39Z</time>
      </trkpt>
      <trkpt lat="48.40988" lon="2.66967">
        <ele>110.69</ele>
        <time>2017-03-19T08:08:45Z</time>
      </trkpt>
      <trkpt lat="48.40984" lon="2.66936">
        <ele>112.61</ele>
        <time>2017-03-19T08:08:55Z</time>
      </trkpt>
      <trkpt lat="48.40979" lon="2.66901">
        <ele>115.01</ele>
        <time>2017-03-19T08:09:05Z</time>
      </trkpt>
      <trkpt lat="48.40975" lon="2.66861">
        <ele>115.5</ele>
        <time>2017-03-19T08:09:15Z</time>
      </trkpt>
      <trkpt lat="48.40967" lon="2.66825">
        <ele>117.42</ele>
        <time>2017-03-19T08:09:25Z</time>
      </trkpt>
      <trkpt lat="48.40965" lon="2.66795">
        <ele>119.34</ele>
        <time>2017-03-19T08:09:34Z</time>
      </trkpt>
      <trkpt lat="48.40963" lon="2.6677">
        <ele>120.78</ele>
        <time>2017-03-19T08:09:43Z</time>
      </trkpt>
      <trkpt lat="48.40963" lon="2.66764">
        <ele>121.26</ele>
        <time>2017-03-19T08:09:45Z</time>
      </trkpt>
      <trkpt lat="48.40961" lon="2.66744">
        <ele>124.15</ele>
        <time>2017-03-19T08:09:52Z</time>
      </trkpt>
      <trkpt lat="48.40957" lon="2.66717">
        <ele>125.11</ele>
        <time>2017-03-19T08:10:01Z</time>
      </trkpt>
      <trkpt lat="48.40954" lon="2.66687">
        <ele>124.15</ele>
        <time>2017-03-19T08:10:10Z</time>
      </trkpt>
      <trkpt lat="48.40952" lon="2.6667">
        <ele>124.15</ele>
        <time>2017-03-19T08:10:15Z</time>
      </trkpt>
      <trkpt lat="48.40951" lon="2.66659">
        <ele>123.67</ele>
        <time>2017-03-19T08:10:19Z</time>
      </trkpt>
      <trkpt lat="48.40946" lon="2.66614">
        <ele>124.15</ele>
        <time>2017-03-19T08:10:29Z</time>
      </trkpt>
      <trkpt lat="48.40938" lon="2.6656">
        <ele>126.55</ele>
        <time>2017-03-19T08:10:39Z</time>
      </trkpt>
      <trkpt lat="48.4093" lon="2.66496">
        <ele>128.47</ele>
        <time>2017-03-19T08:10:50Z</time>
      </trkpt>
      <trkpt lat="48.40924" lon="2.66438">
        <ele>128.95</ele>
        <time>2017-03-19T08:11:00Z</time>
      </trkpt>
      <trkpt lat="48.40916" lon="2.66379">
        <ele>128.47</ele>
        <time>2017-03-19T08:11:11Z</time>
      </trkpt>
      <trkpt lat="48.4091" lon="2.66332">
        <ele>129.92</ele>
        <time>2017-03-19T08:11:20Z</time>
      </trkpt>
      <trkpt lat="48.40908" lon="2.66303">
        <ele>130.88</ele>
        <time>2017-03-19T08:11:25Z</time>
      </trkpt>
      <trkpt lat="48.40907" lon="2.66296">
        <ele>130.88</ele>
        <time>2017-03-19T08:11:26Z</time>
      </trkpt>
      <trkpt lat="48.40899" lon="2.66236">
        <ele>132.8</ele>
        <time>2017-03-19T08:11:36Z</time>
      </trkpt>
      <trkpt lat="48.40896" lon="2.66209">
        <ele>134.24</ele>
        <time>2017-03-19T08:11:40Z</time>
      </trkpt>
      <trkpt lat="48.4089" lon="2.66137">
        <ele>138.09</ele>
        <time>2017-03-19T08:11:51Z</time>
      </trkpt>
      <trkpt lat="48.4089" lon="2.66131">
        <ele>138.57</ele>
        <time>2017-03-19T08:11:52Z</time>
      </trkpt>
      <trkpt lat="48.40889" lon="2.66124">
        <ele>139.05</ele>
        <time>2017-03-19T08:11:53Z</time>
      </trkpt>
      <trkpt lat="48.40886" lon="2.66106">
        <ele>140.49</ele>
        <time>2017-03-19T08:11:56Z</time>
      </trkpt>
      <trkpt lat="48.40886" lon="2.66099">
        <ele>140.49</ele>
        <time>2017-03-19T08:11:57Z</time>
      </trkpt>
      <trkpt lat="48.40885" lon="2.66092">
        <ele>140.97</ele>
        <time>2017-03-19T08:11:58Z</time>
      </trkpt>
      <trkpt lat="48.40884" lon="2.66085">
        <ele>141.45</ele>
        <time>2017-03-19T08:11:59Z</time>
      </trkpt>
      <trkpt lat="48.40884" lon="2.66079">
        <ele>141.45</ele>
        <time>2017-03-19T08:12:00Z</time>
      </trkpt>
      <trkpt lat="48.4088" lon="2.66048">
        <ele>138.09</ele>
        <time>2017-03-19T08:12:05Z</time>
      </trkpt>
      <trkpt lat="48.40879" lon="2.66042">
        <ele>137.13</ele>
        <time>2017-03-19T08:12:06Z</time>
      </trkpt>
      <trkpt lat="48.40874" lon="2.65998">
        <ele>134.24</ele>
        <time>2017-03-19T08:12:12Z</time>
      </trkpt>
      <trkpt lat="48.40873" lon="2.65991">
        <ele>133.76</ele>
        <time>2017-03-19T08:12:13Z</time>
      </trkpt>
      <trkpt lat="48.40873" lon="2.65984">
        <ele>133.76</ele>
        <time>2017-03-19T08:12:14Z</time>
      </trkpt>
      <trkpt lat="48.40872" lon="2.65977">
        <ele>133.28</ele>
        <time>2017-03-19T08:12:15Z</time>
      </trkpt>
      <trkpt lat="48.40871" lon="2.6597">
        <ele>133.28</ele>
        <time>2017-03-19T08:12:16Z</time>
      </trkpt>
      <trkpt lat="48.40864" lon="2.6591">
        <ele>132.32</ele>
        <time>2017-03-19T08:12:25Z</time>
      </trkpt>
      <trkpt lat="48.40864" lon="2.65903">
        <ele>131.84</ele>
        <time>2017-03-19T08:12:26Z</time>
      </trkpt>
      <trkpt lat="48.40863" lon="2.65897">
        <ele>131.84</ele>
        <time>2017-03-19T08:12:27Z</time>
      </trkpt>
      <trkpt lat="48.40862" lon="2.6589">
        <ele>131.84</ele>
        <time>2017-03-19T08:12:28Z</time>
      </trkpt>
      <trkpt lat="48.40861" lon="2.65884">
        <ele>131.36</ele>
        <time>2017-03-19T08:12:29Z</time>
      </trkpt>
      <trkpt lat="48.40862" lon="2.65879">
        <ele>131.36</ele>
        <time>2017-03-19T08:12:30Z</time>
      </trkpt>
      <trkpt lat="48.40861" lon="2.65873">
        <ele>131.36</ele>
        <time>2017-03-19T08:12:31Z</time>
      </trkpt>
      <trkpt lat="48.4086" lon="2.65866">
        <ele>131.36</ele>
        <time>2017-03-19T08:12:32Z</time>
      </trkpt>
      <trkpt lat="48.40859" lon="2.65859">
        <ele>131.36</ele>
        <time>2017-03-19T08:12:33Z</time>
      </trkpt>
      <trkpt lat="48.40855" lon="2.65828">
        <ele>131.36</ele>
        <time>2017-03-19T08:12:38Z</time>
      </trkpt>
      <trkpt lat="48.40849" lon="2.65781">
        <ele>131.84</ele>
        <time>2017-03-19T08:12:46Z</time>
      </trkpt>
      <trkpt lat="48.40848" lon="2.65774">
        <ele>131.84</ele>
        <time>2017-03-19T08:12:47Z</time>
      </trkpt>
      <trkpt lat="48.40847" lon="2.65768">
        <ele>131.84</ele>
        <time>2017-03-19T08:12:48Z</time>
      </trkpt>
      <trkpt lat="48.40846" lon="2.65762">
        <ele>132.32</ele>
        <time>2017-03-19T08:12:49Z</time>
      </trkpt>
      <trkpt lat="48.40843" lon="2.65743">
        <ele>132.32</ele>
        <time>2017-03-19T08:12:52Z</time>
      </trkpt>
      <trkpt lat="48.4084" lon="2.65714">
        <ele>132.8</ele>
        <time>2017-03-19T08:12:56Z</time>
      </trkpt>
      <trkpt lat="48.40839" lon="2.65707">
        <ele>132.8</ele>
        <time>2017-03-19T08:12:57Z</time>
      </trkpt>
      <trkpt lat="48.40832" lon="2.65639">
        <ele>131.36</ele>
        <time>2017-03-19T08:13:07Z</time>
      </trkpt>
      <trkpt lat="48.4083" lon="2.65628">
        <ele>130.88</ele>
        <time>2017-03-19T08:13:09Z</time>
      </trkpt>
      <trkpt lat="48.40829" lon="2.65622">
        <ele>130.4</ele>
        <time>2017-03-19T08:13:10Z</time>
      </trkpt>
      <trkpt lat="48.40819" lon="2.65552">
        <ele>127.03</ele>
        <time>2017-03-19T08:13:20Z</time>
      </trkpt>
      <trkpt lat="48.40812" lon="2.65489">
        <ele>125.59</ele>
        <time>2017-03-19T08:13:31Z</time>
      </trkpt>
      <trkpt lat="48.40812" lon="2.65478">
        <ele>125.59</ele>
        <time>2017-03-19T08:13:33Z</time>
      </trkpt>
      <trkpt lat="48.40813" lon="2.65474">
        <ele>125.59</ele>
        <time>2017-03-19T08:13:34Z</time>
      </trkpt>
      <trkpt lat="48.40815" lon="2.65472">
        <ele>125.11</ele>
        <time>2017-03-19T08:13:35Z</time>
      </trkpt>
      <trkpt lat="48.40823" lon="2.65472">
        <ele>125.11</ele>
        <time>2017-03-19T08:13:38Z</time>
      </trkpt>
      <trkpt lat="48.40842" lon="2.65481">
        <ele>123.19</ele>
        <time>2017-03-19T08:13:44Z</time>
      </trkpt>
      <trkpt lat="48.40867" lon="2.65492">
        <ele>121.74</ele>
        <time>2017-03-19T08:13:50Z</time>
      </trkpt>
      <trkpt lat="48.40901" lon="2.65504">
        <ele>118.38</ele>
        <time>2017-03-19T08:13:57Z</time>
      </trkpt>
      <trkpt lat="48.40929" lon="2.65515">
        <ele>115.5</ele>
        <time>2017-03-19T08:14:03Z</time>
      </trkpt>
      <trkpt lat="48.40978" lon="2.65534">
        <ele>115.01</ele>
        <time>2017-03-19T08:14:13Z</time>
      </trkpt>
      <trkpt lat="48.41054" lon="2.65563">
        <ele>120.78</ele>
        <time>2017-03-19T08:14:27Z</time>
      </trkpt>
      <trkpt lat="48.41101" lon="2.65582">
        <ele>123.19</ele>
        <time>2017-03-19T08:14:36Z</time>
      </trkpt>
      <trkpt lat="48.41129" lon="2.65594">
        <ele>122.22</ele>
        <time>2017-03-19T08:14:42Z</time>
      </trkpt>
      <trkpt lat="48.41144" lon="2.65582">
        <ele>117.42</ele>
        <time>2017-03-19T08:14:48Z</time>
      </trkpt>
      <trkpt lat="48.41146" lon="2.65571">
        <ele>115.98</ele>
        <time>2017-03-19T08:14:50Z</time>
      </trkpt>
      <trkpt lat="48.41139" lon="2.65526">
        <ele>112.61</ele>
        <time>2017-03-19T08:14:59Z</time>
      </trkpt>
      <trkpt lat="48.41119" lon="2.65465">
        <ele>111.65</ele>
        <time>2017-03-19T08:15:11Z</time>
      </trkpt>
      <trkpt lat="48.41108" lon="2.6543">
        <ele>112.13</ele>
        <time>2017-03-19T08:15:18Z</time>
      </trkpt>
      <trkpt lat="48.41097" lon="2.65397">
        <ele>117.9</ele>
        <time>2017-03-19T08:15:24Z</time>
      </trkpt>
      <trkpt lat="48.41083" lon="2.65356">
        <ele>121.26</ele>
        <time>2017-03-19T08:15:32Z</time>
      </trkpt>
      <trkpt lat="48.41079" lon="2.65338">
        <ele>122.71</ele>
        <time>2017-03-19T08:15:35Z</time>
      </trkpt>
      <trkpt lat="48.41069" lon="2.65307">
        <ele>123.67</ele>
        <time>2017-03-19T08:15:40Z</time>
      </trkpt>
      <trkpt lat="48.41057" lon="2.6527">
        <ele>122.71</ele>
        <time>2017-03-19T08:15:47Z</time>
      </trkpt>
      <trkpt lat="48.4105" lon="2.6525">
        <ele>122.71</ele>
        <time>2017-03-19T08:15:50Z</time>
      </trkpt>
      <trkpt lat="48.41048" lon="2.65244">
        <ele>122.22</ele>
        <time>2017-03-19T08:15:51Z</time>
      </trkpt>
      <trkpt lat="48.41046" lon="2.65239">
        <ele>122.71</ele>
        <time>2017-03-19T08:15:52Z</time>
      </trkpt>
      <trkpt lat="48.41044" lon="2.65232">
        <ele>122.71</ele>
        <time>2017-03-19T08:15:53Z</time>
      </trkpt>
      <trkpt lat="48.41042" lon="2.65226">
        <ele>122.71</ele>
        <time>2017-03-19T08:15:54Z</time>
      </trkpt>
      <trkpt lat="48.4104" lon="2.65219">
        <ele>122.71</ele>
        <time>2017-03-19T08:15:55Z</time>
      </trkpt>
      <trkpt lat="48.41025" lon="2.65177">
        <ele>124.15</ele>
        <time>2017-03-19T08:16:02Z</time>
      </trkpt>
      <trkpt lat="48.41022" lon="2.65164">
        <ele>124.63</ele>
        <time>2017-03-19T08:16:04Z</time>
      </trkpt>
      <trkpt lat="48.41007" lon="2.65118">
        <ele>125.59</ele>
        <time>2017-03-19T08:16:12Z</time>
      </trkpt>
      <trkpt lat="48.41003" lon="2.65107">
        <ele>125.11</ele>
        <time>2017-03-19T08:16:14Z</time>
      </trkpt>
      <trkpt lat="48.41" lon="2.651">
        <ele>125.59</ele>
        <time>2017-03-19T08:16:15Z</time>
      </trkpt>
      <trkpt lat="48.40997" lon="2.65092">
        <ele>126.07</ele>
        <time>2017-03-19T08:16:16Z</time>
      </trkpt>
      <trkpt lat="48.40995" lon="2.65085">
        <ele>126.55</ele>
        <time>2017-03-19T08:16:17Z</time>
      </trkpt>
      <trkpt lat="48.40992" lon="2.65078">
        <ele>127.03</ele>
        <time>2017-03-19T08:16:18Z</time>
      </trkpt>
      <trkpt lat="48.40987" lon="2.6506">
        <ele>127.03</ele>
        <time>2017-03-19T08:16:21Z</time>
      </trkpt>
      <trkpt lat="48.40968" lon="2.65004">
        <ele>128.47</ele>
        <time>2017-03-19T08:16:31Z</time>
      </trkpt>
      <trkpt lat="48.40955" lon="2.64962">
        <ele>131.36</ele>
        <time>2017-03-19T08:16:39Z</time>
      </trkpt>
      <trkpt lat="48.40939" lon="2.64914">
        <ele>134.24</ele>
        <time>2017-03-19T08:16:48Z</time>
      </trkpt>
      <trkpt lat="48.40926" lon="2.64878">
        <ele>135.68</ele>
        <time>2017-03-19T08:16:55Z</time>
      </trkpt>
      <trkpt lat="48.40924" lon="2.64873">
        <ele>135.68</ele>
        <time>2017-03-19T08:16:56Z</time>
      </trkpt>
      <trkpt lat="48.40922" lon="2.64867">
        <ele>136.16</ele>
        <time>2017-03-19T08:16:57Z</time>
      </trkpt>
      <trkpt lat="48.40921" lon="2.64861">
        <ele>136.64</ele>
        <time>2017-03-19T08:16:58Z</time>
      </trkpt>
      <trkpt lat="48.40919" lon="2.64856">
        <ele>136.64</ele>
        <time>2017-03-19T08:16:59Z</time>
      </trkpt>
      <trkpt lat="48.40917" lon="2.6485">
        <ele>137.13</ele>
        <time>2017-03-19T08:17:00Z</time>
      </trkpt>
      <trkpt lat="48.40916" lon="2.64844">
        <ele>137.61</ele>
        <time>2017-03-19T08:17:01Z</time>
      </trkpt>
      <trkpt lat="48.40913" lon="2.64838">
        <ele>138.09</ele>
        <time>2017-03-19T08:17:02Z</time>
      </trkpt>
      <trkpt lat="48.40911" lon="2.64831">
        <ele>138.57</ele>
        <time>2017-03-19T08:17:03Z</time>
      </trkpt>
      <trkpt lat="48.40909" lon="2.64825">
        <ele>139.05</ele>
        <time>2017-03-19T08:17:04Z</time>
      </trkpt>
      <trkpt lat="48.40907" lon="2.64819">
        <ele>139.53</ele>
        <time>2017-03-19T08:17:05Z</time>
      </trkpt>
      <trkpt lat="48.40892" lon="2.64773">
        <ele>140.97</ele>
        <time>2017-03-19T08:17:14Z</time>
      </trkpt>
      <trkpt lat="48.40887" lon="2.64752">
        <ele>138.09</ele>
        <time>2017-03-19T08:17:21Z</time>
      </trkpt>
      <trkpt lat="48.40886" lon="2.6475">
        <ele>138.09</ele>
        <time>2017-03-19T08:17:22Z</time>
      </trkpt>
      <trkpt lat="48.40883" lon="2.64742">
        <ele>136.64</ele>
        <time>2017-03-19T08:17:31Z</time>
      </trkpt>
      <trkpt lat="48.40882" lon="2.6474">
        <ele>136.64</ele>
        <time>2017-03-19T08:17:32Z</time>
      </trkpt>
      <trkpt lat="48.40878" lon="2.64716">
        <ele>138.09</ele>
        <time>2017-03-19T08:17:40Z</time>
      </trkpt>
      <trkpt lat="48.40872" lon="2.6468">
        <ele>137.61</ele>
        <time>2017-03-19T08:17:47Z</time>
      </trkpt>
      <trkpt lat="48.4087" lon="2.64666">
        <ele>138.09</ele>
        <time>2017-03-19T08:17:49Z</time>
      </trkpt>
      <trkpt lat="48.40868" lon="2.64658">
        <ele>138.09</ele>
        <time>2017-03-19T08:17:50Z</time>
      </trkpt>
      <trkpt lat="48.40866" lon="2.6465">
        <ele>137.61</ele>
        <time>2017-03-19T08:17:51Z</time>
      </trkpt>
      <trkpt lat="48.40863" lon="2.64636">
        <ele>137.61</ele>
        <time>2017-03-19T08:17:53Z</time>
      </trkpt>
      <trkpt lat="48.40862" lon="2.64629">
        <ele>138.09</ele>
        <time>2017-03-19T08:17:54Z</time>
      </trkpt>
      <trkpt lat="48.40861" lon="2.64622">
        <ele>138.09</ele>
        <time>2017-03-19T08:17:55Z</time>
      </trkpt>
      <trkpt lat="48.40857" lon="2.64602">
        <ele>138.09</ele>
        <time>2017-03-19T08:17:58Z</time>
      </trkpt>
      <trkpt lat="48.40856" lon="2.64595">
        <ele>138.09</ele>
        <time>2017-03-19T08:17:59Z</time>
      </trkpt>
      <trkpt lat="48.40854" lon="2.64582">
        <ele>138.09</ele>
        <time>2017-03-19T08:18:01Z</time>
      </trkpt>
      <trkpt lat="48.40854" lon="2.64576">
        <ele>137.61</ele>
        <time>2017-03-19T08:18:02Z</time>
      </trkpt>
      <trkpt lat="48.40849" lon="2.64528">
        <ele>130.88</ele>
        <time>2017-03-19T08:18:10Z</time>
      </trkpt>
      <trkpt lat="48.4084" lon="2.64482">
        <ele>129.43</ele>
        <time>2017-03-19T08:18:17Z</time>
      </trkpt>
      <trkpt lat="48.40839" lon="2.64476">
        <ele>128.95</ele>
        <time>2017-03-19T08:18:18Z</time>
      </trkpt>
      <trkpt lat="48.40837" lon="2.6447">
        <ele>128.47</ele>
        <time>2017-03-19T08:18:19Z</time>
      </trkpt>
      <trkpt lat="48.40836" lon="2.64463">
        <ele>128.47</ele>
        <time>2017-03-19T08:18:20Z</time>
      </trkpt>
      <trkpt lat="48.40834" lon="2.64457">
        <ele>127.99</ele>
        <time>2017-03-19T08:18:21Z</time>
      </trkpt>
      <trkpt lat="48.40833" lon="2.64451">
        <ele>127.99</ele>
        <time>2017-03-19T08:18:22Z</time>
      </trkpt>
      <trkpt lat="48.40831" lon="2.64444">
        <ele>127.51</ele>
        <time>2017-03-19T08:18:23Z</time>
      </trkpt>
      <trkpt lat="48.40826" lon="2.64412">
        <ele>126.07</ele>
        <time>2017-03-19T08:18:28Z</time>
      </trkpt>
      <trkpt lat="48.4082" lon="2.64375">
        <ele>127.03</ele>
        <time>2017-03-19T08:18:34Z</time>
      </trkpt>
      <trkpt lat="48.40818" lon="2.64362">
        <ele>127.51</ele>
        <time>2017-03-19T08:18:36Z</time>
      </trkpt>
      <trkpt lat="48.40812" lon="2.6432">
        <ele>129.43</ele>
        <time>2017-03-19T08:18:42Z</time>
      </trkpt>
      <trkpt lat="48.4081" lon="2.64307">
        <ele>130.4</ele>
        <time>2017-03-19T08:18:44Z</time>
      </trkpt>
      <trkpt lat="48.40807" lon="2.64289">
        <ele>130.88</ele>
        <time>2017-03-19T08:18:47Z</time>
      </trkpt>
      <trkpt lat="48.40798" lon="2.64295">
        <ele>128.95</ele>
        <time>2017-03-19T08:18:53Z</time>
      </trkpt>
      <trkpt lat="48.40797" lon="2.64318">
        <ele>127.03</ele>
        <time>2017-03-19T08:18:58Z</time>
      </trkpt>
      <trkpt lat="48.40793" lon="2.6434">
        <ele>126.55</ele>
        <time>2017-03-19T08:19:01Z</time>
      </trkpt>
      <trkpt lat="48.40786" lon="2.64373">
        <ele>126.07</ele>
        <time>2017-03-19T08:19:05Z</time>
      </trkpt>
      <trkpt lat="48.40776" lon="2.64416">
        <ele>124.63</ele>
        <time>2017-03-19T08:19:10Z</time>
      </trkpt>
      <trkpt lat="48.40771" lon="2.64438">
        <ele>123.67</ele>
        <time>2017-03-19T08:19:12Z</time>
      </trkpt>
      <trkpt lat="48.4076" lon="2.64541">
        <ele>118.38</ele>
        <time>2017-03-19T08:19:20Z</time>
      </trkpt>
      <trkpt lat="48.40744" lon="2.64657">
        <ele>112.13</ele>
        <time>2017-03-19T08:19:28Z</time>
      </trkpt>
      <trkpt lat="48.40738" lon="2.64697">
        <ele>110.69</ele>
        <time>2017-03-19T08:19:31Z</time>
      </trkpt>
      <trkpt lat="48.40734" lon="2.64738">
        <ele>108.29</ele>
        <time>2017-03-19T08:19:35Z</time>
      </trkpt>
      <trkpt lat="48.40733" lon="2.64757">
        <ele>106.84</ele>
        <time>2017-03-19T08:19:37Z</time>
      </trkpt>
      <trkpt lat="48.40729" lon="2.64781">
        <ele>106.36</ele>
        <time>2017-03-19T08:19:39Z</time>
      </trkpt>
      <trkpt lat="48.40704" lon="2.64842">
        <ele>103</ele>
        <time>2017-03-19T08:19:45Z</time>
      </trkpt>
      <trkpt lat="48.40691" lon="2.64877">
        <ele>100.6</ele>
        <time>2017-03-19T08:19:48Z</time>
      </trkpt>
      <trkpt lat="48.40672" lon="2.64917">
        <ele>98.67</ele>
        <time>2017-03-19T08:19:52Z</time>
      </trkpt>
      <trkpt lat="48.40652" lon="2.64947">
        <ele>97.71</ele>
        <time>2017-03-19T08:19:57Z</time>
      </trkpt>
      <trkpt lat="48.4063" lon="2.64949">
        <ele>98.19</ele>
        <time>2017-03-19T08:20:06Z</time>
      </trkpt>
      <trkpt lat="48.40602" lon="2.64949">
        <ele>98.67</ele>
        <time>2017-03-19T08:20:14Z</time>
      </trkpt>
      <trkpt lat="48.40593" lon="2.6495">
        <ele>98.67</ele>
        <time>2017-03-19T08:20:16Z</time>
      </trkpt>
      <trkpt lat="48.40568" lon="2.64949">
        <ele>97.23</ele>
        <time>2017-03-19T08:20:21Z</time>
      </trkpt>
      <trkpt lat="48.40556" lon="2.6495">
        <ele>96.75</ele>
        <time>2017-03-19T08:20:23Z</time>
      </trkpt>
      <trkpt lat="48.4053" lon="2.64962">
        <ele>94.83</ele>
        <time>2017-03-19T08:20:28Z</time>
      </trkpt>
      <trkpt lat="48.40515" lon="2.64975">
        <ele>93.87</ele>
        <time>2017-03-19T08:20:31Z</time>
      </trkpt>
      <trkpt lat="48.40505" lon="2.64984">
        <ele>93.39</ele>
        <time>2017-03-19T08:20:33Z</time>
      </trkpt>
      <trkpt lat="48.40469" lon="2.65038">
        <ele>88.58</ele>
        <time>2017-03-19T08:20:41Z</time>
      </trkpt>
      <trkpt lat="48.40458" lon="2.65062">
        <ele>86.18</ele>
        <time>2017-03-19T08:20:45Z</time>
      </trkpt>
      <trkpt lat="48.40453" lon="2.65075">
        <ele>85.21</ele>
        <time>2017-03-19T08:20:47Z</time>
      </trkpt>
      <trkpt lat="48.40444" lon="2.65121">
        <ele>83.29</ele>
        <time>2017-03-19T08:20:53Z</time>
      </trkpt>
      <trkpt lat="48.40441" lon="2.65152">
        <ele>80.89</ele>
        <time>2017-03-19T08:20:57Z</time>
      </trkpt>
      <trkpt lat="48.40432" lon="2.65224">
        <ele>77.04</ele>
        <time>2017-03-19T08:21:05Z</time>
      </trkpt>
      <trkpt lat="48.4043" lon="2.65254">
        <ele>76.08</ele>
        <time>2017-03-19T08:21:09Z</time>
      </trkpt>
      <trkpt lat="48.40427" lon="2.65286">
        <ele>75.6</ele>
        <time>2017-03-19T08:21:13Z</time>
      </trkpt>
      <trkpt lat="48.40416" lon="2.65364">
        <ele>74.64</ele>
        <time>2017-03-19T08:21:22Z</time>
      </trkpt>
      <trkpt lat="48.4041" lon="2.65394">
        <ele>75.12</ele>
        <time>2017-03-19T08:21:25Z</time>
      </trkpt>
      <trkpt lat="48.40405" lon="2.65431">
        <ele>75.12</ele>
        <time>2017-03-19T08:21:29Z</time>
      </trkpt>
      <trkpt lat="48.40397" lon="2.6547">
        <ele>76.08</ele>
        <time>2017-03-19T08:21:33Z</time>
      </trkpt>
      <trkpt lat="48.40386" lon="2.65559">
        <ele>76.08</ele>
        <time>2017-03-19T08:21:43Z</time>
      </trkpt>
      <trkpt lat="48.40386" lon="2.65576">
        <ele>77.04</ele>
        <time>2017-03-19T08:21:45Z</time>
      </trkpt>
      <trkpt lat="48.40385" lon="2.65639">
        <ele>79.93</ele>
        <time>2017-03-19T08:21:54Z</time>
      </trkpt>
      <trkpt lat="48.40385" lon="2.65682">
        <ele>83.29</ele>
        <time>2017-03-19T08:22:03Z</time>
      </trkpt>
      <trkpt lat="48.40384" lon="2.65732">
        <ele>86.66</ele>
        <time>2017-03-19T08:22:12Z</time>
      </trkpt>
      <trkpt lat="48.40384" lon="2.65784">
        <ele>87.14</ele>
        <time>2017-03-19T08:22:21Z</time>
      </trkpt>
      <trkpt lat="48.40384" lon="2.65822">
        <ele>86.18</ele>
        <time>2017-03-19T08:22:27Z</time>
      </trkpt>
      <trkpt lat="48.40383" lon="2.65857">
        <ele>85.21</ele>
        <time>2017-03-19T08:22:32Z</time>
      </trkpt>
      <trkpt lat="48.40385" lon="2.65878">
        <ele>84.73</ele>
        <time>2017-03-19T08:22:35Z</time>
      </trkpt>
      <trkpt lat="48.40386" lon="2.65901">
        <ele>83.77</ele>
        <time>2017-03-19T08:22:38Z</time>
      </trkpt>
      <trkpt lat="48.40384" lon="2.65917">
        <ele>82.81</ele>
        <time>2017-03-19T08:22:40Z</time>
      </trkpt>
      <trkpt lat="48.40385" lon="2.65987">
        <ele>80.89</ele>
        <time>2017-03-19T08:22:48Z</time>
      </trkpt>
      <trkpt lat="48.40385" lon="2.66026">
        <ele>78</ele>
        <time>2017-03-19T08:22:53Z</time>
      </trkpt>
      <trkpt lat="48.4037" lon="2.66054">
        <ele>77.04</ele>
        <time>2017-03-19T08:22:58Z</time>
      </trkpt>
      <trkpt lat="48.40364" lon="2.66055">
        <ele>77.52</ele>
        <time>2017-03-19T08:22:59Z</time>
      </trkpt>
      <trkpt lat="48.40325" lon="2.66055">
        <ele>78.48</ele>
        <time>2017-03-19T08:23:05Z</time>
      </trkpt>
      <trkpt lat="48.40261" lon="2.66049">
        <ele>80.41</ele>
        <time>2017-03-19T08:23:16Z</time>
      </trkpt>
      <trkpt lat="48.40199" lon="2.66042">
        <ele>80.89</ele>
        <time>2017-03-19T08:23:27Z</time>
      </trkpt>
      <trkpt lat="48.40193" lon="2.66041">
        <ele>80.89</ele>
        <time>2017-03-19T08:23:28Z</time>
      </trkpt>
      <trkpt lat="48.40168" lon="2.66036">
        <ele>81.37</ele>
        <time>2017-03-19T08:23:33Z</time>
      </trkpt>
      <trkpt lat="48.40153" lon="2.66034">
        <ele>81.37</ele>
        <time>2017-03-19T08:23:36Z</time>
      </trkpt>
      <trkpt lat="48.40131" lon="2.6603">
        <ele>81.85</ele>
        <time>2017-03-19T08:23:40Z</time>
      </trkpt>
      <trkpt lat="48.40108" lon="2.66007">
        <ele>83.29</ele>
        <time>2017-03-19T08:23:46Z</time>
      </trkpt>
      <trkpt lat="48.40117" lon="2.65965">
        <ele>84.25</ele>
        <time>2017-03-19T08:23:53Z</time>
      </trkpt>
      <trkpt lat="48.40119" lon="2.65952">
        <ele>84.25</ele>
        <time>2017-03-19T08:23:55Z</time>
      </trkpt>
      <trkpt lat="48.4012" lon="2.65925">
        <ele>84.73</ele>
        <time>2017-03-19T08:23:59Z</time>
      </trkpt>
      <trkpt lat="48.4012" lon="2.65899">
        <ele>85.69</ele>
        <time>2017-03-19T08:24:03Z</time>
      </trkpt>
      <trkpt lat="48.40121" lon="2.65879">
        <ele>86.66</ele>
        <time>2017-03-19T08:24:06Z</time>
      </trkpt>
      <trkpt lat="48.40128" lon="2.65813">
        <ele>90.98</ele>
        <time>2017-03-19T08:24:16Z</time>
      </trkpt>
      <trkpt lat="48.4013" lon="2.65777">
        <ele>92.9</ele>
        <time>2017-03-19T08:24:22Z</time>
      </trkpt>
      <trkpt lat="48.40132" lon="2.65757">
        <ele>95.31</ele>
        <time>2017-03-19T08:24:25Z</time>
      </trkpt>
      <trkpt lat="48.40134" lon="2.65726">
        <ele>99.15</ele>
        <time>2017-03-19T08:24:30Z</time>
      </trkpt>
      <trkpt lat="48.40136" lon="2.65714">
        <ele>100.6</ele>
        <time>2017-03-19T08:24:32Z</time>
      </trkpt>
      <trkpt lat="48.40139" lon="2.65688">
        <ele>102.52</ele>
        <time>2017-03-19T08:24:36Z</time>
      </trkpt>
      <trkpt lat="48.40142" lon="2.65668">
        <ele>103.96</ele>
        <time>2017-03-19T08:24:39Z</time>
      </trkpt>
      <trkpt lat="48.40144" lon="2.65639">
        <ele>106.36</ele>
        <time>2017-03-19T08:24:43Z</time>
      </trkpt>
      <trkpt lat="48.40148" lon="2.6557">
        <ele>107.81</ele>
        <time>2017-03-19T08:24:53Z</time>
      </trkpt>
      <trkpt lat="48.40152" lon="2.65519">
        <ele>106.84</ele>
        <time>2017-03-19T08:25:02Z</time>
      </trkpt>
      <trkpt lat="48.40156" lon="2.6548">
        <ele>107.81</ele>
        <time>2017-03-19T08:25:09Z</time>
      </trkpt>
      <trkpt lat="48.40167" lon="2.65432">
        <ele>108.29</ele>
        <time>2017-03-19T08:25:18Z</time>
      </trkpt>
      <trkpt lat="48.40176" lon="2.65398">
        <ele>109.25</ele>
        <time>2017-03-19T08:25:25Z</time>
      </trkpt>
      <trkpt lat="48.40178" lon="2.65355">
        <ele>108.77</ele>
        <time>2017-03-19T08:25:34Z</time>
      </trkpt>
      <trkpt lat="48.40184" lon="2.65311">
        <ele>106.84</ele>
        <time>2017-03-19T08:25:44Z</time>
      </trkpt>
      <trkpt lat="48.40187" lon="2.65268">
        <ele>105.88</ele>
        <time>2017-03-19T08:25:53Z</time>
      </trkpt>
      <trkpt lat="48.40193" lon="2.65221">
        <ele>107.81</ele>
        <time>2017-03-19T08:26:04Z</time>
      </trkpt>
      <trkpt lat="48.402" lon="2.6518">
        <ele>104.92</ele>
        <time>2017-03-19T08:26:13Z</time>
      </trkpt>
      <trkpt lat="48.40206" lon="2.6514">
        <ele>102.04</ele>
        <time>2017-03-19T08:26:22Z</time>
      </trkpt>
      <trkpt lat="48.4021" lon="2.65105">
        <ele>98.19</ele>
        <time>2017-03-19T08:26:30Z</time>
      </trkpt>
      <trkpt lat="48.40216" lon="2.65066">
        <ele>96.27</ele>
        <time>2017-03-19T08:26:39Z</time>
      </trkpt>
      <trkpt lat="48.40221" lon="2.65032">
        <ele>94.35</ele>
        <time>2017-03-19T08:26:47Z</time>
      </trkpt>
      <trkpt lat="48.40226" lon="2.64994">
        <ele>92.42</ele>
        <time>2017-03-19T08:26:56Z</time>
      </trkpt>
      <trkpt lat="48.40229" lon="2.64967">
        <ele>92.42</ele>
        <time>2017-03-19T08:27:02Z</time>
      </trkpt>
      <trkpt lat="48.40231" lon="2.64946">
        <ele>92.42</ele>
        <time>2017-03-19T08:27:07Z</time>
      </trkpt>
      <trkpt lat="48.40236" lon="2.64908">
        <ele>85.21</ele>
        <time>2017-03-19T08:27:17Z</time>
      </trkpt>
      <trkpt lat="48.40237" lon="2.64904">
        <ele>84.25</ele>
        <time>2017-03-19T08:27:18Z</time>
      </trkpt>
      <trkpt lat="48.40239" lon="2.64884">
        <ele>82.81</ele>
        <time>2017-03-19T08:27:24Z</time>
      </trkpt>
      <trkpt lat="48.40243" lon="2.64858">
        <ele>78.48</ele>
        <time>2017-03-19T08:27:30Z</time>
      </trkpt>
      <trkpt lat="48.40248" lon="2.64809">
        <ele>70.79</ele>
        <time>2017-03-19T08:27:42Z</time>
      </trkpt>
      <trkpt lat="48.40252" lon="2.64797">
        <ele>70.31</ele>
        <time>2017-03-19T08:27:46Z</time>
      </trkpt>
      <trkpt lat="48.40256" lon="2.64754">
        <ele>70.31</ele>
        <time>2017-03-19T08:27:56Z</time>
      </trkpt>
      <trkpt lat="48.40261" lon="2.64718">
        <ele>73.2</ele>
        <time>2017-03-19T08:28:04Z</time>
      </trkpt>
      <trkpt lat="48.40264" lon="2.64681">
        <ele>78</ele>
        <time>2017-03-19T08:28:12Z</time>
      </trkpt>
      <trkpt lat="48.40269" lon="2.64653">
        <ele>80.89</ele>
        <time>2017-03-19T08:28:19Z</time>
      </trkpt>
      <trkpt lat="48.40274" lon="2.64618">
        <ele>79.93</ele>
        <time>2017-03-19T08:28:27Z</time>
      </trkpt>
      <trkpt lat="48.40279" lon="2.64582">
        <ele>79.93</ele>
        <time>2017-03-19T08:28:35Z</time>
      </trkpt>
      <trkpt lat="48.40281" lon="2.64562">
        <ele>79.93</ele>
        <time>2017-03-19T08:28:39Z</time>
      </trkpt>
      <trkpt lat="48.40283" lon="2.64533">
        <ele>83.29</ele>
        <time>2017-03-19T08:28:45Z</time>
      </trkpt>
      <trkpt lat="48.40293" lon="2.64501">
        <ele>84.25</ele>
        <time>2017-03-19T08:28:54Z</time>
      </trkpt>
      <trkpt lat="48.40294" lon="2.64464">
        <ele>82.81</ele>
        <time>2017-03-19T08:29:01Z</time>
      </trkpt>
      <trkpt lat="48.40298" lon="2.64449">
        <ele>82.81</ele>
        <time>2017-03-19T08:29:05Z</time>
      </trkpt>
      <trkpt lat="48.40302" lon="2.64406">
        <ele>81.37</ele>
        <time>2017-03-19T08:29:14Z</time>
      </trkpt>
      <trkpt lat="48.40305" lon="2.64357">
        <ele>85.69</ele>
        <time>2017-03-19T08:29:24Z</time>
      </trkpt>
      <trkpt lat="48.40308" lon="2.64336">
        <ele>90.98</ele>
        <time>2017-03-19T08:29:28Z</time>
      </trkpt>
      <trkpt lat="48.40314" lon="2.64312">
        <ele>96.27</ele>
        <time>2017-03-19T08:29:33Z</time>
      </trkpt>
      <trkpt lat="48.40317" lon="2.64288">
        <ele>100.11</ele>
        <time>2017-03-19T08:29:38Z</time>
      </trkpt>
      <trkpt lat="48.40323" lon="2.64247">
        <ele>104.92</ele>
        <time>2017-03-19T08:29:48Z</time>
      </trkpt>
      <trkpt lat="48.40324" lon="2.64232">
        <ele>106.84</ele>
        <time>2017-03-19T08:29:53Z</time>
      </trkpt>
      <trkpt lat="48.4033" lon="2.64212">
        <ele>105.88</ele>
        <time>2017-03-19T08:30:00Z</time>
      </trkpt>
      <trkpt lat="48.40334" lon="2.64194">
        <ele>106.84</ele>
        <time>2017-03-19T08:30:06Z</time>
      </trkpt>
      <trkpt lat="48.40341" lon="2.6417">
        <ele>105.4</ele>
        <time>2017-03-19T08:30:16Z</time>
      </trkpt>
      <trkpt lat="48.40343" lon="2.6413">
        <ele>112.61</ele>
        <time>2017-03-19T08:30:26Z</time>
      </trkpt>
      <trkpt lat="48.40347" lon="2.64114">
        <ele>116.94</ele>
        <time>2017-03-19T08:30:31Z</time>
      </trkpt>
      <trkpt lat="48.40352" lon="2.64102">
        <ele>118.86</ele>
        <time>2017-03-19T08:30:35Z</time>
      </trkpt>
      <trkpt lat="48.40353" lon="2.64087">
        <ele>120.3</ele>
        <time>2017-03-19T08:30:40Z</time>
      </trkpt>
      <trkpt lat="48.40356" lon="2.6407">
        <ele>121.26</ele>
        <time>2017-03-19T08:30:47Z</time>
      </trkpt>
      <trkpt lat="48.40357" lon="2.6406">
        <ele>121.74</ele>
        <time>2017-03-19T08:30:51Z</time>
      </trkpt>
      <trkpt lat="48.4036" lon="2.64041">
        <ele>121.74</ele>
        <time>2017-03-19T08:31:00Z</time>
      </trkpt>
      <trkpt lat="48.40367" lon="2.64025">
        <ele>118.86</ele>
        <time>2017-03-19T08:31:10Z</time>
      </trkpt>
      <trkpt lat="48.40372" lon="2.64007">
        <ele>115.98</ele>
        <time>2017-03-19T08:31:18Z</time>
      </trkpt>
      <trkpt lat="48.40375" lon="2.63986">
        <ele>115.98</ele>
        <time>2017-03-19T08:31:26Z</time>
      </trkpt>
      <trkpt lat="48.40377" lon="2.63978">
        <ele>116.46</ele>
        <time>2017-03-19T08:31:29Z</time>
      </trkpt>
      <trkpt lat="48.40384" lon="2.63961">
        <ele>116.94</ele>
        <time>2017-03-19T08:31:39Z</time>
      </trkpt>
      <trkpt lat="48.40386" lon="2.63954">
        <ele>116.46</ele>
        <time>2017-03-19T08:31:43Z</time>
      </trkpt>
      <trkpt lat="48.40391" lon="2.63941">
        <ele>115.98</ele>
        <time>2017-03-19T08:31:50Z</time>
      </trkpt>
      <trkpt lat="48.40396" lon="2.63926">
        <ele>115.01</ele>
        <time>2017-03-19T08:31:58Z</time>
      </trkpt>
      <trkpt lat="48.40402" lon="2.63906">
        <ele>114.53</ele>
        <time>2017-03-19T08:32:05Z</time>
      </trkpt>
      <trkpt lat="48.40403" lon="2.63899">
        <ele>115.01</ele>
        <time>2017-03-19T08:32:07Z</time>
      </trkpt>
      <trkpt lat="48.40411" lon="2.63869">
        <ele>116.94</ele>
        <time>2017-03-19T08:32:16Z</time>
      </trkpt>
      <trkpt lat="48.40415" lon="2.63836">
        <ele>126.07</ele>
        <time>2017-03-19T08:32:26Z</time>
      </trkpt>
      <trkpt lat="48.40421" lon="2.63804">
        <ele>130.88</ele>
        <time>2017-03-19T08:32:36Z</time>
      </trkpt>
      <trkpt lat="48.40425" lon="2.6377">
        <ele>131.84</ele>
        <time>2017-03-19T08:32:45Z</time>
      </trkpt>
      <trkpt lat="48.40431" lon="2.63739">
        <ele>130.88</ele>
        <time>2017-03-19T08:32:52Z</time>
      </trkpt>
      <trkpt lat="48.40437" lon="2.63697">
        <ele>127.99</ele>
        <time>2017-03-19T08:33:00Z</time>
      </trkpt>
      <trkpt lat="48.40438" lon="2.63692">
        <ele>127.99</ele>
        <time>2017-03-19T08:33:01Z</time>
      </trkpt>
      <trkpt lat="48.40439" lon="2.63668">
        <ele>127.51</ele>
        <time>2017-03-19T08:33:05Z</time>
      </trkpt>
      <trkpt lat="48.4045" lon="2.63612">
        <ele>128.95</ele>
        <time>2017-03-19T08:33:15Z</time>
      </trkpt>
      <trkpt lat="48.40455" lon="2.6357">
        <ele>128.47</ele>
        <time>2017-03-19T08:33:23Z</time>
      </trkpt>
      <trkpt lat="48.40461" lon="2.63515">
        <ele>128.47</ele>
        <time>2017-03-19T08:33:32Z</time>
      </trkpt>
      <trkpt lat="48.40464" lon="2.63498">
        <ele>128.47</ele>
        <time>2017-03-19T08:33:35Z</time>
      </trkpt>
      <trkpt lat="48.40472" lon="2.63428">
        <ele>128.47</ele>
        <time>2017-03-19T08:33:46Z</time>
      </trkpt>
      <trkpt lat="48.40473" lon="2.63415">
        <ele>128.47</ele>
        <time>2017-03-19T08:33:48Z</time>
      </trkpt>
      <trkpt lat="48.40476" lon="2.6339">
        <ele>128.47</ele>
        <time>2017-03-19T08:33:52Z</time>
      </trkpt>
      <trkpt lat="48.40485" lon="2.63329">
        <ele>126.07</ele>
        <time>2017-03-19T08:34:02Z</time>
      </trkpt>
      <trkpt lat="48.40496" lon="2.63256">
        <ele>125.59</ele>
        <time>2017-03-19T08:34:14Z</time>
      </trkpt>
      <trkpt lat="48.40488" lon="2.63223">
        <ele>125.11</ele>
        <time>2017-03-19T08:34:20Z</time>
      </trkpt>
      <trkpt lat="48.40466" lon="2.6319">
        <ele>130.4</ele>
        <time>2017-03-19T08:34:28Z</time>
      </trkpt>
      <trkpt lat="48.40462" lon="2.63147">
        <ele>132.32</ele>
        <time>2017-03-19T08:34:35Z</time>
      </trkpt>
      <trkpt lat="48.40454" lon="2.63089">
        <ele>133.28</ele>
        <time>2017-03-19T08:34:43Z</time>
      </trkpt>
      <trkpt lat="48.40452" lon="2.6306">
        <ele>132.32</ele>
        <time>2017-03-19T08:34:47Z</time>
      </trkpt>
      <trkpt lat="48.40451" lon="2.63048">
        <ele>131.36</ele>
        <time>2017-03-19T08:34:49Z</time>
      </trkpt>
      <trkpt lat="48.40439" lon="2.63024">
        <ele>129.92</ele>
        <time>2017-03-19T08:34:54Z</time>
      </trkpt>
      <trkpt lat="48.4041" lon="2.62982">
        <ele>130.4</ele>
        <time>2017-03-19T08:35:04Z</time>
      </trkpt>
      <trkpt lat="48.40404" lon="2.62975">
        <ele>130.4</ele>
        <time>2017-03-19T08:35:06Z</time>
      </trkpt>
      <trkpt lat="48.40362" lon="2.62943">
        <ele>132.8</ele>
        <time>2017-03-19T08:35:17Z</time>
      </trkpt>
      <trkpt lat="48.40354" lon="2.62939">
        <ele>132.32</ele>
        <time>2017-03-19T08:35:19Z</time>
      </trkpt>
      <trkpt lat="48.40329" lon="2.62919">
        <ele>131.84</ele>
        <time>2017-03-19T08:35:26Z</time>
      </trkpt>
      <trkpt lat="48.40311" lon="2.62899">
        <ele>131.36</ele>
        <time>2017-03-19T08:35:32Z</time>
      </trkpt>
      <trkpt lat="48.40287" lon="2.62891">
        <ele>129.43</ele>
        <time>2017-03-19T08:35:39Z</time>
      </trkpt>
      <trkpt lat="48.4028" lon="2.6288">
        <ele>128.47</ele>
        <time>2017-03-19T08:35:42Z</time>
      </trkpt>
      <trkpt lat="48.40277" lon="2.62864">
        <ele>127.99</ele>
        <time>2017-03-19T08:35:45Z</time>
      </trkpt>
      <trkpt lat="48.40268" lon="2.6282">
        <ele>128.47</ele>
        <time>2017-03-19T08:35:52Z</time>
      </trkpt>
      <trkpt lat="48.40261" lon="2.62786">
        <ele>130.4</ele>
        <time>2017-03-19T08:35:57Z</time>
      </trkpt>
      <trkpt lat="48.40246" lon="2.62721">
        <ele>136.16</ele>
        <time>2017-03-19T08:36:07Z</time>
      </trkpt>
      <trkpt lat="48.40238" lon="2.6268">
        <ele>136.16</ele>
        <time>2017-03-19T08:36:13Z</time>
      </trkpt>
      <trkpt lat="48.40227" lon="2.62634">
        <ele>138.09</ele>
        <time>2017-03-19T08:36:20Z</time>
      </trkpt>
      <trkpt lat="48.4022" lon="2.62593">
        <ele>142.89</ele>
        <time>2017-03-19T08:36:27Z</time>
      </trkpt>
      <trkpt lat="48.40217" lon="2.62581">
        <ele>143.85</ele>
        <time>2017-03-19T08:36:29Z</time>
      </trkpt>
      <trkpt lat="48.40214" lon="2.62557">
        <ele>145.3</ele>
        <time>2017-03-19T08:36:33Z</time>
      </trkpt>
      <trkpt lat="48.40208" lon="2.62528">
        <ele>144.82</ele>
        <time>2017-03-19T08:36:37Z</time>
      </trkpt>
      <trkpt lat="48.40193" lon="2.62479">
        <ele>140.49</ele>
        <time>2017-03-19T08:36:45Z</time>
      </trkpt>
      <trkpt lat="48.40182" lon="2.62482">
        <ele>139.05</ele>
        <time>2017-03-19T08:36:48Z</time>
      </trkpt>
      <trkpt lat="48.40167" lon="2.62488">
        <ele>136.64</ele>
        <time>2017-03-19T08:36:52Z</time>
      </trkpt>
      <trkpt lat="48.40128" lon="2.62504">
        <ele>132.8</ele>
        <time>2017-03-19T08:37:01Z</time>
      </trkpt>
      <trkpt lat="48.40093" lon="2.62517">
        <ele>130.88</ele>
        <time>2017-03-19T08:37:09Z</time>
      </trkpt>
      <trkpt lat="48.4007" lon="2.62526">
        <ele>130.4</ele>
        <time>2017-03-19T08:37:14Z</time>
      </trkpt>
      <trkpt lat="48.4006" lon="2.6253">
        <ele>129.43</ele>
        <time>2017-03-19T08:37:16Z</time>
      </trkpt>
      <trkpt lat="48.40051" lon="2.62518">
        <ele>127.51</ele>
        <time>2017-03-19T08:37:21Z</time>
      </trkpt>
      <trkpt lat="48.40056" lon="2.625">
        <ele>127.03</ele>
        <time>2017-03-19T08:37:24Z</time>
      </trkpt>
      <trkpt lat="48.40071" lon="2.62462">
        <ele>128.47</ele>
        <time>2017-03-19T08:37:30Z</time>
      </trkpt>
      <trkpt lat="48.4008" lon="2.62436">
        <ele>129.92</ele>
        <time>2017-03-19T08:37:34Z</time>
      </trkpt>
      <trkpt lat="48.40092" lon="2.62412">
        <ele>129.92</ele>
        <time>2017-03-19T08:37:39Z</time>
      </trkpt>
      <trkpt lat="48.4011" lon="2.6235">
        <ele>131.36</ele>
        <time>2017-03-19T08:37:49Z</time>
      </trkpt>
      <trkpt lat="48.40116" lon="2.62332">
        <ele>132.32</ele>
        <time>2017-03-19T08:37:52Z</time>
      </trkpt>
      <trkpt lat="48.40123" lon="2.62308">
        <ele>132.8</ele>
        <time>2017-03-19T08:37:56Z</time>
      </trkpt>
      <trkpt lat="48.40132" lon="2.62282">
        <ele>133.28</ele>
        <time>2017-03-19T08:38:00Z</time>
      </trkpt>
      <trkpt lat="48.40142" lon="2.62251">
        <ele>134.72</ele>
        <time>2017-03-19T08:38:05Z</time>
      </trkpt>
      <trkpt lat="48.40139" lon="2.62219">
        <ele>130.4</ele>
        <time>2017-03-19T08:38:11Z</time>
      </trkpt>
      <trkpt lat="48.40083" lon="2.62175">
        <ele>123.19</ele>
        <time>2017-03-19T08:38:23Z</time>
      </trkpt>
      <trkpt lat="48.40056" lon="2.6215">
        <ele>123.19</ele>
        <time>2017-03-19T08:38:31Z</time>
      </trkpt>
      <trkpt lat="48.40049" lon="2.62142">
        <ele>123.19</ele>
        <time>2017-03-19T08:38:34Z</time>
      </trkpt>
      <trkpt lat="48.40026" lon="2.62135">
        <ele>123.19</ele>
        <time>2017-03-19T08:38:42Z</time>
      </trkpt>
      <trkpt lat="48.40005" lon="2.62126">
        <ele>122.71</ele>
        <time>2017-03-19T08:38:48Z</time>
      </trkpt>
      <trkpt lat="48.39975" lon="2.621">
        <ele>122.71</ele>
        <time>2017-03-19T08:38:56Z</time>
      </trkpt>
      <trkpt lat="48.39946" lon="2.6208">
        <ele>124.63</ele>
        <time>2017-03-19T08:39:03Z</time>
      </trkpt>
      <trkpt lat="48.39934" lon="2.62065">
        <ele>125.11</ele>
        <time>2017-03-19T08:39:06Z</time>
      </trkpt>
      <trkpt lat="48.39897" lon="2.62031">
        <ele>123.67</ele>
        <time>2017-03-19T08:39:14Z</time>
      </trkpt>
      <trkpt lat="48.39857" lon="2.61999">
        <ele>124.15</ele>
        <time>2017-03-19T08:39:24Z</time>
      </trkpt>
      <trkpt lat="48.3985" lon="2.61992">
        <ele>124.15</ele>
        <time>2017-03-19T08:39:26Z</time>
      </trkpt>
      <trkpt lat="48.3981" lon="2.61964">
        <ele>125.59</ele>
        <time>2017-03-19T08:39:37Z</time>
      </trkpt>
      <trkpt lat="48.39797" lon="2.61955">
        <ele>125.59</ele>
        <time>2017-03-19T08:39:41Z</time>
      </trkpt>
      <trkpt lat="48.39774" lon="2.61934">
        <ele>127.03</ele>
        <time>2017-03-19T08:39:49Z</time>
      </trkpt>
      <trkpt lat="48.39761" lon="2.61921">
        <ele>128.47</ele>
        <time>2017-03-19T08:39:53Z</time>
      </trkpt>
      <trkpt lat="48.39748" lon="2.61912">
        <ele>129.92</ele>
        <time>2017-03-19T08:39:56Z</time>
      </trkpt>
      <trkpt lat="48.39722" lon="2.61893">
        <ele>129.92</ele>
        <time>2017-03-19T08:40:02Z</time>
      </trkpt>
      <trkpt lat="48.39681" lon="2.61865">
        <ele>130.4</ele>
        <time>2017-03-19T08:40:13Z</time>
      </trkpt>
      <trkpt lat="48.39654" lon="2.61843">
        <ele>130.4</ele>
        <time>2017-03-19T08:40:20Z</time>
      </trkpt>
      <trkpt lat="48.39634" lon="2.61829">
        <ele>130.4</ele>
        <time>2017-03-19T08:40:25Z</time>
      </trkpt>
      <trkpt lat="48.39639" lon="2.61793">
        <ele>129.43</ele>
        <time>2017-03-19T08:40:32Z</time>
      </trkpt>
      <trkpt lat="48.39651" lon="2.61757">
        <ele>127.99</ele>
        <time>2017-03-19T08:40:38Z</time>
      </trkpt>
      <trkpt lat="48.39659" lon="2.61732">
        <ele>126.55</ele>
        <time>2017-03-19T08:40:42Z</time>
      </trkpt>
      <trkpt lat="48.39673" lon="2.61675">
        <ele>125.11</ele>
        <time>2017-03-19T08:40:51Z</time>
      </trkpt>
      <trkpt lat="48.39677" lon="2.61658">
        <ele>124.15</ele>
        <time>2017-03-19T08:40:54Z</time>
      </trkpt>
      <trkpt lat="48.39695" lon="2.61594">
        <ele>122.22</ele>
        <time>2017-03-19T08:41:05Z</time>
      </trkpt>
      <trkpt lat="48.39696" lon="2.61589">
        <ele>122.22</ele>
        <time>2017-03-19T08:41:06Z</time>
      </trkpt>
      <trkpt lat="48.39703" lon="2.61558">
        <ele>123.19</ele>
        <time>2017-03-19T08:41:11Z</time>
      </trkpt>
      <trkpt lat="48.39717" lon="2.61499">
        <ele>127.99</ele>
        <time>2017-03-19T08:41:21Z</time>
      </trkpt>
      <trkpt lat="48.39723" lon="2.61473">
        <ele>128.47</ele>
        <time>2017-03-19T08:41:25Z</time>
      </trkpt>
      <trkpt lat="48.3973" lon="2.61436">
        <ele>130.88</ele>
        <time>2017-03-19T08:41:31Z</time>
      </trkpt>
      <trkpt lat="48.39755" lon="2.61409">
        <ele>129.92</ele>
        <time>2017-03-19T08:41:39Z</time>
      </trkpt>
      <trkpt lat="48.39801" lon="2.61416">
        <ele>126.55</ele>
        <time>2017-03-19T08:41:48Z</time>
      </trkpt>
      <trkpt lat="48.3981" lon="2.61418">
        <ele>126.07</ele>
        <time>2017-03-19T08:41:50Z</time>
      </trkpt>
      <trkpt lat="48.39851" lon="2.61423">
        <ele>123.67</ele>
        <time>2017-03-19T08:41:58Z</time>
      </trkpt>
      <trkpt lat="48.39898" lon="2.61431">
        <ele>121.26</ele>
        <time>2017-03-19T08:42:07Z</time>
      </trkpt>
      <trkpt lat="48.3992" lon="2.61436">
        <ele>119.82</ele>
        <time>2017-03-19T08:42:11Z</time>
      </trkpt>
      <trkpt lat="48.39963" lon="2.61442">
        <ele>116.94</ele>
        <time>2017-03-19T08:42:19Z</time>
      </trkpt>
      <trkpt lat="48.3999" lon="2.61448">
        <ele>115.5</ele>
        <time>2017-03-19T08:42:24Z</time>
      </trkpt>
      <trkpt lat="48.40021" lon="2.61438">
        <ele>112.13</ele>
        <time>2017-03-19T08:42:29Z</time>
      </trkpt>
      <trkpt lat="48.40047" lon="2.61435">
        <ele>111.17</ele>
        <time>2017-03-19T08:42:35Z</time>
      </trkpt>
      <trkpt lat="48.40069" lon="2.61429">
        <ele>112.61</ele>
        <time>2017-03-19T08:42:44Z</time>
      </trkpt>
      <trkpt lat="48.40086" lon="2.61408">
        <ele>111.65</ele>
        <time>2017-03-19T08:42:52Z</time>
      </trkpt>
      <trkpt lat="48.40106" lon="2.614">
        <ele>113.57</ele>
        <time>2017-03-19T08:42:59Z</time>
      </trkpt>
      <trkpt lat="48.40131" lon="2.61389">
        <ele>111.65</ele>
        <time>2017-03-19T08:43:06Z</time>
      </trkpt>
      <trkpt lat="48.40143" lon="2.61388">
        <ele>110.69</ele>
        <time>2017-03-19T08:43:08Z</time>
      </trkpt>
      <trkpt lat="48.40194" lon="2.61385">
        <ele>106.84</ele>
        <time>2017-03-19T08:43:15Z</time>
      </trkpt>
      <trkpt lat="48.40234" lon="2.61372">
        <ele>105.4</ele>
        <time>2017-03-19T08:43:21Z</time>
      </trkpt>
      <trkpt lat="48.40245" lon="2.61367">
        <ele>105.4</ele>
        <time>2017-03-19T08:43:23Z</time>
      </trkpt>
      <trkpt lat="48.40267" lon="2.61364">
        <ele>104.92</ele>
        <time>2017-03-19T08:43:28Z</time>
      </trkpt>
      <trkpt lat="48.40283" lon="2.61384">
        <ele>112.61</ele>
        <time>2017-03-19T08:43:37Z</time>
      </trkpt>
      <trkpt lat="48.4029" lon="2.61386">
        <ele>114.05</ele>
        <time>2017-03-19T08:43:40Z</time>
      </trkpt>
      <trkpt lat="48.40317" lon="2.61394">
        <ele>117.42</ele>
        <time>2017-03-19T08:43:50Z</time>
      </trkpt>
      <trkpt lat="48.4034" lon="2.614">
        <ele>119.82</ele>
        <time>2017-03-19T08:43:59Z</time>
      </trkpt>
      <trkpt lat="48.40364" lon="2.61405">
        <ele>122.71</ele>
        <time>2017-03-19T08:44:07Z</time>
      </trkpt>
      <trkpt lat="48.40389" lon="2.61409">
        <ele>122.22</ele>
        <time>2017-03-19T08:44:15Z</time>
      </trkpt>
      <trkpt lat="48.40392" lon="2.6141">
        <ele>122.22</ele>
        <time>2017-03-19T08:44:16Z</time>
      </trkpt>
      <trkpt lat="48.40427" lon="2.61418">
        <ele>120.3</ele>
        <time>2017-03-19T08:44:26Z</time>
      </trkpt>
      <trkpt lat="48.40463" lon="2.61434">
        <ele>122.22</ele>
        <time>2017-03-19T08:44:36Z</time>
      </trkpt>
      <trkpt lat="48.40471" lon="2.61439">
        <ele>122.22</ele>
        <time>2017-03-19T08:44:38Z</time>
      </trkpt>
      <trkpt lat="48.40513" lon="2.61458">
        <ele>121.74</ele>
        <time>2017-03-19T08:44:47Z</time>
      </trkpt>
      <trkpt lat="48.40533" lon="2.61468">
        <ele>121.26</ele>
        <time>2017-03-19T08:44:51Z</time>
      </trkpt>
      <trkpt lat="48.40569" lon="2.61488">
        <ele>119.82</ele>
        <time>2017-03-19T08:44:58Z</time>
      </trkpt>
      <trkpt lat="48.40602" lon="2.61494">
        <ele>118.38</ele>
        <time>2017-03-19T08:45:03Z</time>
      </trkpt>
      <trkpt lat="48.40654" lon="2.61491">
        <ele>114.05</ele>
        <time>2017-03-19T08:45:09Z</time>
      </trkpt>
      <trkpt lat="48.40682" lon="2.61475">
        <ele>110.69</ele>
        <time>2017-03-19T08:45:12Z</time>
      </trkpt>
      <trkpt lat="48.40708" lon="2.61432">
        <ele>106.84</ele>
        <time>2017-03-19T08:45:16Z</time>
      </trkpt>
      <trkpt lat="48.40723" lon="2.61381">
        <ele>103.96</ele>
        <time>2017-03-19T08:45:20Z</time>
      </trkpt>
      <trkpt lat="48.40745" lon="2.61283">
        <ele>96.27</ele>
        <time>2017-03-19T08:45:28Z</time>
      </trkpt>
      <trkpt lat="48.4076" lon="2.61167">
        <ele>86.18</ele>
        <time>2017-03-19T08:45:38Z</time>
      </trkpt>
      <trkpt lat="48.40762" lon="2.61108">
        <ele>81.85</ele>
        <time>2017-03-19T08:45:43Z</time>
      </trkpt>
      <trkpt lat="48.40764" lon="2.61085">
        <ele>80.41</ele>
        <time>2017-03-19T08:45:45Z</time>
      </trkpt>
      <trkpt lat="48.40766" lon="2.61013">
        <ele>77.52</ele>
        <time>2017-03-19T08:45:51Z</time>
      </trkpt>
      <trkpt lat="48.4077" lon="2.60979">
        <ele>78</ele>
        <time>2017-03-19T08:45:54Z</time>
      </trkpt>
      <trkpt lat="48.40772" lon="2.6093">
        <ele>78.97</ele>
        <time>2017-03-19T08:45:58Z</time>
      </trkpt>
      <trkpt lat="48.40775" lon="2.60897">
        <ele>79.93</ele>
        <time>2017-03-19T08:46:01Z</time>
      </trkpt>
      <trkpt lat="48.40791" lon="2.60851">
        <ele>82.33</ele>
        <time>2017-03-19T08:46:06Z</time>
      </trkpt>
      <trkpt lat="48.4082" lon="2.60816">
        <ele>84.73</ele>
        <time>2017-03-19T08:46:11Z</time>
      </trkpt>
      <trkpt lat="48.40834" lon="2.60807">
        <ele>85.21</ele>
        <time>2017-03-19T08:46:13Z</time>
      </trkpt>
      <trkpt lat="48.40907" lon="2.6079">
        <ele>85.21</ele>
        <time>2017-03-19T08:46:21Z</time>
      </trkpt>
      <trkpt lat="48.40936" lon="2.60783">
        <ele>84.25</ele>
        <time>2017-03-19T08:46:24Z</time>
      </trkpt>
      <trkpt lat="48.40957" lon="2.60783">
        <ele>84.25</ele>
        <time>2017-03-19T08:46:26Z</time>
      </trkpt>
      <trkpt lat="48.41019" lon="2.60809">
        <ele>82.81</ele>
        <time>2017-03-19T08:46:33Z</time>
      </trkpt>
      <trkpt lat="48.41044" lon="2.6081">
        <ele>82.33</ele>
        <time>2017-03-19T08:46:36Z</time>
      </trkpt>
      <trkpt lat="48.41075" lon="2.60825">
        <ele>80.89</ele>
        <time>2017-03-19T08:46:40Z</time>
      </trkpt>
      <trkpt lat="48.41087" lon="2.60841">
        <ele>79.93</ele>
        <time>2017-03-19T08:46:42Z</time>
      </trkpt>
      <trkpt lat="48.41105" lon="2.60882">
        <ele>79.45</ele>
        <time>2017-03-19T08:46:46Z</time>
      </trkpt>
      <trkpt lat="48.4111" lon="2.60926">
        <ele>78.48</ele>
        <time>2017-03-19T08:46:50Z</time>
      </trkpt>
      <trkpt lat="48.41131" lon="2.60948">
        <ele>78</ele>
        <time>2017-03-19T08:46:54Z</time>
      </trkpt>
      <trkpt lat="48.41143" lon="2.60942">
        <ele>78</ele>
        <time>2017-03-19T08:46:56Z</time>
      </trkpt>
      <trkpt lat="48.41203" lon="2.6092">
        <ele>77.04</ele>
        <time>2017-03-19T08:47:06Z</time>
      </trkpt>
      <trkpt lat="48.41258" lon="2.60898">
        <ele>74.16</ele>
        <time>2017-03-19T08:47:15Z</time>
      </trkpt>
      <trkpt lat="48.41275" lon="2.60891">
        <ele>74.64</ele>
        <time>2017-03-19T08:47:18Z</time>
      </trkpt>
      <trkpt lat="48.4129" lon="2.60884">
        <ele>75.12</ele>
        <time>2017-03-19T08:47:21Z</time>
      </trkpt>
      <trkpt lat="48.41301" lon="2.60881">
        <ele>75.12</ele>
        <time>2017-03-19T08:47:23Z</time>
      </trkpt>
      <trkpt lat="48.41342" lon="2.60864">
        <ele>73.2</ele>
        <time>2017-03-19T08:47:31Z</time>
      </trkpt>
      <trkpt lat="48.41369" lon="2.60856">
        <ele>74.16</ele>
        <time>2017-03-19T08:47:36Z</time>
      </trkpt>
      <trkpt lat="48.41398" lon="2.60848">
        <ele>74.16</ele>
        <time>2017-03-19T08:47:42Z</time>
      </trkpt>
      <trkpt lat="48.41415" lon="2.60842">
        <ele>73.68</ele>
        <time>2017-03-19T08:47:46Z</time>
      </trkpt>
      <trkpt lat="48.41432" lon="2.60836">
        <ele>73.2</ele>
        <time>2017-03-19T08:47:50Z</time>
      </trkpt>
      <trkpt lat="48.41478" lon="2.60819">
        <ele>73.68</ele>
        <time>2017-03-19T08:48:00Z</time>
      </trkpt>
      <trkpt lat="48.41503" lon="2.60808">
        <ele>74.64</ele>
        <time>2017-03-19T08:48:06Z</time>
      </trkpt>
      <trkpt lat="48.41521" lon="2.60804">
        <ele>75.6</ele>
        <time>2017-03-19T08:48:10Z</time>
      </trkpt>
      <trkpt lat="48.41564" lon="2.60787">
        <ele>72.72</ele>
        <time>2017-03-19T08:48:20Z</time>
      </trkpt>
      <trkpt lat="48.41569" lon="2.60786">
        <ele>72.24</ele>
        <time>2017-03-19T08:48:21Z</time>
      </trkpt>
      <trkpt lat="48.41606" lon="2.60772">
        <ele>71.76</ele>
        <time>2017-03-19T08:48:31Z</time>
      </trkpt>
      <trkpt lat="48.41618" lon="2.60768">
        <ele>71.27</ele>
        <time>2017-03-19T08:48:38Z</time>
      </trkpt>
      <trkpt lat="48.41623" lon="2.60769">
        <ele>72.24</ele>
        <time>2017-03-19T08:48:46Z</time>
      </trkpt>
      <trkpt lat="48.41625" lon="2.60771">
        <ele>75.12</ele>
        <time>2017-03-19T08:48:58Z</time>
      </trkpt>
      <trkpt lat="48.41625" lon="2.60771">
        <ele>75.6</ele>
        <time>2017-03-19T08:49:09Z</time>
      </trkpt>
      <trkpt lat="48.41625" lon="2.60774">
        <ele>76.56</ele>
        <time>2017-03-19T08:49:17Z</time>
      </trkpt>
      <trkpt lat="48.41625" lon="2.60775">
        <ele>80.41</ele>
        <time>2017-03-19T08:49:36Z</time>
      </trkpt>
      <trkpt lat="48.41624" lon="2.60776">
        <ele>82.33</ele>
        <time>2017-03-19T08:49:56Z</time>
      </trkpt>
      <trkpt lat="48.41623" lon="2.60778">
        <ele>82.33</ele>
        <time>2017-03-19T08:50:11Z</time>
      </trkpt>
      <trkpt lat="48.41623" lon="2.60776">
        <ele>82.81</ele>
        <time>2017-03-19T08:50:25Z</time>
      </trkpt>
      <trkpt lat="48.41626" lon="2.6077">
        <ele>82.33</ele>
        <time>2017-03-19T08:50:37Z</time>
      </trkpt>
      <trkpt lat="48.41628" lon="2.6077">
        <ele>82.81</ele>
        <time>2017-03-19T08:50:50Z</time>
      </trkpt>
      <trkpt lat="48.41626" lon="2.6077">
        <ele>83.77</ele>
        <time>2017-03-19T08:51:07Z</time>
      </trkpt>
      <trkpt lat="48.41626" lon="2.60772">
        <ele>84.25</ele>
        <time>2017-03-19T08:51:20Z</time>
      </trkpt>
      <trkpt lat="48.41627" lon="2.60772">
        <ele>85.69</ele>
        <time>2017-03-19T08:51:32Z</time>
      </trkpt>
      <trkpt lat="48.4162" lon="2.6077">
        <ele>84.73</ele>
        <time>2017-03-19T08:51:39Z</time>
      </trkpt>
      <trkpt lat="48.41613" lon="2.60782">
        <ele>84.25</ele>
        <time>2017-03-19T08:51:49Z</time>
      </trkpt>
      <trkpt lat="48.41613" lon="2.60781">
        <ele>85.69</ele>
        <time>2017-03-19T08:52:05Z</time>
      </trkpt>
      <trkpt lat="48.41618" lon="2.60782">
        <ele>85.69</ele>
        <time>2017-03-19T08:52:29Z</time>
      </trkpt>
      <trkpt lat="48.41619" lon="2.60779">
        <ele>85.69</ele>
        <time>2017-03-19T08:52:46Z</time>
      </trkpt>
      <trkpt lat="48.41619" lon="2.60779">
        <ele>84.73</ele>
        <time>2017-03-19T08:52:55Z</time>
      </trkpt>
      <trkpt lat="48.41619" lon="2.60779">
        <ele>84.25</ele>
        <time>2017-03-19T08:53:07Z</time>
      </trkpt>
      <trkpt lat="48.41615" lon="2.60784">
        <ele>83.77</ele>
        <time>2017-03-19T08:53:13Z</time>
      </trkpt>
      <trkpt lat="48.41607" lon="2.60798">
        <ele>85.69</ele>
        <time>2017-03-19T08:53:21Z</time>
      </trkpt>
      <trkpt lat="48.41606" lon="2.608">
        <ele>86.18</ele>
        <time>2017-03-19T08:53:22Z</time>
      </trkpt>
      <trkpt lat="48.41598" lon="2.60812">
        <ele>88.1</ele>
        <time>2017-03-19T08:53:31Z</time>
      </trkpt>
      <trkpt lat="48.41592" lon="2.60824">
        <ele>85.21</ele>
        <time>2017-03-19T08:53:38Z</time>
      </trkpt>
      <trkpt lat="48.41588" lon="2.60833">
        <ele>83.77</ele>
        <time>2017-03-19T08:53:41Z</time>
      </trkpt>
      <trkpt lat="48.41574" lon="2.60854">
        <ele>78.48</ele>
        <time>2017-03-19T08:53:51Z</time>
      </trkpt>
      <trkpt lat="48.4157" lon="2.60864">
        <ele>79.45</ele>
        <time>2017-03-19T08:53:57Z</time>
      </trkpt>
      <trkpt lat="48.41558" lon="2.60896">
        <ele>83.29</ele>
        <time>2017-03-19T08:54:07Z</time>
      </trkpt>
      <trkpt lat="48.41552" lon="2.60912">
        <ele>84.73</ele>
        <time>2017-03-19T08:54:14Z</time>
      </trkpt>
      <trkpt lat="48.41545" lon="2.60927">
        <ele>86.66</ele>
        <time>2017-03-19T08:54:20Z</time>
      </trkpt>
      <trkpt lat="48.4154" lon="2.60938">
        <ele>87.62</ele>
        <time>2017-03-19T08:54:25Z</time>
      </trkpt>
      <trkpt lat="48.41537" lon="2.6095">
        <ele>88.58</ele>
        <time>2017-03-19T08:54:31Z</time>
      </trkpt>
      <trkpt lat="48.41527" lon="2.60968">
        <ele>90.02</ele>
        <time>2017-03-19T08:54:40Z</time>
      </trkpt>
      <trkpt lat="48.41516" lon="2.60992">
        <ele>91.46</ele>
        <time>2017-03-19T08:54:50Z</time>
      </trkpt>
      <trkpt lat="48.41509" lon="2.61006">
        <ele>92.9</ele>
        <time>2017-03-19T08:54:57Z</time>
      </trkpt>
      <trkpt lat="48.41508" lon="2.61009">
        <ele>92.42</ele>
        <time>2017-03-19T08:55:00Z</time>
      </trkpt>
      <trkpt lat="48.41503" lon="2.61022">
        <ele>93.39</ele>
        <time>2017-03-19T08:55:05Z</time>
      </trkpt>
      <trkpt lat="48.415" lon="2.61029">
        <ele>92.9</ele>
        <time>2017-03-19T08:55:08Z</time>
      </trkpt>
      <trkpt lat="48.41495" lon="2.6104">
        <ele>94.35</ele>
        <time>2017-03-19T08:55:13Z</time>
      </trkpt>
      <trkpt lat="48.41491" lon="2.6105">
        <ele>94.83</ele>
        <time>2017-03-19T08:55:18Z</time>
      </trkpt>
      <trkpt lat="48.41483" lon="2.61069">
        <ele>97.23</ele>
        <time>2017-03-19T08:55:26Z</time>
      </trkpt>
      <trkpt lat="48.41473" lon="2.61093">
        <ele>96.27</ele>
        <time>2017-03-19T08:55:35Z</time>
      </trkpt>
      <trkpt lat="48.41468" lon="2.61103">
        <ele>96.27</ele>
        <time>2017-03-19T08:55:38Z</time>
      </trkpt>
      <trkpt lat="48.41465" lon="2.61111">
        <ele>96.75</ele>
        <time>2017-03-19T08:55:41Z</time>
      </trkpt>
      <trkpt lat="48.4146" lon="2.61124">
        <ele>97.23</ele>
        <time>2017-03-19T08:55:46Z</time>
      </trkpt>
      <trkpt lat="48.41447" lon="2.61157">
        <ele>95.79</ele>
        <time>2017-03-19T08:55:57Z</time>
      </trkpt>
      <trkpt lat="48.41445" lon="2.61164">
        <ele>95.31</ele>
        <time>2017-03-19T08:55:59Z</time>
      </trkpt>
      <trkpt lat="48.41435" lon="2.6119">
        <ele>93.39</ele>
        <time>2017-03-19T08:56:04Z</time>
      </trkpt>
      <trkpt lat="48.41433" lon="2.61196">
        <ele>92.9</ele>
        <time>2017-03-19T08:56:05Z</time>
      </trkpt>
      <trkpt lat="48.41417" lon="2.61239">
        <ele>91.46</ele>
        <time>2017-03-19T08:56:13Z</time>
      </trkpt>
      <trkpt lat="48.41413" lon="2.61257">
        <ele>90.98</ele>
        <time>2017-03-19T08:56:16Z</time>
      </trkpt>
      <trkpt lat="48.41411" lon="2.61263">
        <ele>91.46</ele>
        <time>2017-03-19T08:56:17Z</time>
      </trkpt>
      <trkpt lat="48.41409" lon="2.61269">
        <ele>91.46</ele>
        <time>2017-03-19T08:56:18Z</time>
      </trkpt>
      <trkpt lat="48.41407" lon="2.61275">
        <ele>91.46</ele>
        <time>2017-03-19T08:56:19Z</time>
      </trkpt>
      <trkpt lat="48.41405" lon="2.61281">
        <ele>91.94</ele>
        <time>2017-03-19T08:56:20Z</time>
      </trkpt>
      <trkpt lat="48.41403" lon="2.61287">
        <ele>92.42</ele>
        <time>2017-03-19T08:56:21Z</time>
      </trkpt>
      <trkpt lat="48.41401" lon="2.61294">
        <ele>92.9</ele>
        <time>2017-03-19T08:56:22Z</time>
      </trkpt>
      <trkpt lat="48.41393" lon="2.61323">
        <ele>92.9</ele>
        <time>2017-03-19T08:56:27Z</time>
      </trkpt>
      <trkpt lat="48.4139" lon="2.61329">
        <ele>93.39</ele>
        <time>2017-03-19T08:56:28Z</time>
      </trkpt>
      <trkpt lat="48.41388" lon="2.61335">
        <ele>94.35</ele>
        <time>2017-03-19T08:56:29Z</time>
      </trkpt>
      <trkpt lat="48.41386" lon="2.6134">
        <ele>95.31</ele>
        <time>2017-03-19T08:56:30Z</time>
      </trkpt>
      <trkpt lat="48.41384" lon="2.61345">
        <ele>95.79</ele>
        <time>2017-03-19T08:56:31Z</time>
      </trkpt>
      <trkpt lat="48.41383" lon="2.61351">
        <ele>96.75</ele>
        <time>2017-03-19T08:56:32Z</time>
      </trkpt>
      <trkpt lat="48.41381" lon="2.61357">
        <ele>96.75</ele>
        <time>2017-03-19T08:56:33Z</time>
      </trkpt>
      <trkpt lat="48.4138" lon="2.61362">
        <ele>97.23</ele>
        <time>2017-03-19T08:56:34Z</time>
      </trkpt>
      <trkpt lat="48.41367" lon="2.61406">
        <ele>99.15</ele>
        <time>2017-03-19T08:56:42Z</time>
      </trkpt>
      <trkpt lat="48.41359" lon="2.61428">
        <ele>100.6</ele>
        <time>2017-03-19T08:56:46Z</time>
      </trkpt>
      <trkpt lat="48.41357" lon="2.61434">
        <ele>101.08</ele>
        <time>2017-03-19T08:56:47Z</time>
      </trkpt>
      <trkpt lat="48.41356" lon="2.61439">
        <ele>101.08</ele>
        <time>2017-03-19T08:56:48Z</time>
      </trkpt>
      <trkpt lat="48.41355" lon="2.61445">
        <ele>101.08</ele>
        <time>2017-03-19T08:56:49Z</time>
      </trkpt>
      <trkpt lat="48.41353" lon="2.61451">
        <ele>101.56</ele>
        <time>2017-03-19T08:56:50Z</time>
      </trkpt>
      <trkpt lat="48.41351" lon="2.61457">
        <ele>101.56</ele>
        <time>2017-03-19T08:56:51Z</time>
      </trkpt>
      <trkpt lat="48.4135" lon="2.61464">
        <ele>102.04</ele>
        <time>2017-03-19T08:56:52Z</time>
      </trkpt>
      <trkpt lat="48.41351" lon="2.61472">
        <ele>103</ele>
        <time>2017-03-19T08:56:53Z</time>
      </trkpt>
      <trkpt lat="48.4135" lon="2.61478">
        <ele>103.48</ele>
        <time>2017-03-19T08:56:54Z</time>
      </trkpt>
      <trkpt lat="48.41343" lon="2.61497">
        <ele>104.44</ele>
        <time>2017-03-19T08:56:57Z</time>
      </trkpt>
      <trkpt lat="48.41327" lon="2.61537">
        <ele>103.48</ele>
        <time>2017-03-19T08:57:04Z</time>
      </trkpt>
      <trkpt lat="48.41317" lon="2.61562">
        <ele>102.04</ele>
        <time>2017-03-19T08:57:08Z</time>
      </trkpt>
      <trkpt lat="48.41314" lon="2.61568">
        <ele>101.56</ele>
        <time>2017-03-19T08:57:09Z</time>
      </trkpt>
      <trkpt lat="48.41313" lon="2.61572">
        <ele>101.56</ele>
        <time>2017-03-19T08:57:10Z</time>
      </trkpt>
      <trkpt lat="48.413" lon="2.61612">
        <ele>99.15</ele>
        <time>2017-03-19T08:57:18Z</time>
      </trkpt>
      <trkpt lat="48.41287" lon="2.6165">
        <ele>97.23</ele>
        <time>2017-03-19T08:57:25Z</time>
      </trkpt>
      <trkpt lat="48.41279" lon="2.61666">
        <ele>96.75</ele>
        <time>2017-03-19T08:57:28Z</time>
      </trkpt>
      <trkpt lat="48.41275" lon="2.61671">
        <ele>96.27</ele>
        <time>2017-03-19T08:57:29Z</time>
      </trkpt>
      <trkpt lat="48.41271" lon="2.61676">
        <ele>96.27</ele>
        <time>2017-03-19T08:57:30Z</time>
      </trkpt>
      <trkpt lat="48.41267" lon="2.6168">
        <ele>95.79</ele>
        <time>2017-03-19T08:57:31Z</time>
      </trkpt>
      <trkpt lat="48.41263" lon="2.61683">
        <ele>95.31</ele>
        <time>2017-03-19T08:57:32Z</time>
      </trkpt>
      <trkpt lat="48.41223" lon="2.61712">
        <ele>92.9</ele>
        <time>2017-03-19T08:57:40Z</time>
      </trkpt>
      <trkpt lat="48.41202" lon="2.61725">
        <ele>91.46</ele>
        <time>2017-03-19T08:57:45Z</time>
      </trkpt>
      <trkpt lat="48.41198" lon="2.61728">
        <ele>90.98</ele>
        <time>2017-03-19T08:57:46Z</time>
      </trkpt>
      <trkpt lat="48.41175" lon="2.61743">
        <ele>90.02</ele>
        <time>2017-03-19T08:57:52Z</time>
      </trkpt>
      <trkpt lat="48.41144" lon="2.61766">
        <ele>88.58</ele>
        <time>2017-03-19T08:57:59Z</time>
      </trkpt>
      <trkpt lat="48.41124" lon="2.61783">
        <ele>88.58</ele>
        <time>2017-03-19T08:58:04Z</time>
      </trkpt>
      <trkpt lat="48.41121" lon="2.61805">
        <ele>88.1</ele>
        <time>2017-03-19T08:58:09Z</time>
      </trkpt>
      <trkpt lat="48.41129" lon="2.61839">
        <ele>90.02</ele>
        <time>2017-03-19T08:58:19Z</time>
      </trkpt>
      <trkpt lat="48.41137" lon="2.61869">
        <ele>92.42</ele>
        <time>2017-03-19T08:58:28Z</time>
      </trkpt>
      <trkpt lat="48.41148" lon="2.61893">
        <ele>92.9</ele>
        <time>2017-03-19T08:58:37Z</time>
      </trkpt>
      <trkpt lat="48.41151" lon="2.61906">
        <ele>93.39</ele>
        <time>2017-03-19T08:58:41Z</time>
      </trkpt>
      <trkpt lat="48.41154" lon="2.61928">
        <ele>94.83</ele>
        <time>2017-03-19T08:58:49Z</time>
      </trkpt>
      <trkpt lat="48.41155" lon="2.61934">
        <ele>95.79</ele>
        <time>2017-03-19T08:58:51Z</time>
      </trkpt>
      <trkpt lat="48.41157" lon="2.61941">
        <ele>96.75</ele>
        <time>2017-03-19T08:58:54Z</time>
      </trkpt>
      <trkpt lat="48.41161" lon="2.61954">
        <ele>99.63</ele>
        <time>2017-03-19T08:59:00Z</time>
      </trkpt>
      <trkpt lat="48.41162" lon="2.61958">
        <ele>100.11</ele>
        <time>2017-03-19T08:59:02Z</time>
      </trkpt>
      <trkpt lat="48.41164" lon="2.61973">
        <ele>102.04</ele>
        <time>2017-03-19T08:59:09Z</time>
      </trkpt>
      <trkpt lat="48.41165" lon="2.6198">
        <ele>102.04</ele>
        <time>2017-03-19T08:59:13Z</time>
      </trkpt>
      <trkpt lat="48.41168" lon="2.61992">
        <ele>102.04</ele>
        <time>2017-03-19T08:59:20Z</time>
      </trkpt>
      <trkpt lat="48.41171" lon="2.62">
        <ele>102.52</ele>
        <time>2017-03-19T08:59:24Z</time>
      </trkpt>
      <trkpt lat="48.41173" lon="2.62007">
        <ele>103</ele>
        <time>2017-03-19T08:59:27Z</time>
      </trkpt>
      <trkpt lat="48.41179" lon="2.62024">
        <ele>104.92</ele>
        <time>2017-03-19T08:59:36Z</time>
      </trkpt>
      <trkpt lat="48.41181" lon="2.62033">
        <ele>105.4</ele>
        <time>2017-03-19T08:59:41Z</time>
      </trkpt>
      <trkpt lat="48.41188" lon="2.62052">
        <ele>104.44</ele>
        <time>2017-03-19T08:59:52Z</time>
      </trkpt>
      <trkpt lat="48.41189" lon="2.62058">
        <ele>104.92</ele>
        <time>2017-03-19T08:59:55Z</time>
      </trkpt>
      <trkpt lat="48.41191" lon="2.62067">
        <ele>104.92</ele>
        <time>2017-03-19T08:59:59Z</time>
      </trkpt>
      <trkpt lat="48.41192" lon="2.62072">
        <ele>105.4</ele>
        <time>2017-03-19T09:00:01Z</time>
      </trkpt>
      <trkpt lat="48.41198" lon="2.62081">
        <ele>106.84</ele>
        <time>2017-03-19T09:00:07Z</time>
      </trkpt>
      <trkpt lat="48.41209" lon="2.62098">
        <ele>108.77</ele>
        <time>2017-03-19T09:00:19Z</time>
      </trkpt>
      <trkpt lat="48.41214" lon="2.62105">
        <ele>109.25</ele>
        <time>2017-03-19T09:00:26Z</time>
      </trkpt>
      <trkpt lat="48.4122" lon="2.62112">
        <ele>111.17</ele>
        <time>2017-03-19T09:00:32Z</time>
      </trkpt>
      <trkpt lat="48.4123" lon="2.62121">
        <ele>117.42</ele>
        <time>2017-03-19T09:00:41Z</time>
      </trkpt>
      <trkpt lat="48.41236" lon="2.62129">
        <ele>120.3</ele>
        <time>2017-03-19T09:00:49Z</time>
      </trkpt>
      <trkpt lat="48.41243" lon="2.6214">
        <ele>120.3</ele>
        <time>2017-03-19T09:00:58Z</time>
      </trkpt>
      <trkpt lat="48.41249" lon="2.62148">
        <ele>119.82</ele>
        <time>2017-03-19T09:01:08Z</time>
      </trkpt>
      <trkpt lat="48.41254" lon="2.62156">
        <ele>120.3</ele>
        <time>2017-03-19T09:01:16Z</time>
      </trkpt>
      <trkpt lat="48.4126" lon="2.62167">
        <ele>122.71</ele>
        <time>2017-03-19T09:01:25Z</time>
      </trkpt>
      <trkpt lat="48.41264" lon="2.62173">
        <ele>123.67</ele>
        <time>2017-03-19T09:01:29Z</time>
      </trkpt>
      <trkpt lat="48.41266" lon="2.62176">
        <ele>123.67</ele>
        <time>2017-03-19T09:01:31Z</time>
      </trkpt>
      <trkpt lat="48.41273" lon="2.6219">
        <ele>124.15</ele>
        <time>2017-03-19T09:01:41Z</time>
      </trkpt>
      <trkpt lat="48.41281" lon="2.62201">
        <ele>124.15</ele>
        <time>2017-03-19T09:01:48Z</time>
      </trkpt>
      <trkpt lat="48.41301" lon="2.62221">
        <ele>126.07</ele>
        <time>2017-03-19T09:01:57Z</time>
      </trkpt>
      <trkpt lat="48.41311" lon="2.62232">
        <ele>127.51</ele>
        <time>2017-03-19T09:02:01Z</time>
      </trkpt>
      <trkpt lat="48.41323" lon="2.62245">
        <ele>126.55</ele>
        <time>2017-03-19T09:02:05Z</time>
      </trkpt>
      <trkpt lat="48.41335" lon="2.62256">
        <ele>126.55</ele>
        <time>2017-03-19T09:02:08Z</time>
      </trkpt>
      <trkpt lat="48.41344" lon="2.62266">
        <ele>126.07</ele>
        <time>2017-03-19T09:02:11Z</time>
      </trkpt>
      <trkpt lat="48.41358" lon="2.6228">
        <ele>125.11</ele>
        <time>2017-03-19T09:02:15Z</time>
      </trkpt>
      <trkpt lat="48.41378" lon="2.62298">
        <ele>125.11</ele>
        <time>2017-03-19T09:02:20Z</time>
      </trkpt>
      <trkpt lat="48.41387" lon="2.62307">
        <ele>125.11</ele>
        <time>2017-03-19T09:02:22Z</time>
      </trkpt>
      <trkpt lat="48.41396" lon="2.62317">
        <ele>125.59</ele>
        <time>2017-03-19T09:02:24Z</time>
      </trkpt>
      <trkpt lat="48.41402" lon="2.62322">
        <ele>125.11</ele>
        <time>2017-03-19T09:02:25Z</time>
      </trkpt>
      <trkpt lat="48.41435" lon="2.62352">
        <ele>126.07</ele>
        <time>2017-03-19T09:02:30Z</time>
      </trkpt>
      <trkpt lat="48.41508" lon="2.62425">
        <ele>120.3</ele>
        <time>2017-03-19T09:02:39Z</time>
      </trkpt>
      <trkpt lat="48.41556" lon="2.62473">
        <ele>114.53</ele>
        <time>2017-03-19T09:02:45Z</time>
      </trkpt>
      <trkpt lat="48.41561" lon="2.62477">
        <ele>113.57</ele>
        <time>2017-03-19T09:02:46Z</time>
      </trkpt>
      <trkpt lat="48.41576" lon="2.62505">
        <ele>107.32</ele>
        <time>2017-03-19T09:02:54Z</time>
      </trkpt>
      <trkpt lat="48.41576" lon="2.62507">
        <ele>105.4</ele>
        <time>2017-03-19T09:03:09Z</time>
      </trkpt>
      <trkpt lat="48.41588" lon="2.62537">
        <ele>102.52</ele>
        <time>2017-03-19T09:03:17Z</time>
      </trkpt>
      <trkpt lat="48.4159" lon="2.62544">
        <ele>101.56</ele>
        <time>2017-03-19T09:03:19Z</time>
      </trkpt>
      <trkpt lat="48.41591" lon="2.62551">
        <ele>101.08</ele>
        <time>2017-03-19T09:03:21Z</time>
      </trkpt>
      <trkpt lat="48.41595" lon="2.62564">
        <ele>100.11</ele>
        <time>2017-03-19T09:03:25Z</time>
      </trkpt>
      <trkpt lat="48.41598" lon="2.6258">
        <ele>100.11</ele>
        <time>2017-03-19T09:03:32Z</time>
      </trkpt>
      <trkpt lat="48.41598" lon="2.62591">
        <ele>101.08</ele>
        <time>2017-03-19T09:03:37Z</time>
      </trkpt>
      <trkpt lat="48.41594" lon="2.62608">
        <ele>103</ele>
        <time>2017-03-19T09:03:45Z</time>
      </trkpt>
      <trkpt lat="48.4159" lon="2.62619">
        <ele>104.44</ele>
        <time>2017-03-19T09:03:53Z</time>
      </trkpt>
      <trkpt lat="48.41588" lon="2.62624">
        <ele>103.96</ele>
        <time>2017-03-19T09:03:56Z</time>
      </trkpt>
      <trkpt lat="48.41586" lon="2.6263">
        <ele>103.96</ele>
        <time>2017-03-19T09:03:59Z</time>
      </trkpt>
      <trkpt lat="48.41583" lon="2.62643">
        <ele>103.96</ele>
        <time>2017-03-19T09:04:09Z</time>
      </trkpt>
      <trkpt lat="48.41583" lon="2.62647">
        <ele>104.92</ele>
        <time>2017-03-19T09:04:12Z</time>
      </trkpt>
      <trkpt lat="48.41581" lon="2.62657">
        <ele>106.36</ele>
        <time>2017-03-19T09:04:17Z</time>
      </trkpt>
      <trkpt lat="48.41582" lon="2.62672">
        <ele>108.29</ele>
        <time>2017-03-19T09:04:25Z</time>
      </trkpt>
      <trkpt lat="48.41588" lon="2.62689">
        <ele>112.61</ele>
        <time>2017-03-19T09:04:35Z</time>
      </trkpt>
      <trkpt lat="48.41593" lon="2.62703">
        <ele>116.46</ele>
        <time>2017-03-19T09:04:44Z</time>
      </trkpt>
      <trkpt lat="48.41594" lon="2.62704">
        <ele>116.94</ele>
        <time>2017-03-19T09:04:45Z</time>
      </trkpt>
      <trkpt lat="48.41596" lon="2.62712">
        <ele>117.9</ele>
        <time>2017-03-19T09:04:50Z</time>
      </trkpt>
      <trkpt lat="48.416" lon="2.62723">
        <ele>117.9</ele>
        <time>2017-03-19T09:04:58Z</time>
      </trkpt>
      <trkpt lat="48.41602" lon="2.62727">
        <ele>117.42</ele>
        <time>2017-03-19T09:05:01Z</time>
      </trkpt>
      <trkpt lat="48.41603" lon="2.62729">
        <ele>116.94</ele>
        <time>2017-03-19T09:05:03Z</time>
      </trkpt>
      <trkpt lat="48.41609" lon="2.62738">
        <ele>116.94</ele>
        <time>2017-03-19T09:05:13Z</time>
      </trkpt>
      <trkpt lat="48.41616" lon="2.62745">
        <ele>119.82</ele>
        <time>2017-03-19T09:05:22Z</time>
      </trkpt>
      <trkpt lat="48.41622" lon="2.62752">
        <ele>120.78</ele>
        <time>2017-03-19T09:05:30Z</time>
      </trkpt>
      <trkpt lat="48.41629" lon="2.62763">
        <ele>119.34</ele>
        <time>2017-03-19T09:05:40Z</time>
      </trkpt>
      <trkpt lat="48.41635" lon="2.62771">
        <ele>119.82</ele>
        <time>2017-03-19T09:05:48Z</time>
      </trkpt>
      <trkpt lat="48.41636" lon="2.62772">
        <ele>119.82</ele>
        <time>2017-03-19T09:05:49Z</time>
      </trkpt>
      <trkpt lat="48.41638" lon="2.62776">
        <ele>120.78</ele>
        <time>2017-03-19T09:05:53Z</time>
      </trkpt>
      <trkpt lat="48.41642" lon="2.62781">
        <ele>122.22</ele>
        <time>2017-03-19T09:06:01Z</time>
      </trkpt>
      <trkpt lat="48.41644" lon="2.62781">
        <ele>122.22</ele>
        <time>2017-03-19T09:06:03Z</time>
      </trkpt>
      <trkpt lat="48.41649" lon="2.62785">
        <ele>123.67</ele>
        <time>2017-03-19T09:06:07Z</time>
      </trkpt>
      <trkpt lat="48.41662" lon="2.62791">
        <ele>124.15</ele>
        <time>2017-03-19T09:06:17Z</time>
      </trkpt>
      <trkpt lat="48.41673" lon="2.62794">
        <ele>125.11</ele>
        <time>2017-03-19T09:06:27Z</time>
      </trkpt>
      <trkpt lat="48.41674" lon="2.62794">
        <ele>124.63</ele>
        <time>2017-03-19T09:06:28Z</time>
      </trkpt>
      <trkpt lat="48.41682" lon="2.62797">
        <ele>124.63</ele>
        <time>2017-03-19T09:06:36Z</time>
      </trkpt>
      <trkpt lat="48.41693" lon="2.62801">
        <ele>126.55</ele>
        <time>2017-03-19T09:06:45Z</time>
      </trkpt>
      <trkpt lat="48.41702" lon="2.62805">
        <ele>127.03</ele>
        <time>2017-03-19T09:06:51Z</time>
      </trkpt>
      <trkpt lat="48.41718" lon="2.62811">
        <ele>127.03</ele>
        <time>2017-03-19T09:06:59Z</time>
      </trkpt>
      <trkpt lat="48.41726" lon="2.62815">
        <ele>127.99</ele>
        <time>2017-03-19T09:07:02Z</time>
      </trkpt>
      <trkpt lat="48.41747" lon="2.62825">
        <ele>130.4</ele>
        <time>2017-03-19T09:07:09Z</time>
      </trkpt>
      <trkpt lat="48.41753" lon="2.62827">
        <ele>130.88</ele>
        <time>2017-03-19T09:07:11Z</time>
      </trkpt>
      <trkpt lat="48.41783" lon="2.62839">
        <ele>128.95</ele>
        <time>2017-03-19T09:07:20Z</time>
      </trkpt>
      <trkpt lat="48.41808" lon="2.6285">
        <ele>127.51</ele>
        <time>2017-03-19T09:07:27Z</time>
      </trkpt>
      <trkpt lat="48.41847" lon="2.62869">
        <ele>125.59</ele>
        <time>2017-03-19T09:07:35Z</time>
      </trkpt>
      <trkpt lat="48.41865" lon="2.62875">
        <ele>124.15</ele>
        <time>2017-03-19T09:07:38Z</time>
      </trkpt>
      <trkpt lat="48.41876" lon="2.62884">
        <ele>123.19</ele>
        <time>2017-03-19T09:07:40Z</time>
      </trkpt>
      <trkpt lat="48.4189" lon="2.62902">
        <ele>121.74</ele>
        <time>2017-03-19T09:07:43Z</time>
      </trkpt>
      <trkpt lat="48.41924" lon="2.62912">
        <ele>117.42</ele>
        <time>2017-03-19T09:07:49Z</time>
      </trkpt>
      <trkpt lat="48.41942" lon="2.6289">
        <ele>113.09</ele>
        <time>2017-03-19T09:07:53Z</time>
      </trkpt>
      <trkpt lat="48.41954" lon="2.62863">
        <ele>109.25</ele>
        <time>2017-03-19T09:07:57Z</time>
      </trkpt>
      <trkpt lat="48.41976" lon="2.62865">
        <ele>103.48</ele>
        <time>2017-03-19T09:08:02Z</time>
      </trkpt>
      <trkpt lat="48.42003" lon="2.62884">
        <ele>98.67</ele>
        <time>2017-03-19T09:08:06Z</time>
      </trkpt>
      <trkpt lat="48.42075" lon="2.62941">
        <ele>92.42</ele>
        <time>2017-03-19T09:08:16Z</time>
      </trkpt>
      <trkpt lat="48.42099" lon="2.62959">
        <ele>91.94</ele>
        <time>2017-03-19T09:08:20Z</time>
      </trkpt>
      <trkpt lat="48.4214" lon="2.6299">
        <ele>90.98</ele>
        <time>2017-03-19T09:08:27Z</time>
      </trkpt>
      <trkpt lat="48.4215" lon="2.62999">
        <ele>90.98</ele>
        <time>2017-03-19T09:08:29Z</time>
      </trkpt>
      <trkpt lat="48.42166" lon="2.63011">
        <ele>90.98</ele>
        <time>2017-03-19T09:08:32Z</time>
      </trkpt>
      <trkpt lat="48.42212" lon="2.63044">
        <ele>91.46</ele>
        <time>2017-03-19T09:08:41Z</time>
      </trkpt>
      <trkpt lat="48.42225" lon="2.63056">
        <ele>90.98</ele>
        <time>2017-03-19T09:08:44Z</time>
      </trkpt>
      <trkpt lat="48.4226" lon="2.63063">
        <ele>89.06</ele>
        <time>2017-03-19T09:08:51Z</time>
      </trkpt>
      <trkpt lat="48.42269" lon="2.63064">
        <ele>90.02</ele>
        <time>2017-03-19T09:08:56Z</time>
      </trkpt>
      <trkpt lat="48.42272" lon="2.63063">
        <ele>90.98</ele>
        <time>2017-03-19T09:08:59Z</time>
      </trkpt>
      <trkpt lat="48.42286" lon="2.63062">
        <ele>92.9</ele>
        <time>2017-03-19T09:09:07Z</time>
      </trkpt>
      <trkpt lat="48.42299" lon="2.63057">
        <ele>93.87</ele>
        <time>2017-03-19T09:09:14Z</time>
      </trkpt>
      <trkpt lat="48.42317" lon="2.63053">
        <ele>93.87</ele>
        <time>2017-03-19T09:09:21Z</time>
      </trkpt>
      <trkpt lat="48.4234" lon="2.63049">
        <ele>96.27</ele>
        <time>2017-03-19T09:09:32Z</time>
      </trkpt>
      <trkpt lat="48.42351" lon="2.63049">
        <ele>97.23</ele>
        <time>2017-03-19T09:09:40Z</time>
      </trkpt>
      <trkpt lat="48.42355" lon="2.63047">
        <ele>97.23</ele>
        <time>2017-03-19T09:09:43Z</time>
      </trkpt>
      <trkpt lat="48.42368" lon="2.63044">
        <ele>102.04</ele>
        <time>2017-03-19T09:09:53Z</time>
      </trkpt>
      <trkpt lat="48.42375" lon="2.63042">
        <ele>103.48</ele>
        <time>2017-03-19T09:10:00Z</time>
      </trkpt>
      <trkpt lat="48.42385" lon="2.63041">
        <ele>105.4</ele>
        <time>2017-03-19T09:10:08Z</time>
      </trkpt>
      <trkpt lat="48.42386" lon="2.63041">
        <ele>105.88</ele>
        <time>2017-03-19T09:10:09Z</time>
      </trkpt>
      <trkpt lat="48.4239" lon="2.63041">
        <ele>106.84</ele>
        <time>2017-03-19T09:10:12Z</time>
      </trkpt>
      <trkpt lat="48.42395" lon="2.6304">
        <ele>107.32</ele>
        <time>2017-03-19T09:10:16Z</time>
      </trkpt>
      <trkpt lat="48.42407" lon="2.63037">
        <ele>110.21</ele>
        <time>2017-03-19T09:10:25Z</time>
      </trkpt>
      <trkpt lat="48.4241" lon="2.63036">
        <ele>110.69</ele>
        <time>2017-03-19T09:10:28Z</time>
      </trkpt>
      <trkpt lat="48.42413" lon="2.63034">
        <ele>111.17</ele>
        <time>2017-03-19T09:10:30Z</time>
      </trkpt>
      <trkpt lat="48.42421" lon="2.63033">
        <ele>111.17</ele>
        <time>2017-03-19T09:10:39Z</time>
      </trkpt>
      <trkpt lat="48.42422" lon="2.63033">
        <ele>111.17</ele>
        <time>2017-03-19T09:10:42Z</time>
      </trkpt>
      <trkpt lat="48.42425" lon="2.63032">
        <ele>111.65</ele>
        <time>2017-03-19T09:10:46Z</time>
      </trkpt>
      <trkpt lat="48.42435" lon="2.6303">
        <ele>113.57</ele>
        <time>2017-03-19T09:10:55Z</time>
      </trkpt>
      <trkpt lat="48.42436" lon="2.6303">
        <ele>114.05</ele>
        <time>2017-03-19T09:10:56Z</time>
      </trkpt>
      <trkpt lat="48.42443" lon="2.63026">
        <ele>115.5</ele>
        <time>2017-03-19T09:11:06Z</time>
      </trkpt>
      <trkpt lat="48.42448" lon="2.63027">
        <ele>116.46</ele>
        <time>2017-03-19T09:11:14Z</time>
      </trkpt>
      <trkpt lat="48.42449" lon="2.63025">
        <ele>116.94</ele>
        <time>2017-03-19T09:11:19Z</time>
      </trkpt>
      <trkpt lat="48.4246" lon="2.63025">
        <ele>117.9</ele>
        <time>2017-03-19T09:11:28Z</time>
      </trkpt>
      <trkpt lat="48.4246" lon="2.63024">
        <ele>117.9</ele>
        <time>2017-03-19T09:11:30Z</time>
      </trkpt>
      <trkpt lat="48.42474" lon="2.63021">
        <ele>121.26</ele>
        <time>2017-03-19T09:11:42Z</time>
      </trkpt>
      <trkpt lat="48.42484" lon="2.63019">
        <ele>122.22</ele>
        <time>2017-03-19T09:11:52Z</time>
      </trkpt>
      <trkpt lat="48.42491" lon="2.63017">
        <ele>123.67</ele>
        <time>2017-03-19T09:12:00Z</time>
      </trkpt>
      <trkpt lat="48.42501" lon="2.63022">
        <ele>123.19</ele>
        <time>2017-03-19T09:12:10Z</time>
      </trkpt>
      <trkpt lat="48.42503" lon="2.63027">
        <ele>123.67</ele>
        <time>2017-03-19T09:12:14Z</time>
      </trkpt>
      <trkpt lat="48.42506" lon="2.63038">
        <ele>122.71</ele>
        <time>2017-03-19T09:12:19Z</time>
      </trkpt>
      <trkpt lat="48.42507" lon="2.63059">
        <ele>122.71</ele>
        <time>2017-03-19T09:12:24Z</time>
      </trkpt>
      <trkpt lat="48.42507" lon="2.63087">
        <ele>123.19</ele>
        <time>2017-03-19T09:12:30Z</time>
      </trkpt>
      <trkpt lat="48.42508" lon="2.63105">
        <ele>120.78</ele>
        <time>2017-03-19T09:12:40Z</time>
      </trkpt>
      <trkpt lat="48.42508" lon="2.63106">
        <ele>120.3</ele>
        <time>2017-03-19T09:12:44Z</time>
      </trkpt>
      <trkpt lat="48.42512" lon="2.63124">
        <ele>119.34</ele>
        <time>2017-03-19T09:12:49Z</time>
      </trkpt>
      <trkpt lat="48.42511" lon="2.63145">
        <ele>119.34</ele>
        <time>2017-03-19T09:12:55Z</time>
      </trkpt>
      <trkpt lat="48.42513" lon="2.63163">
        <ele>122.71</ele>
        <time>2017-03-19T09:13:04Z</time>
      </trkpt>
      <trkpt lat="48.42513" lon="2.63173">
        <ele>124.15</ele>
        <time>2017-03-19T09:13:09Z</time>
      </trkpt>
      <trkpt lat="48.42515" lon="2.63186">
        <ele>124.63</ele>
        <time>2017-03-19T09:13:18Z</time>
      </trkpt>
      <trkpt lat="48.42514" lon="2.63202">
        <ele>127.03</ele>
        <time>2017-03-19T09:13:28Z</time>
      </trkpt>
      <trkpt lat="48.42516" lon="2.63216">
        <ele>127.03</ele>
        <time>2017-03-19T09:13:36Z</time>
      </trkpt>
      <trkpt lat="48.42516" lon="2.63224">
        <ele>127.03</ele>
        <time>2017-03-19T09:13:40Z</time>
      </trkpt>
      <trkpt lat="48.42515" lon="2.63229">
        <ele>126.55</ele>
        <time>2017-03-19T09:13:42Z</time>
      </trkpt>
      <trkpt lat="48.42516" lon="2.63236">
        <ele>125.11</ele>
        <time>2017-03-19T09:13:47Z</time>
      </trkpt>
      <trkpt lat="48.42515" lon="2.63254">
        <ele>124.63</ele>
        <time>2017-03-19T09:13:56Z</time>
      </trkpt>
      <trkpt lat="48.42516" lon="2.6326">
        <ele>124.15</ele>
        <time>2017-03-19T09:14:00Z</time>
      </trkpt>
      <trkpt lat="48.42516" lon="2.63263">
        <ele>124.63</ele>
        <time>2017-03-19T09:14:02Z</time>
      </trkpt>
      <trkpt lat="48.42518" lon="2.63271">
        <ele>123.67</ele>
        <time>2017-03-19T09:14:09Z</time>
      </trkpt>
      <trkpt lat="48.42518" lon="2.63274">
        <ele>123.19</ele>
        <time>2017-03-19T09:14:11Z</time>
      </trkpt>
      <trkpt lat="48.42515" lon="2.63305">
        <ele>124.63</ele>
        <time>2017-03-19T09:14:21Z</time>
      </trkpt>
      <trkpt lat="48.42516" lon="2.63315">
        <ele>125.11</ele>
        <time>2017-03-19T09:14:24Z</time>
      </trkpt>
      <trkpt lat="48.42516" lon="2.63337">
        <ele>125.11</ele>
        <time>2017-03-19T09:14:30Z</time>
      </trkpt>
      <trkpt lat="48.42518" lon="2.63354">
        <ele>124.63</ele>
        <time>2017-03-19T09:14:34Z</time>
      </trkpt>
      <trkpt lat="48.42516" lon="2.63397">
        <ele>125.59</ele>
        <time>2017-03-19T09:14:43Z</time>
      </trkpt>
      <trkpt lat="48.42509" lon="2.63436">
        <ele>127.03</ele>
        <time>2017-03-19T09:14:51Z</time>
      </trkpt>
      <trkpt lat="48.42499" lon="2.63495">
        <ele>131.36</ele>
        <time>2017-03-19T09:15:01Z</time>
      </trkpt>
      <trkpt lat="48.4249" lon="2.6354">
        <ele>134.72</ele>
        <time>2017-03-19T09:15:09Z</time>
      </trkpt>
      <trkpt lat="48.42485" lon="2.63568">
        <ele>136.64</ele>
        <time>2017-03-19T09:15:14Z</time>
      </trkpt>
      <trkpt lat="48.42477" lon="2.63609">
        <ele>138.57</ele>
        <time>2017-03-19T09:15:21Z</time>
      </trkpt>
      <trkpt lat="48.42466" lon="2.6367">
        <ele>135.68</ele>
        <time>2017-03-19T09:15:29Z</time>
      </trkpt>
      <trkpt lat="48.42453" lon="2.63747">
        <ele>130.4</ele>
        <time>2017-03-19T09:15:37Z</time>
      </trkpt>
      <trkpt lat="48.42441" lon="2.63814">
        <ele>123.67</ele>
        <time>2017-03-19T09:15:43Z</time>
      </trkpt>
      <trkpt lat="48.42402" lon="2.63867">
        <ele>115.98</ele>
        <time>2017-03-19T09:15:50Z</time>
      </trkpt>
      <trkpt lat="48.42356" lon="2.63916">
        <ele>110.69</ele>
        <time>2017-03-19T09:15:58Z</time>
      </trkpt>
      <trkpt lat="48.4235" lon="2.63924">
        <ele>110.21</ele>
        <time>2017-03-19T09:15:59Z</time>
      </trkpt>
      <trkpt lat="48.4233" lon="2.63952">
        <ele>109.25</ele>
        <time>2017-03-19T09:16:03Z</time>
      </trkpt>
      <trkpt lat="48.42315" lon="2.63964">
        <ele>109.25</ele>
        <time>2017-03-19T09:16:09Z</time>
      </trkpt>
      <trkpt lat="48.42309" lon="2.63969">
        <ele>109.25</ele>
        <time>2017-03-19T09:16:14Z</time>
      </trkpt>
      <trkpt lat="48.42304" lon="2.63974">
        <ele>110.21</ele>
        <time>2017-03-19T09:16:18Z</time>
      </trkpt>
      <trkpt lat="48.42293" lon="2.63982">
        <ele>110.69</ele>
        <time>2017-03-19T09:16:27Z</time>
      </trkpt>
      <trkpt lat="48.42288" lon="2.63987">
        <ele>111.17</ele>
        <time>2017-03-19T09:16:32Z</time>
      </trkpt>
      <trkpt lat="48.42281" lon="2.63991">
        <ele>111.65</ele>
        <time>2017-03-19T09:16:37Z</time>
      </trkpt>
      <trkpt lat="48.42274" lon="2.63995">
        <ele>112.61</ele>
        <time>2017-03-19T09:16:44Z</time>
      </trkpt>
      <trkpt lat="48.42264" lon="2.64002">
        <ele>114.05</ele>
        <time>2017-03-19T09:16:52Z</time>
      </trkpt>
      <trkpt lat="48.42262" lon="2.64003">
        <ele>114.05</ele>
        <time>2017-03-19T09:16:54Z</time>
      </trkpt>
      <trkpt lat="48.4225" lon="2.64011">
        <ele>115.5</ele>
        <time>2017-03-19T09:17:05Z</time>
      </trkpt>
      <trkpt lat="48.4224" lon="2.64017">
        <ele>115.98</ele>
        <time>2017-03-19T09:17:15Z</time>
      </trkpt>
      <trkpt lat="48.42233" lon="2.64022">
        <ele>115.98</ele>
        <time>2017-03-19T09:17:22Z</time>
      </trkpt>
      <trkpt lat="48.42224" lon="2.64028">
        <ele>116.46</ele>
        <time>2017-03-19T09:17:31Z</time>
      </trkpt>
      <trkpt lat="48.42223" lon="2.64029">
        <ele>116.46</ele>
        <time>2017-03-19T09:17:32Z</time>
      </trkpt>
      <trkpt lat="48.42215" lon="2.64033">
        <ele>117.9</ele>
        <time>2017-03-19T09:17:37Z</time>
      </trkpt>
      <trkpt lat="48.42205" lon="2.64041">
        <ele>117.42</ele>
        <time>2017-03-19T09:17:48Z</time>
      </trkpt>
      <trkpt lat="48.4219" lon="2.64047">
        <ele>120.78</ele>
        <time>2017-03-19T09:17:58Z</time>
      </trkpt>
      <trkpt lat="48.42186" lon="2.6405">
        <ele>121.26</ele>
        <time>2017-03-19T09:18:02Z</time>
      </trkpt>
      <trkpt lat="48.42173" lon="2.64061">
        <ele>124.15</ele>
        <time>2017-03-19T09:18:14Z</time>
      </trkpt>
      <trkpt lat="48.42165" lon="2.64062">
        <ele>124.63</ele>
        <time>2017-03-19T09:18:22Z</time>
      </trkpt>
      <trkpt lat="48.42159" lon="2.64065">
        <ele>125.11</ele>
        <time>2017-03-19T09:18:28Z</time>
      </trkpt>
      <trkpt lat="48.42152" lon="2.64068">
        <ele>126.55</ele>
        <time>2017-03-19T09:18:34Z</time>
      </trkpt>
      <trkpt lat="48.42139" lon="2.64078">
        <ele>128.47</ele>
        <time>2017-03-19T09:18:44Z</time>
      </trkpt>
      <trkpt lat="48.42126" lon="2.64086">
        <ele>127.99</ele>
        <time>2017-03-19T09:18:53Z</time>
      </trkpt>
      <trkpt lat="48.42111" lon="2.64096">
        <ele>130.88</ele>
        <time>2017-03-19T09:19:02Z</time>
      </trkpt>
      <trkpt lat="48.42096" lon="2.64103">
        <ele>132.8</ele>
        <time>2017-03-19T09:19:10Z</time>
      </trkpt>
      <trkpt lat="48.42072" lon="2.64117">
        <ele>133.76</ele>
        <time>2017-03-19T09:19:19Z</time>
      </trkpt>
      <trkpt lat="48.42065" lon="2.64122">
        <ele>134.72</ele>
        <time>2017-03-19T09:19:21Z</time>
      </trkpt>
      <trkpt lat="48.42044" lon="2.64137">
        <ele>133.76</ele>
        <time>2017-03-19T09:19:28Z</time>
      </trkpt>
      <trkpt lat="48.42027" lon="2.64172">
        <ele>133.28</ele>
        <time>2017-03-19T09:19:37Z</time>
      </trkpt>
      <trkpt lat="48.42013" lon="2.64199">
        <ele>131.36</ele>
        <time>2017-03-19T09:19:43Z</time>
      </trkpt>
      <trkpt lat="48.42001" lon="2.64226">
        <ele>130.88</ele>
        <time>2017-03-19T09:19:48Z</time>
      </trkpt>
      <trkpt lat="48.4198" lon="2.64266">
        <ele>131.84</ele>
        <time>2017-03-19T09:19:56Z</time>
      </trkpt>
      <trkpt lat="48.41959" lon="2.64311">
        <ele>131.36</ele>
        <time>2017-03-19T09:20:04Z</time>
      </trkpt>
      <trkpt lat="48.41948" lon="2.64333">
        <ele>131.36</ele>
        <time>2017-03-19T09:20:08Z</time>
      </trkpt>
      <trkpt lat="48.41939" lon="2.64356">
        <ele>131.36</ele>
        <time>2017-03-19T09:20:12Z</time>
      </trkpt>
      <trkpt lat="48.41917" lon="2.64404">
        <ele>135.2</ele>
        <time>2017-03-19T09:20:21Z</time>
      </trkpt>
      <trkpt lat="48.41915" lon="2.64409">
        <ele>135.68</ele>
        <time>2017-03-19T09:20:22Z</time>
      </trkpt>
      <trkpt lat="48.41902" lon="2.64443">
        <ele>138.09</ele>
        <time>2017-03-19T09:20:28Z</time>
      </trkpt>
      <trkpt lat="48.41886" lon="2.64471">
        <ele>138.57</ele>
        <time>2017-03-19T09:20:34Z</time>
      </trkpt>
      <trkpt lat="48.41872" lon="2.64503">
        <ele>136.64</ele>
        <time>2017-03-19T09:20:40Z</time>
      </trkpt>
      <trkpt lat="48.41858" lon="2.64537">
        <ele>137.13</ele>
        <time>2017-03-19T09:20:46Z</time>
      </trkpt>
      <trkpt lat="48.4185" lon="2.64554">
        <ele>136.64</ele>
        <time>2017-03-19T09:20:50Z</time>
      </trkpt>
      <trkpt lat="48.41846" lon="2.64566">
        <ele>137.13</ele>
        <time>2017-03-19T09:20:53Z</time>
      </trkpt>
      <trkpt lat="48.41823" lon="2.64613">
        <ele>134.72</ele>
        <time>2017-03-19T09:21:01Z</time>
      </trkpt>
      <trkpt lat="48.41817" lon="2.64625">
        <ele>133.76</ele>
        <time>2017-03-19T09:21:03Z</time>
      </trkpt>
      <trkpt lat="48.4181" lon="2.64637">
        <ele>133.28</ele>
        <time>2017-03-19T09:21:05Z</time>
      </trkpt>
      <trkpt lat="48.41801" lon="2.64655">
        <ele>133.28</ele>
        <time>2017-03-19T09:21:08Z</time>
      </trkpt>
      <trkpt lat="48.41783" lon="2.64696">
        <ele>135.68</ele>
        <time>2017-03-19T09:21:14Z</time>
      </trkpt>
      <trkpt lat="48.41766" lon="2.6473">
        <ele>137.61</ele>
        <time>2017-03-19T09:21:19Z</time>
      </trkpt>
      <trkpt lat="48.41757" lon="2.64749">
        <ele>136.64</ele>
        <time>2017-03-19T09:21:22Z</time>
      </trkpt>
      <trkpt lat="48.41745" lon="2.64782">
        <ele>135.68</ele>
        <time>2017-03-19T09:21:29Z</time>
      </trkpt>
      <trkpt lat="48.41738" lon="2.64795">
        <ele>133.28</ele>
        <time>2017-03-19T09:21:35Z</time>
      </trkpt>
      <trkpt lat="48.41736" lon="2.64797">
        <ele>133.28</ele>
        <time>2017-03-19T09:21:37Z</time>
      </trkpt>
      <trkpt lat="48.41735" lon="2.648">
        <ele>133.28</ele>
        <time>2017-03-19T09:21:39Z</time>
      </trkpt>
      <trkpt lat="48.41734" lon="2.64825">
        <ele>134.24</ele>
        <time>2017-03-19T09:21:48Z</time>
      </trkpt>
      <trkpt lat="48.41736" lon="2.64841">
        <ele>134.24</ele>
        <time>2017-03-19T09:21:54Z</time>
      </trkpt>
      <trkpt lat="48.4174" lon="2.64868">
        <ele>134.24</ele>
        <time>2017-03-19T09:22:01Z</time>
      </trkpt>
      <trkpt lat="48.41742" lon="2.64881">
        <ele>134.72</ele>
        <time>2017-03-19T09:22:04Z</time>
      </trkpt>
      <trkpt lat="48.41741" lon="2.649">
        <ele>134.24</ele>
        <time>2017-03-19T09:22:09Z</time>
      </trkpt>
      <trkpt lat="48.41738" lon="2.64918">
        <ele>134.24</ele>
        <time>2017-03-19T09:22:12Z</time>
      </trkpt>
      <trkpt lat="48.41734" lon="2.6495">
        <ele>133.28</ele>
        <time>2017-03-19T09:22:18Z</time>
      </trkpt>
      <trkpt lat="48.41726" lon="2.6496">
        <ele>132.8</ele>
        <time>2017-03-19T09:22:22Z</time>
      </trkpt>
      <trkpt lat="48.41713" lon="2.64996">
        <ele>130.88</ele>
        <time>2017-03-19T09:22:28Z</time>
      </trkpt>
      <trkpt lat="48.41705" lon="2.65017">
        <ele>131.36</ele>
        <time>2017-03-19T09:22:32Z</time>
      </trkpt>
      <trkpt lat="48.4169" lon="2.6504">
        <ele>130.4</ele>
        <time>2017-03-19T09:22:37Z</time>
      </trkpt>
      <trkpt lat="48.4167" lon="2.6508">
        <ele>130.88</ele>
        <time>2017-03-19T09:22:45Z</time>
      </trkpt>
      <trkpt lat="48.41658" lon="2.65122">
        <ele>129.92</ele>
        <time>2017-03-19T09:22:53Z</time>
      </trkpt>
      <trkpt lat="48.4165" lon="2.65166">
        <ele>131.36</ele>
        <time>2017-03-19T09:23:00Z</time>
      </trkpt>
      <trkpt lat="48.41644" lon="2.65198">
        <ele>133.76</ele>
        <time>2017-03-19T09:23:06Z</time>
      </trkpt>
      <trkpt lat="48.41638" lon="2.65225">
        <ele>133.76</ele>
        <time>2017-03-19T09:23:14Z</time>
      </trkpt>
      <trkpt lat="48.41634" lon="2.65265">
        <ele>134.24</ele>
        <time>2017-03-19T09:23:23Z</time>
      </trkpt>
      <trkpt lat="48.41632" lon="2.65303">
        <ele>133.76</ele>
        <time>2017-03-19T09:23:31Z</time>
      </trkpt>
      <trkpt lat="48.41632" lon="2.65308">
        <ele>133.76</ele>
        <time>2017-03-19T09:23:32Z</time>
      </trkpt>
      <trkpt lat="48.41634" lon="2.65357">
        <ele>136.64</ele>
        <time>2017-03-19T09:23:41Z</time>
      </trkpt>
      <trkpt lat="48.41635" lon="2.65393">
        <ele>138.09</ele>
        <time>2017-03-19T09:23:49Z</time>
      </trkpt>
      <trkpt lat="48.41643" lon="2.65433">
        <ele>139.05</ele>
        <time>2017-03-19T09:23:57Z</time>
      </trkpt>
      <trkpt lat="48.4165" lon="2.65486">
        <ele>139.05</ele>
        <time>2017-03-19T09:24:07Z</time>
      </trkpt>
      <trkpt lat="48.41658" lon="2.65529">
        <ele>138.57</ele>
        <time>2017-03-19T09:24:16Z</time>
      </trkpt>
      <trkpt lat="48.41678" lon="2.65567">
        <ele>135.2</ele>
        <time>2017-03-19T09:24:25Z</time>
      </trkpt>
      <trkpt lat="48.4169" lon="2.65594">
        <ele>133.28</ele>
        <time>2017-03-19T09:24:31Z</time>
      </trkpt>
      <trkpt lat="48.41707" lon="2.6563">
        <ele>133.28</ele>
        <time>2017-03-19T09:24:39Z</time>
      </trkpt>
      <trkpt lat="48.4173" lon="2.65674">
        <ele>133.76</ele>
        <time>2017-03-19T09:24:49Z</time>
      </trkpt>
      <trkpt lat="48.41747" lon="2.65704">
        <ele>133.76</ele>
        <time>2017-03-19T09:24:56Z</time>
      </trkpt>
      <trkpt lat="48.41768" lon="2.65743">
        <ele>133.28</ele>
        <time>2017-03-19T09:25:05Z</time>
      </trkpt>
      <trkpt lat="48.41772" lon="2.65746">
        <ele>133.28</ele>
        <time>2017-03-19T09:25:06Z</time>
      </trkpt>
      <trkpt lat="48.4177" lon="2.65776">
        <ele>132.32</ele>
        <time>2017-03-19T09:25:12Z</time>
      </trkpt>
      <trkpt lat="48.41764" lon="2.65791">
        <ele>133.28</ele>
        <time>2017-03-19T09:25:15Z</time>
      </trkpt>
      <trkpt lat="48.41751" lon="2.65824">
        <ele>133.76</ele>
        <time>2017-03-19T09:25:22Z</time>
      </trkpt>
      <trkpt lat="48.41735" lon="2.6585">
        <ele>133.28</ele>
        <time>2017-03-19T09:25:27Z</time>
      </trkpt>
      <trkpt lat="48.41723" lon="2.65864">
        <ele>132.8</ele>
        <time>2017-03-19T09:25:30Z</time>
      </trkpt>
      <trkpt lat="48.41704" lon="2.65886">
        <ele>131.84</ele>
        <time>2017-03-19T09:25:35Z</time>
      </trkpt>
      <trkpt lat="48.41662" lon="2.65934">
        <ele>131.84</ele>
        <time>2017-03-19T09:25:45Z</time>
      </trkpt>
      <trkpt lat="48.41647" lon="2.65955">
        <ele>131.84</ele>
        <time>2017-03-19T09:25:49Z</time>
      </trkpt>
      <trkpt lat="48.41601" lon="2.66014">
        <ele>130.4</ele>
        <time>2017-03-19T09:26:00Z</time>
      </trkpt>
      <trkpt lat="48.41593" lon="2.66026">
        <ele>130.4</ele>
        <time>2017-03-19T09:26:02Z</time>
      </trkpt>
      <trkpt lat="48.4158" lon="2.66055">
        <ele>128.95</ele>
        <time>2017-03-19T09:26:06Z</time>
      </trkpt>
      <trkpt lat="48.41572" lon="2.66084">
        <ele>127.03</ele>
        <time>2017-03-19T09:26:10Z</time>
      </trkpt>
      <trkpt lat="48.41566" lon="2.66099">
        <ele>126.55</ele>
        <time>2017-03-19T09:26:12Z</time>
      </trkpt>
      <trkpt lat="48.41554" lon="2.6614">
        <ele>126.55</ele>
        <time>2017-03-19T09:26:17Z</time>
      </trkpt>
      <trkpt lat="48.41542" lon="2.66168">
        <ele>125.59</ele>
        <time>2017-03-19T09:26:21Z</time>
      </trkpt>
      <trkpt lat="48.41504" lon="2.66238">
        <ele>124.15</ele>
        <time>2017-03-19T09:26:31Z</time>
      </trkpt>
      <trkpt lat="48.41495" lon="2.6627">
        <ele>124.15</ele>
        <time>2017-03-19T09:26:35Z</time>
      </trkpt>
      <trkpt lat="48.41472" lon="2.66353">
        <ele>119.82</ele>
        <time>2017-03-19T09:26:43Z</time>
      </trkpt>
      <trkpt lat="48.41449" lon="2.66431">
        <ele>117.42</ele>
        <time>2017-03-19T09:26:50Z</time>
      </trkpt>
      <trkpt lat="48.41422" lon="2.66492">
        <ele>113.57</ele>
        <time>2017-03-19T09:26:56Z</time>
      </trkpt>
      <trkpt lat="48.41386" lon="2.66606">
        <ele>106.84</ele>
        <time>2017-03-19T09:27:04Z</time>
      </trkpt>
      <trkpt lat="48.41371" lon="2.66654">
        <ele>103.48</ele>
        <time>2017-03-19T09:27:07Z</time>
      </trkpt>
      <trkpt lat="48.41301" lon="2.66805">
        <ele>99.63</ele>
        <time>2017-03-19T09:27:17Z</time>
      </trkpt>
      <trkpt lat="48.4126" lon="2.66889">
        <ele>97.23</ele>
        <time>2017-03-19T09:27:24Z</time>
      </trkpt>
      <trkpt lat="48.41213" lon="2.66981">
        <ele>94.83</ele>
        <time>2017-03-19T09:27:33Z</time>
      </trkpt>
      <trkpt lat="48.4119" lon="2.67028">
        <ele>93.39</ele>
        <time>2017-03-19T09:27:38Z</time>
      </trkpt>
      <trkpt lat="48.41188" lon="2.67077">
        <ele>91.46</ele>
        <time>2017-03-19T09:27:43Z</time>
      </trkpt>
      <trkpt lat="48.41188" lon="2.67125">
        <ele>90.5</ele>
        <time>2017-03-19T09:27:48Z</time>
      </trkpt>
      <trkpt lat="48.41189" lon="2.67185">
        <ele>90.98</ele>
        <time>2017-03-19T09:27:55Z</time>
      </trkpt>
      <trkpt lat="48.41192" lon="2.67232">
        <ele>91.94</ele>
        <time>2017-03-19T09:28:01Z</time>
      </trkpt>
      <trkpt lat="48.41196" lon="2.67264">
        <ele>92.9</ele>
        <time>2017-03-19T09:28:05Z</time>
      </trkpt>
      <trkpt lat="48.41199" lon="2.67316">
        <ele>94.35</ele>
        <time>2017-03-19T09:28:13Z</time>
      </trkpt>
      <trkpt lat="48.412" lon="2.67347">
        <ele>95.79</ele>
        <time>2017-03-19T09:28:18Z</time>
      </trkpt>
      <trkpt lat="48.41203" lon="2.67402">
        <ele>95.79</ele>
        <time>2017-03-19T09:28:28Z</time>
      </trkpt>
      <trkpt lat="48.41203" lon="2.6743">
        <ele>92.9</ele>
        <time>2017-03-19T09:28:36Z</time>
      </trkpt>
      <trkpt lat="48.41203" lon="2.67464">
        <ele>90.5</ele>
        <time>2017-03-19T09:28:43Z</time>
      </trkpt>
      <trkpt lat="48.41207" lon="2.67511">
        <ele>89.06</ele>
        <time>2017-03-19T09:28:52Z</time>
      </trkpt>
      <trkpt lat="48.41208" lon="2.67544">
        <ele>88.58</ele>
        <time>2017-03-19T09:28:59Z</time>
      </trkpt>
      <trkpt lat="48.41208" lon="2.67548">
        <ele>88.1</ele>
        <time>2017-03-19T09:29:00Z</time>
      </trkpt>
      <trkpt lat="48.4121" lon="2.67554">
        <ele>87.14</ele>
        <time>2017-03-19T09:29:03Z</time>
      </trkpt>
      <trkpt lat="48.41211" lon="2.67554">
        <ele>86.66</ele>
        <time>2017-03-19T09:29:06Z</time>
      </trkpt>
      <trkpt lat="48.41223" lon="2.67545">
        <ele>82.81</ele>
        <time>2017-03-19T09:29:15Z</time>
      </trkpt>
      <trkpt lat="48.41235" lon="2.6754">
        <ele>81.85</ele>
        <time>2017-03-19T09:29:23Z</time>
      </trkpt>
      <trkpt lat="48.41236" lon="2.67541">
        <ele>81.85</ele>
        <time>2017-03-19T09:29:24Z</time>
      </trkpt>
      <trkpt lat="48.4125" lon="2.67564">
        <ele>87.62</ele>
        <time>2017-03-19T09:29:34Z</time>
      </trkpt>
      <trkpt lat="48.41255" lon="2.67579">
        <ele>90.02</ele>
        <time>2017-03-19T09:29:39Z</time>
      </trkpt>
      <trkpt lat="48.41259" lon="2.67591">
        <ele>91.46</ele>
        <time>2017-03-19T09:29:44Z</time>
      </trkpt>
      <trkpt lat="48.41262" lon="2.67601">
        <ele>91.46</ele>
        <time>2017-03-19T09:29:48Z</time>
      </trkpt>
      <trkpt lat="48.41263" lon="2.67618">
        <ele>96.27</ele>
        <time>2017-03-19T09:29:55Z</time>
      </trkpt>
      <trkpt lat="48.41266" lon="2.67634">
        <ele>96.75</ele>
        <time>2017-03-19T09:30:01Z</time>
      </trkpt>
      <trkpt lat="48.41277" lon="2.67633">
        <ele>96.75</ele>
        <time>2017-03-19T09:30:09Z</time>
      </trkpt>
      <trkpt lat="48.41282" lon="2.67627">
        <ele>96.75</ele>
        <time>2017-03-19T09:30:12Z</time>
      </trkpt>
      <trkpt lat="48.41289" lon="2.67616">
        <ele>96.75</ele>
        <time>2017-03-19T09:30:18Z</time>
      </trkpt>
      <trkpt lat="48.413" lon="2.67598">
        <ele>97.71</ele>
        <time>2017-03-19T09:30:27Z</time>
      </trkpt>
      <trkpt lat="48.41301" lon="2.67593">
        <ele>97.23</ele>
        <time>2017-03-19T09:30:29Z</time>
      </trkpt>
      <trkpt lat="48.41306" lon="2.67587">
        <ele>96.75</ele>
        <time>2017-03-19T09:30:33Z</time>
      </trkpt>
      <trkpt lat="48.41312" lon="2.67574">
        <ele>97.23</ele>
        <time>2017-03-19T09:30:39Z</time>
      </trkpt>
      <trkpt lat="48.41315" lon="2.67571">
        <ele>97.23</ele>
        <time>2017-03-19T09:30:41Z</time>
      </trkpt>
      <trkpt lat="48.41322" lon="2.67555">
        <ele>97.71</ele>
        <time>2017-03-19T09:30:48Z</time>
      </trkpt>
      <trkpt lat="48.41325" lon="2.67549">
        <ele>97.23</ele>
        <time>2017-03-19T09:30:51Z</time>
      </trkpt>
      <trkpt lat="48.4133" lon="2.67539">
        <ele>96.75</ele>
        <time>2017-03-19T09:30:56Z</time>
      </trkpt>
      <trkpt lat="48.41336" lon="2.67531">
        <ele>97.23</ele>
        <time>2017-03-19T09:31:00Z</time>
      </trkpt>
      <trkpt lat="48.4134" lon="2.67524">
        <ele>96.75</ele>
        <time>2017-03-19T09:31:03Z</time>
      </trkpt>
      <trkpt lat="48.41344" lon="2.67518">
        <ele>95.79</ele>
        <time>2017-03-19T09:31:06Z</time>
      </trkpt>
      <trkpt lat="48.41349" lon="2.6751">
        <ele>96.27</ele>
        <time>2017-03-19T09:31:10Z</time>
      </trkpt>
      <trkpt lat="48.41367" lon="2.67485">
        <ele>95.79</ele>
        <time>2017-03-19T09:31:19Z</time>
      </trkpt>
      <trkpt lat="48.41383" lon="2.67462">
        <ele>95.79</ele>
        <time>2017-03-19T09:31:28Z</time>
      </trkpt>
      <trkpt lat="48.41386" lon="2.67449">
        <ele>96.27</ele>
        <time>2017-03-19T09:31:33Z</time>
      </trkpt>
      <trkpt lat="48.41395" lon="2.67432">
        <ele>95.79</ele>
        <time>2017-03-19T09:31:41Z</time>
      </trkpt>
      <trkpt lat="48.414" lon="2.67425">
        <ele>95.31</ele>
        <time>2017-03-19T09:31:45Z</time>
      </trkpt>
      <trkpt lat="48.41404" lon="2.67421">
        <ele>95.31</ele>
        <time>2017-03-19T09:31:47Z</time>
      </trkpt>
      <trkpt lat="48.41412" lon="2.6741">
        <ele>94.35</ele>
        <time>2017-03-19T09:31:51Z</time>
      </trkpt>
      <trkpt lat="48.41426" lon="2.67389">
        <ele>93.87</ele>
        <time>2017-03-19T09:31:59Z</time>
      </trkpt>
      <trkpt lat="48.4144" lon="2.67378">
        <ele>93.87</ele>
        <time>2017-03-19T09:32:05Z</time>
      </trkpt>
      <trkpt lat="48.41451" lon="2.67368">
        <ele>93.39</ele>
        <time>2017-03-19T09:32:12Z</time>
      </trkpt>
      <trkpt lat="48.41461" lon="2.67366">
        <ele>92.9</ele>
        <time>2017-03-19T09:32:20Z</time>
      </trkpt>
      <trkpt lat="48.41472" lon="2.67368">
        <ele>92.9</ele>
        <time>2017-03-19T09:32:28Z</time>
      </trkpt>
      <trkpt lat="48.41479" lon="2.67368">
        <ele>91.94</ele>
        <time>2017-03-19T09:32:34Z</time>
      </trkpt>
      <trkpt lat="48.41489" lon="2.67369">
        <ele>91.46</ele>
        <time>2017-03-19T09:32:41Z</time>
      </trkpt>
      <trkpt lat="48.41491" lon="2.67369">
        <ele>90.98</ele>
        <time>2017-03-19T09:32:43Z</time>
      </trkpt>
      <trkpt lat="48.41497" lon="2.67368">
        <ele>90.98</ele>
        <time>2017-03-19T09:32:52Z</time>
      </trkpt>
      <trkpt lat="48.41508" lon="2.6737">
        <ele>91.46</ele>
        <time>2017-03-19T09:33:01Z</time>
      </trkpt>
      <trkpt lat="48.41512" lon="2.67371">
        <ele>90.5</ele>
        <time>2017-03-19T09:33:07Z</time>
      </trkpt>
      <trkpt lat="48.41519" lon="2.67375">
        <ele>88.58</ele>
        <time>2017-03-19T09:33:16Z</time>
      </trkpt>
      <trkpt lat="48.41529" lon="2.67373">
        <ele>90.02</ele>
        <time>2017-03-19T09:33:24Z</time>
      </trkpt>
      <trkpt lat="48.41533" lon="2.67372">
        <ele>90.98</ele>
        <time>2017-03-19T09:33:27Z</time>
      </trkpt>
      <trkpt lat="48.41547" lon="2.67372">
        <ele>91.94</ele>
        <time>2017-03-19T09:33:37Z</time>
      </trkpt>
      <trkpt lat="48.41555" lon="2.67373">
        <ele>92.9</ele>
        <time>2017-03-19T09:33:45Z</time>
      </trkpt>
      <trkpt lat="48.41562" lon="2.67372">
        <ele>93.87</ele>
        <time>2017-03-19T09:33:52Z</time>
      </trkpt>
      <trkpt lat="48.41576" lon="2.67373">
        <ele>95.31</ele>
        <time>2017-03-19T09:34:03Z</time>
      </trkpt>
      <trkpt lat="48.41581" lon="2.67376">
        <ele>94.35</ele>
        <time>2017-03-19T09:34:11Z</time>
      </trkpt>
      <trkpt lat="48.41588" lon="2.67375">
        <ele>95.31</ele>
        <time>2017-03-19T09:34:19Z</time>
      </trkpt>
      <trkpt lat="48.416" lon="2.67375">
        <ele>100.11</ele>
        <time>2017-03-19T09:34:28Z</time>
      </trkpt>
      <trkpt lat="48.41615" lon="2.67373">
        <ele>102.52</ele>
        <time>2017-03-19T09:34:39Z</time>
      </trkpt>
      <trkpt lat="48.41627" lon="2.67371">
        <ele>106.84</ele>
        <time>2017-03-19T09:34:47Z</time>
      </trkpt>
      <trkpt lat="48.41642" lon="2.67368">
        <ele>112.13</ele>
        <time>2017-03-19T09:34:56Z</time>
      </trkpt>
      <trkpt lat="48.41652" lon="2.67364">
        <ele>112.13</ele>
        <time>2017-03-19T09:35:06Z</time>
      </trkpt>
      <trkpt lat="48.41666" lon="2.67361">
        <ele>117.9</ele>
        <time>2017-03-19T09:35:15Z</time>
      </trkpt>
      <trkpt lat="48.41682" lon="2.67355">
        <ele>116.94</ele>
        <time>2017-03-19T09:35:26Z</time>
      </trkpt>
      <trkpt lat="48.41702" lon="2.67343">
        <ele>115.5</ele>
        <time>2017-03-19T09:35:37Z</time>
      </trkpt>
      <trkpt lat="48.41715" lon="2.67338">
        <ele>115.5</ele>
        <time>2017-03-19T09:35:43Z</time>
      </trkpt>
      <trkpt lat="48.41723" lon="2.67338">
        <ele>115.01</ele>
        <time>2017-03-19T09:35:47Z</time>
      </trkpt>
      <trkpt lat="48.41747" lon="2.67335">
        <ele>115.01</ele>
        <time>2017-03-19T09:35:57Z</time>
      </trkpt>
      <trkpt lat="48.4176" lon="2.67333">
        <ele>114.53</ele>
        <time>2017-03-19T09:36:00Z</time>
      </trkpt>
      <trkpt lat="48.41765" lon="2.67333">
        <ele>114.53</ele>
        <time>2017-03-19T09:36:01Z</time>
      </trkpt>
      <trkpt lat="48.41771" lon="2.67333">
        <ele>115.01</ele>
        <time>2017-03-19T09:36:02Z</time>
      </trkpt>
      <trkpt lat="48.41777" lon="2.67332">
        <ele>115.5</ele>
        <time>2017-03-19T09:36:03Z</time>
      </trkpt>
      <trkpt lat="48.41782" lon="2.67331">
        <ele>115.5</ele>
        <time>2017-03-19T09:36:04Z</time>
      </trkpt>
      <trkpt lat="48.41788" lon="2.67328">
        <ele>115.5</ele>
        <time>2017-03-19T09:36:05Z</time>
      </trkpt>
      <trkpt lat="48.41794" lon="2.67323">
        <ele>115.5</ele>
        <time>2017-03-19T09:36:06Z</time>
      </trkpt>
      <trkpt lat="48.41798" lon="2.67318">
        <ele>115.5</ele>
        <time>2017-03-19T09:36:07Z</time>
      </trkpt>
      <trkpt lat="48.41802" lon="2.67312">
        <ele>115.5</ele>
        <time>2017-03-19T09:36:08Z</time>
      </trkpt>
      <trkpt lat="48.41806" lon="2.67307">
        <ele>115.01</ele>
        <time>2017-03-19T09:36:09Z</time>
      </trkpt>
      <trkpt lat="48.41809" lon="2.67302">
        <ele>115.01</ele>
        <time>2017-03-19T09:36:10Z</time>
      </trkpt>
      <trkpt lat="48.41811" lon="2.67297">
        <ele>115.01</ele>
        <time>2017-03-19T09:36:11Z</time>
      </trkpt>
      <trkpt lat="48.41825" lon="2.67259">
        <ele>122.71</ele>
        <time>2017-03-19T09:36:21Z</time>
      </trkpt>
      <trkpt lat="48.41834" lon="2.67215">
        <ele>126.55</ele>
        <time>2017-03-19T09:36:29Z</time>
      </trkpt>
      <trkpt lat="48.41841" lon="2.67173">
        <ele>127.51</ele>
        <time>2017-03-19T09:36:35Z</time>
      </trkpt>
      <trkpt lat="48.41848" lon="2.67125">
        <ele>127.51</ele>
        <time>2017-03-19T09:36:42Z</time>
      </trkpt>
      <trkpt lat="48.41851" lon="2.67111">
        <ele>126.55</ele>
        <time>2017-03-19T09:36:44Z</time>
      </trkpt>
      <trkpt lat="48.41854" lon="2.67098">
        <ele>126.55</ele>
        <time>2017-03-19T09:36:46Z</time>
      </trkpt>
      <trkpt lat="48.41858" lon="2.67079">
        <ele>127.03</ele>
        <time>2017-03-19T09:36:49Z</time>
      </trkpt>
      <trkpt lat="48.4187" lon="2.67011">
        <ele>127.99</ele>
        <time>2017-03-19T09:37:00Z</time>
      </trkpt>
      <trkpt lat="48.41872" lon="2.66992">
        <ele>127.99</ele>
        <time>2017-03-19T09:37:03Z</time>
      </trkpt>
      <trkpt lat="48.41874" lon="2.66986">
        <ele>127.99</ele>
        <time>2017-03-19T09:37:04Z</time>
      </trkpt>
      <trkpt lat="48.41878" lon="2.66957">
        <ele>127.99</ele>
        <time>2017-03-19T09:37:08Z</time>
      </trkpt>
      <trkpt lat="48.41881" lon="2.66942">
        <ele>127.99</ele>
        <time>2017-03-19T09:37:10Z</time>
      </trkpt>
      <trkpt lat="48.41882" lon="2.66934">
        <ele>127.99</ele>
        <time>2017-03-19T09:37:11Z</time>
      </trkpt>
      <trkpt lat="48.41883" lon="2.66927">
        <ele>127.99</ele>
        <time>2017-03-19T09:37:12Z</time>
      </trkpt>
      <trkpt lat="48.41886" lon="2.66904">
        <ele>127.99</ele>
        <time>2017-03-19T09:37:15Z</time>
      </trkpt>
      <trkpt lat="48.419" lon="2.66823">
        <ele>127.03</ele>
        <time>2017-03-19T09:37:26Z</time>
      </trkpt>
      <trkpt lat="48.41903" lon="2.66803">
        <ele>127.51</ele>
        <time>2017-03-19T09:37:29Z</time>
      </trkpt>
      <trkpt lat="48.41909" lon="2.66772">
        <ele>129.43</ele>
        <time>2017-03-19T09:37:34Z</time>
      </trkpt>
      <trkpt lat="48.41915" lon="2.66735">
        <ele>129.92</ele>
        <time>2017-03-19T09:37:40Z</time>
      </trkpt>
      <trkpt lat="48.41921" lon="2.66696">
        <ele>129.92</ele>
        <time>2017-03-19T09:37:46Z</time>
      </trkpt>
      <trkpt lat="48.41924" lon="2.66676">
        <ele>128.95</ele>
        <time>2017-03-19T09:37:49Z</time>
      </trkpt>
      <trkpt lat="48.41929" lon="2.66647">
        <ele>128.47</ele>
        <time>2017-03-19T09:37:53Z</time>
      </trkpt>
      <trkpt lat="48.41933" lon="2.66618">
        <ele>128.95</ele>
        <time>2017-03-19T09:37:57Z</time>
      </trkpt>
      <trkpt lat="48.41942" lon="2.66563">
        <ele>129.92</ele>
        <time>2017-03-19T09:38:05Z</time>
      </trkpt>
      <trkpt lat="48.41947" lon="2.66521">
        <ele>130.88</ele>
        <time>2017-03-19T09:38:12Z</time>
      </trkpt>
      <trkpt lat="48.41957" lon="2.66467">
        <ele>130.88</ele>
        <time>2017-03-19T09:38:22Z</time>
      </trkpt>
      <trkpt lat="48.41962" lon="2.66438">
        <ele>131.84</ele>
        <time>2017-03-19T09:38:29Z</time>
      </trkpt>
      <trkpt lat="48.4197" lon="2.66395">
        <ele>132.8</ele>
        <time>2017-03-19T09:38:38Z</time>
      </trkpt>
      <trkpt lat="48.41971" lon="2.66372">
        <ele>133.76</ele>
        <time>2017-03-19T09:38:43Z</time>
      </trkpt>
      <trkpt lat="48.41977" lon="2.66354">
        <ele>133.28</ele>
        <time>2017-03-19T09:38:47Z</time>
      </trkpt>
      <trkpt lat="48.41979" lon="2.66331">
        <ele>133.28</ele>
        <time>2017-03-19T09:38:52Z</time>
      </trkpt>
      <trkpt lat="48.41986" lon="2.66292">
        <ele>133.28</ele>
        <time>2017-03-19T09:39:00Z</time>
      </trkpt>
      <trkpt lat="48.4199" lon="2.66274">
        <ele>135.2</ele>
        <time>2017-03-19T09:39:03Z</time>
      </trkpt>
      <trkpt lat="48.42" lon="2.66227">
        <ele>136.64</ele>
        <time>2017-03-19T09:39:12Z</time>
      </trkpt>
      <trkpt lat="48.42004" lon="2.66201">
        <ele>139.05</ele>
        <time>2017-03-19T09:39:17Z</time>
      </trkpt>
      <trkpt lat="48.4201" lon="2.66171">
        <ele>138.57</ele>
        <time>2017-03-19T09:39:24Z</time>
      </trkpt>
      <trkpt lat="48.42013" lon="2.66146">
        <ele>137.61</ele>
        <time>2017-03-19T09:39:30Z</time>
      </trkpt>
      <trkpt lat="48.42018" lon="2.66105">
        <ele>139.05</ele>
        <time>2017-03-19T09:39:39Z</time>
      </trkpt>
      <trkpt lat="48.42019" lon="2.66096">
        <ele>139.53</ele>
        <time>2017-03-19T09:39:41Z</time>
      </trkpt>
      <trkpt lat="48.42026" lon="2.66053">
        <ele>140.49</ele>
        <time>2017-03-19T09:39:50Z</time>
      </trkpt>
      <trkpt lat="48.42026" lon="2.66011">
        <ele>140.01</ele>
        <time>2017-03-19T09:40:00Z</time>
      </trkpt>
      <trkpt lat="48.42031" lon="2.6598">
        <ele>139.53</ele>
        <time>2017-03-19T09:40:07Z</time>
      </trkpt>
      <trkpt lat="48.42036" lon="2.65947">
        <ele>139.53</ele>
        <time>2017-03-19T09:40:14Z</time>
      </trkpt>
      <trkpt lat="48.42039" lon="2.65936">
        <ele>139.53</ele>
        <time>2017-03-19T09:40:16Z</time>
      </trkpt>
      <trkpt lat="48.42042" lon="2.6591">
        <ele>138.09</ele>
        <time>2017-03-19T09:40:20Z</time>
      </trkpt>
      <trkpt lat="48.42054" lon="2.65846">
        <ele>135.2</ele>
        <time>2017-03-19T09:40:29Z</time>
      </trkpt>
      <trkpt lat="48.42057" lon="2.65823">
        <ele>134.72</ele>
        <time>2017-03-19T09:40:32Z</time>
      </trkpt>
      <trkpt lat="48.42067" lon="2.65762">
        <ele>135.68</ele>
        <time>2017-03-19T09:40:40Z</time>
      </trkpt>
      <trkpt lat="48.42069" lon="2.65754">
        <ele>136.16</ele>
        <time>2017-03-19T09:40:41Z</time>
      </trkpt>
      <trkpt lat="48.42079" lon="2.657">
        <ele>139.05</ele>
        <time>2017-03-19T09:40:48Z</time>
      </trkpt>
      <trkpt lat="48.42082" lon="2.65685">
        <ele>140.01</ele>
        <time>2017-03-19T09:40:50Z</time>
      </trkpt>
      <trkpt lat="48.42095" lon="2.65647">
        <ele>139.53</ele>
        <time>2017-03-19T09:40:56Z</time>
      </trkpt>
      <trkpt lat="48.42099" lon="2.65634">
        <ele>139.53</ele>
        <time>2017-03-19T09:40:58Z</time>
      </trkpt>
      <trkpt lat="48.42103" lon="2.6561">
        <ele>139.05</ele>
        <time>2017-03-19T09:41:01Z</time>
      </trkpt>
      <trkpt lat="48.42106" lon="2.65569">
        <ele>140.01</ele>
        <time>2017-03-19T09:41:06Z</time>
      </trkpt>
      <trkpt lat="48.42117" lon="2.65538">
        <ele>140.49</ele>
        <time>2017-03-19T09:41:11Z</time>
      </trkpt>
      <trkpt lat="48.42125" lon="2.65489">
        <ele>141.45</ele>
        <time>2017-03-19T09:41:17Z</time>
      </trkpt>
      <trkpt lat="48.42125" lon="2.65466">
        <ele>141.45</ele>
        <time>2017-03-19T09:41:20Z</time>
      </trkpt>
      <trkpt lat="48.42126" lon="2.65436">
        <ele>141.93</ele>
        <time>2017-03-19T09:41:24Z</time>
      </trkpt>
      <trkpt lat="48.42131" lon="2.65408">
        <ele>140.97</ele>
        <time>2017-03-19T09:41:28Z</time>
      </trkpt>
      <trkpt lat="48.42138" lon="2.65372">
        <ele>140.49</ele>
        <time>2017-03-19T09:41:33Z</time>
      </trkpt>
      <trkpt lat="48.42149" lon="2.65306">
        <ele>139.53</ele>
        <time>2017-03-19T09:41:43Z</time>
      </trkpt>
      <trkpt lat="48.42155" lon="2.65283">
        <ele>143.37</ele>
        <time>2017-03-19T09:41:49Z</time>
      </trkpt>
      <trkpt lat="48.42161" lon="2.65274">
        <ele>144.82</ele>
        <time>2017-03-19T09:41:59Z</time>
      </trkpt>
      <trkpt lat="48.42161" lon="2.65272">
        <ele>144.82</ele>
        <time>2017-03-19T09:42:13Z</time>
      </trkpt>
      <trkpt lat="48.42161" lon="2.6527">
        <ele>144.34</ele>
        <time>2017-03-19T09:42:15Z</time>
      </trkpt>
      <trkpt lat="48.42177" lon="2.65247">
        <ele>141.93</ele>
        <time>2017-03-19T09:42:23Z</time>
      </trkpt>
      <trkpt lat="48.42212" lon="2.65201">
        <ele>128.47</ele>
        <time>2017-03-19T09:42:35Z</time>
      </trkpt>
      <trkpt lat="48.42231" lon="2.65175">
        <ele>118.86</ele>
        <time>2017-03-19T09:42:41Z</time>
      </trkpt>
      <trkpt lat="48.42259" lon="2.65138">
        <ele>118.86</ele>
        <time>2017-03-19T09:42:48Z</time>
      </trkpt>
      <trkpt lat="48.42296" lon="2.6509">
        <ele>116.94</ele>
        <time>2017-03-19T09:42:57Z</time>
      </trkpt>
      <trkpt lat="48.42341" lon="2.65033">
        <ele>111.65</ele>
        <time>2017-03-19T09:43:08Z</time>
      </trkpt>
      <trkpt lat="48.42382" lon="2.6498">
        <ele>104.44</ele>
        <time>2017-03-19T09:43:18Z</time>
      </trkpt>
      <trkpt lat="48.42411" lon="2.64943">
        <ele>100.6</ele>
        <time>2017-03-19T09:43:25Z</time>
      </trkpt>
      <trkpt lat="48.42429" lon="2.64925">
        <ele>99.15</ele>
        <time>2017-03-19T09:43:29Z</time>
      </trkpt>
      <trkpt lat="48.42437" lon="2.64915">
        <ele>98.67</ele>
        <time>2017-03-19T09:43:31Z</time>
      </trkpt>
      <trkpt lat="48.42485" lon="2.64853">
        <ele>98.67</ele>
        <time>2017-03-19T09:43:40Z</time>
      </trkpt>
      <trkpt lat="48.42538" lon="2.6479">
        <ele>99.15</ele>
        <time>2017-03-19T09:43:48Z</time>
      </trkpt>
      <trkpt lat="48.42563" lon="2.64758">
        <ele>101.56</ele>
        <time>2017-03-19T09:43:53Z</time>
      </trkpt>
      <trkpt lat="48.42563" lon="2.64746">
        <ele>102.52</ele>
        <time>2017-03-19T09:43:56Z</time>
      </trkpt>
      <trkpt lat="48.42559" lon="2.64732">
        <ele>102.04</ele>
        <time>2017-03-19T09:44:00Z</time>
      </trkpt>
      <trkpt lat="48.42549" lon="2.64704">
        <ele>101.08</ele>
        <time>2017-03-19T09:44:04Z</time>
      </trkpt>
      <trkpt lat="48.4254" lon="2.64685">
        <ele>100.11</ele>
        <time>2017-03-19T09:44:06Z</time>
      </trkpt>
      <trkpt lat="48.425" lon="2.64605">
        <ele>98.67</ele>
        <time>2017-03-19T09:44:15Z</time>
      </trkpt>
      <trkpt lat="48.42482" lon="2.64572">
        <ele>97.71</ele>
        <time>2017-03-19T09:44:19Z</time>
      </trkpt>
      <trkpt lat="48.42461" lon="2.64528">
        <ele>98.67</ele>
        <time>2017-03-19T09:44:25Z</time>
      </trkpt>
      <trkpt lat="48.42438" lon="2.64477">
        <ele>101.08</ele>
        <time>2017-03-19T09:44:32Z</time>
      </trkpt>
      <trkpt lat="48.42433" lon="2.64462">
        <ele>101.08</ele>
        <time>2017-03-19T09:44:34Z</time>
      </trkpt>
      <trkpt lat="48.42425" lon="2.64435">
        <ele>100.11</ele>
        <time>2017-03-19T09:44:38Z</time>
      </trkpt>
      <trkpt lat="48.42419" lon="2.64405">
        <ele>98.67</ele>
        <time>2017-03-19T09:44:42Z</time>
      </trkpt>
      <trkpt lat="48.42426" lon="2.64366">
        <ele>98.19</ele>
        <time>2017-03-19T09:44:48Z</time>
      </trkpt>
      <trkpt lat="48.42442" lon="2.64332">
        <ele>98.19</ele>
        <time>2017-03-19T09:44:57Z</time>
      </trkpt>
      <trkpt lat="48.42452" lon="2.64328">
        <ele>100.11</ele>
        <time>2017-03-19T09:45:04Z</time>
      </trkpt>
      <trkpt lat="48.42458" lon="2.64329">
        <ele>102.52</ele>
        <time>2017-03-19T09:45:10Z</time>
      </trkpt>
      <trkpt lat="48.42473" lon="2.64338">
        <ele>106.36</ele>
        <time>2017-03-19T09:45:20Z</time>
      </trkpt>
      <trkpt lat="48.42475" lon="2.64339">
        <ele>107.32</ele>
        <time>2017-03-19T09:45:21Z</time>
      </trkpt>
      <trkpt lat="48.42488" lon="2.64342">
        <ele>110.69</ele>
        <time>2017-03-19T09:45:31Z</time>
      </trkpt>
      <trkpt lat="48.42493" lon="2.6434">
        <ele>112.13</ele>
        <time>2017-03-19T09:45:36Z</time>
      </trkpt>
      <trkpt lat="48.425" lon="2.64325">
        <ele>113.09</ele>
        <time>2017-03-19T09:45:47Z</time>
      </trkpt>
      <trkpt lat="48.42503" lon="2.64317">
        <ele>111.17</ele>
        <time>2017-03-19T09:45:53Z</time>
      </trkpt>
      <trkpt lat="48.42505" lon="2.64298">
        <ele>115.98</ele>
        <time>2017-03-19T09:46:04Z</time>
      </trkpt>
      <trkpt lat="48.42507" lon="2.64282">
        <ele>117.42</ele>
        <time>2017-03-19T09:46:15Z</time>
      </trkpt>
      <trkpt lat="48.42508" lon="2.64266">
        <ele>119.82</ele>
        <time>2017-03-19T09:46:25Z</time>
      </trkpt>
      <trkpt lat="48.42508" lon="2.64251">
        <ele>122.22</ele>
        <time>2017-03-19T09:46:35Z</time>
      </trkpt>
      <trkpt lat="48.42509" lon="2.64248">
        <ele>123.19</ele>
        <time>2017-03-19T09:46:37Z</time>
      </trkpt>
      <trkpt lat="48.42508" lon="2.64235">
        <ele>125.59</ele>
        <time>2017-03-19T09:46:45Z</time>
      </trkpt>
      <trkpt lat="48.4251" lon="2.64222">
        <ele>127.03</ele>
        <time>2017-03-19T09:46:54Z</time>
      </trkpt>
      <trkpt lat="48.4251" lon="2.64222">
        <ele>127.51</ele>
        <time>2017-03-19T09:46:55Z</time>
      </trkpt>
      <trkpt lat="48.42514" lon="2.64206">
        <ele>129.43</ele>
        <time>2017-03-19T09:47:06Z</time>
      </trkpt>
      <trkpt lat="48.42517" lon="2.642">
        <ele>130.88</ele>
        <time>2017-03-19T09:47:11Z</time>
      </trkpt>
      <trkpt lat="48.42524" lon="2.64187">
        <ele>134.72</ele>
        <time>2017-03-19T09:47:18Z</time>
      </trkpt>
      <trkpt lat="48.42525" lon="2.64185">
        <ele>135.2</ele>
        <time>2017-03-19T09:47:20Z</time>
      </trkpt>
      <trkpt lat="48.42532" lon="2.64171">
        <ele>135.2</ele>
        <time>2017-03-19T09:47:31Z</time>
      </trkpt>
      <trkpt lat="48.42539" lon="2.64161">
        <ele>132.32</ele>
        <time>2017-03-19T09:47:40Z</time>
      </trkpt>
      <trkpt lat="48.42549" lon="2.64149">
        <ele>130.88</ele>
        <time>2017-03-19T09:47:48Z</time>
      </trkpt>
      <trkpt lat="48.42561" lon="2.64135">
        <ele>127.99</ele>
        <time>2017-03-19T09:47:56Z</time>
      </trkpt>
      <trkpt lat="48.42581" lon="2.64112">
        <ele>127.99</ele>
        <time>2017-03-19T09:48:05Z</time>
      </trkpt>
      <trkpt lat="48.42586" lon="2.64105">
        <ele>127.03</ele>
        <time>2017-03-19T09:48:07Z</time>
      </trkpt>
      <trkpt lat="48.42611" lon="2.64077">
        <ele>127.99</ele>
        <time>2017-03-19T09:48:16Z</time>
      </trkpt>
      <trkpt lat="48.42624" lon="2.64062">
        <ele>128.95</ele>
        <time>2017-03-19T09:48:21Z</time>
      </trkpt>
      <trkpt lat="48.42635" lon="2.64048">
        <ele>128.95</ele>
        <time>2017-03-19T09:48:25Z</time>
      </trkpt>
      <trkpt lat="48.42657" lon="2.64014">
        <ele>127.99</ele>
        <time>2017-03-19T09:48:35Z</time>
      </trkpt>
      <trkpt lat="48.42667" lon="2.63973">
        <ele>131.84</ele>
        <time>2017-03-19T09:48:44Z</time>
      </trkpt>
      <trkpt lat="48.42673" lon="2.63962">
        <ele>133.76</ele>
        <time>2017-03-19T09:48:48Z</time>
      </trkpt>
      <trkpt lat="48.42677" lon="2.63928">
        <ele>133.28</ele>
        <time>2017-03-19T09:48:54Z</time>
      </trkpt>
      <trkpt lat="48.42678" lon="2.63897">
        <ele>133.28</ele>
        <time>2017-03-19T09:48:59Z</time>
      </trkpt>
      <trkpt lat="48.42689" lon="2.63859">
        <ele>135.2</ele>
        <time>2017-03-19T09:49:07Z</time>
      </trkpt>
      <trkpt lat="48.42693" lon="2.63816">
        <ele>133.76</ele>
        <time>2017-03-19T09:49:14Z</time>
      </trkpt>
      <trkpt lat="48.42694" lon="2.6381">
        <ele>133.76</ele>
        <time>2017-03-19T09:49:15Z</time>
      </trkpt>
      <trkpt lat="48.42698" lon="2.63762">
        <ele>133.76</ele>
        <time>2017-03-19T09:49:23Z</time>
      </trkpt>
      <trkpt lat="48.42703" lon="2.63701">
        <ele>134.72</ele>
        <time>2017-03-19T09:49:33Z</time>
      </trkpt>
      <trkpt lat="48.42708" lon="2.63655">
        <ele>138.09</ele>
        <time>2017-03-19T09:49:41Z</time>
      </trkpt>
      <trkpt lat="48.42711" lon="2.63626">
        <ele>140.01</ele>
        <time>2017-03-19T09:49:46Z</time>
      </trkpt>
      <trkpt lat="48.42721" lon="2.63573">
        <ele>145.78</ele>
        <time>2017-03-19T09:49:56Z</time>
      </trkpt>
      <trkpt lat="48.42723" lon="2.6356">
        <ele>146.26</ele>
        <time>2017-03-19T09:49:58Z</time>
      </trkpt>
      <trkpt lat="48.42733" lon="2.63502">
        <ele>148.66</ele>
        <time>2017-03-19T09:50:08Z</time>
      </trkpt>
      <trkpt lat="48.42734" lon="2.63496">
        <ele>149.14</ele>
        <time>2017-03-19T09:50:09Z</time>
      </trkpt>
      <trkpt lat="48.42736" lon="2.63463">
        <ele>150.1</ele>
        <time>2017-03-19T09:50:14Z</time>
      </trkpt>
      <trkpt lat="48.42743" lon="2.63401">
        <ele>148.18</ele>
        <time>2017-03-19T09:50:24Z</time>
      </trkpt>
      <trkpt lat="48.42745" lon="2.63384">
        <ele>146.74</ele>
        <time>2017-03-19T09:50:27Z</time>
      </trkpt>
      <trkpt lat="48.42752" lon="2.6334">
        <ele>143.37</ele>
        <time>2017-03-19T09:50:36Z</time>
      </trkpt>
      <trkpt lat="48.42756" lon="2.63293">
        <ele>143.85</ele>
        <time>2017-03-19T09:50:45Z</time>
      </trkpt>
      <trkpt lat="48.42758" lon="2.63256">
        <ele>145.78</ele>
        <time>2017-03-19T09:50:52Z</time>
      </trkpt>
      <trkpt lat="48.42765" lon="2.63229">
        <ele>148.18</ele>
        <time>2017-03-19T09:50:58Z</time>
      </trkpt>
      <trkpt lat="48.42771" lon="2.63212">
        <ele>149.62</ele>
        <time>2017-03-19T09:51:02Z</time>
      </trkpt>
      <trkpt lat="48.42783" lon="2.63168">
        <ele>152.03</ele>
        <time>2017-03-19T09:51:12Z</time>
      </trkpt>
      <trkpt lat="48.42784" lon="2.63132">
        <ele>153.47</ele>
        <time>2017-03-19T09:51:19Z</time>
      </trkpt>
      <trkpt lat="48.42786" lon="2.63098">
        <ele>157.79</ele>
        <time>2017-03-19T09:51:27Z</time>
      </trkpt>
      <trkpt lat="48.42786" lon="2.63093">
        <ele>157.79</ele>
        <time>2017-03-19T09:51:28Z</time>
      </trkpt>
      <trkpt lat="48.42792" lon="2.63042">
        <ele>160.2</ele>
        <time>2017-03-19T09:51:39Z</time>
      </trkpt>
      <trkpt lat="48.42797" lon="2.63004">
        <ele>158.75</ele>
        <time>2017-03-19T09:51:47Z</time>
      </trkpt>
      <trkpt lat="48.42802" lon="2.62989">
        <ele>159.24</ele>
        <time>2017-03-19T09:51:51Z</time>
      </trkpt>
      <trkpt lat="48.4279" lon="2.62945">
        <ele>151.54</ele>
        <time>2017-03-19T09:51:58Z</time>
      </trkpt>
      <trkpt lat="48.42777" lon="2.62914">
        <ele>149.14</ele>
        <time>2017-03-19T09:52:04Z</time>
      </trkpt>
      <trkpt lat="48.4276" lon="2.6287">
        <ele>146.26</ele>
        <time>2017-03-19T09:52:11Z</time>
      </trkpt>
      <trkpt lat="48.42757" lon="2.62864">
        <ele>146.26</ele>
        <time>2017-03-19T09:52:12Z</time>
      </trkpt>
      <trkpt lat="48.42741" lon="2.62824">
        <ele>147.7</ele>
        <time>2017-03-19T09:52:19Z</time>
      </trkpt>
      <trkpt lat="48.42732" lon="2.62799">
        <ele>147.22</ele>
        <time>2017-03-19T09:52:22Z</time>
      </trkpt>
      <trkpt lat="48.4269" lon="2.62704">
        <ele>141.93</ele>
        <time>2017-03-19T09:52:33Z</time>
      </trkpt>
      <trkpt lat="48.42653" lon="2.62636">
        <ele>137.61</ele>
        <time>2017-03-19T09:52:41Z</time>
      </trkpt>
      <trkpt lat="48.42639" lon="2.6261">
        <ele>135.68</ele>
        <time>2017-03-19T09:52:44Z</time>
      </trkpt>
      <trkpt lat="48.4259" lon="2.62524">
        <ele>127.03</ele>
        <time>2017-03-19T09:52:53Z</time>
      </trkpt>
      <trkpt lat="48.42532" lon="2.62417">
        <ele>118.86</ele>
        <time>2017-03-19T09:53:02Z</time>
      </trkpt>
      <trkpt lat="48.42484" lon="2.62331">
        <ele>112.61</ele>
        <time>2017-03-19T09:53:11Z</time>
      </trkpt>
      <trkpt lat="48.4247" lon="2.62307">
        <ele>110.69</ele>
        <time>2017-03-19T09:53:14Z</time>
      </trkpt>
      <trkpt lat="48.42436" lon="2.62248">
        <ele>107.32</ele>
        <time>2017-03-19T09:53:22Z</time>
      </trkpt>
      <trkpt lat="48.42432" lon="2.62241">
        <ele>106.84</ele>
        <time>2017-03-19T09:53:23Z</time>
      </trkpt>
      <trkpt lat="48.424" lon="2.62182">
        <ele>103.48</ele>
        <time>2017-03-19T09:53:31Z</time>
      </trkpt>
      <trkpt lat="48.42372" lon="2.62129">
        <ele>102.04</ele>
        <time>2017-03-19T09:53:38Z</time>
      </trkpt>
      <trkpt lat="48.42356" lon="2.62099">
        <ele>99.63</ele>
        <time>2017-03-19T09:53:42Z</time>
      </trkpt>
      <trkpt lat="48.42345" lon="2.62079">
        <ele>97.71</ele>
        <time>2017-03-19T09:53:45Z</time>
      </trkpt>
      <trkpt lat="48.42315" lon="2.6207">
        <ele>93.87</ele>
        <time>2017-03-19T09:53:51Z</time>
      </trkpt>
      <trkpt lat="48.4231" lon="2.62073">
        <ele>92.42</ele>
        <time>2017-03-19T09:53:52Z</time>
      </trkpt>
      <trkpt lat="48.42253" lon="2.621">
        <ele>83.29</ele>
        <time>2017-03-19T09:54:02Z</time>
      </trkpt>
      <trkpt lat="48.422" lon="2.6213">
        <ele>75.12</ele>
        <time>2017-03-19T09:54:12Z</time>
      </trkpt>
      <trkpt lat="48.42152" lon="2.62157">
        <ele>69.35</ele>
        <time>2017-03-19T09:54:21Z</time>
      </trkpt>
      <trkpt lat="48.42104" lon="2.62184">
        <ele>63.58</ele>
        <time>2017-03-19T09:54:30Z</time>
      </trkpt>
      <trkpt lat="48.4206" lon="2.6221">
        <ele>61.66</ele>
        <time>2017-03-19T09:54:38Z</time>
      </trkpt>
      <trkpt lat="48.42055" lon="2.62213">
        <ele>61.66</ele>
        <time>2017-03-19T09:54:39Z</time>
      </trkpt>
      <trkpt lat="48.42037" lon="2.62223">
        <ele>62.14</ele>
        <time>2017-03-19T09:54:43Z</time>
      </trkpt>
      <trkpt lat="48.42008" lon="2.62241">
        <ele>61.66</ele>
        <time>2017-03-19T09:54:51Z</time>
      </trkpt>
      <trkpt lat="48.41994" lon="2.62248">
        <ele>59.26</ele>
        <time>2017-03-19T09:54:55Z</time>
      </trkpt>
      <trkpt lat="48.41976" lon="2.62261">
        <ele>60.22</ele>
        <time>2017-03-19T09:55:01Z</time>
      </trkpt>
      <trkpt lat="48.41974" lon="2.62263">
        <ele>60.7</ele>
        <time>2017-03-19T09:55:02Z</time>
      </trkpt>
      <trkpt lat="48.41942" lon="2.62285">
        <ele>65.03</ele>
        <time>2017-03-19T09:55:11Z</time>
      </trkpt>
      <trkpt lat="48.41917" lon="2.62298">
        <ele>65.99</ele>
        <time>2017-03-19T09:55:19Z</time>
      </trkpt>
      <trkpt lat="48.41907" lon="2.62302">
        <ele>65.51</ele>
        <time>2017-03-19T09:55:22Z</time>
      </trkpt>
      <trkpt lat="48.41883" lon="2.62319">
        <ele>68.39</ele>
        <time>2017-03-19T09:55:30Z</time>
      </trkpt>
      <trkpt lat="48.41857" lon="2.62333">
        <ele>70.31</ele>
        <time>2017-03-19T09:55:38Z</time>
      </trkpt>
      <trkpt lat="48.41826" lon="2.62351">
        <ele>75.6</ele>
        <time>2017-03-19T09:55:47Z</time>
      </trkpt>
      <trkpt lat="48.41791" lon="2.62372">
        <ele>80.41</ele>
        <time>2017-03-19T09:55:57Z</time>
      </trkpt>
      <trkpt lat="48.41758" lon="2.6239">
        <ele>81.37</ele>
        <time>2017-03-19T09:56:07Z</time>
      </trkpt>
      <trkpt lat="48.41724" lon="2.62412">
        <ele>82.33</ele>
        <time>2017-03-19T09:56:18Z</time>
      </trkpt>
      <trkpt lat="48.41698" lon="2.62428">
        <ele>80.89</ele>
        <time>2017-03-19T09:56:27Z</time>
      </trkpt>
      <trkpt lat="48.41669" lon="2.62447">
        <ele>81.37</ele>
        <time>2017-03-19T09:56:38Z</time>
      </trkpt>
      <trkpt lat="48.41649" lon="2.6246">
        <ele>81.85</ele>
        <time>2017-03-19T09:56:46Z</time>
      </trkpt>
      <trkpt lat="48.41621" lon="2.62477">
        <ele>84.25</ele>
        <time>2017-03-19T09:56:57Z</time>
      </trkpt>
      <trkpt lat="48.41597" lon="2.62489">
        <ele>86.18</ele>
        <time>2017-03-19T09:57:08Z</time>
      </trkpt>
      <trkpt lat="48.41592" lon="2.62492">
        <ele>87.14</ele>
        <time>2017-03-19T09:57:11Z</time>
      </trkpt>
      <trkpt lat="48.41584" lon="2.62495">
        <ele>90.02</ele>
        <time>2017-03-19T09:57:22Z</time>
      </trkpt>
      <trkpt lat="48.41584" lon="2.62495">
        <ele>90.98</ele>
        <time>2017-03-19T09:57:23Z</time>
      </trkpt>
      <trkpt lat="48.41573" lon="2.6248">
        <ele>94.83</ele>
        <time>2017-03-19T09:57:31Z</time>
      </trkpt>
      <trkpt lat="48.41575" lon="2.62453">
        <ele>96.75</ele>
        <time>2017-03-19T09:57:40Z</time>
      </trkpt>
      <trkpt lat="48.41576" lon="2.62443">
        <ele>97.71</ele>
        <time>2017-03-19T09:57:43Z</time>
      </trkpt>
      <trkpt lat="48.41576" lon="2.62436">
        <ele>97.71</ele>
        <time>2017-03-19T09:57:45Z</time>
      </trkpt>
      <trkpt lat="48.41578" lon="2.62427">
        <ele>98.19</ele>
        <time>2017-03-19T09:57:48Z</time>
      </trkpt>
      <trkpt lat="48.41581" lon="2.62416">
        <ele>98.67</ele>
        <time>2017-03-19T09:57:52Z</time>
      </trkpt>
      <trkpt lat="48.41584" lon="2.62374">
        <ele>102.04</ele>
        <time>2017-03-19T09:58:02Z</time>
      </trkpt>
      <trkpt lat="48.41586" lon="2.62346">
        <ele>102.04</ele>
        <time>2017-03-19T09:58:08Z</time>
      </trkpt>
      <trkpt lat="48.41588" lon="2.62329">
        <ele>102.52</ele>
        <time>2017-03-19T09:58:12Z</time>
      </trkpt>
      <trkpt lat="48.41591" lon="2.62288">
        <ele>103</ele>
        <time>2017-03-19T09:58:21Z</time>
      </trkpt>
      <trkpt lat="48.41593" lon="2.62257">
        <ele>102.04</ele>
        <time>2017-03-19T09:58:27Z</time>
      </trkpt>
      <trkpt lat="48.41597" lon="2.62213">
        <ele>102.04</ele>
        <time>2017-03-19T09:58:37Z</time>
      </trkpt>
      <trkpt lat="48.41598" lon="2.622">
        <ele>103</ele>
        <time>2017-03-19T09:58:40Z</time>
      </trkpt>
      <trkpt lat="48.41601" lon="2.62165">
        <ele>103</ele>
        <time>2017-03-19T09:58:48Z</time>
      </trkpt>
      <trkpt lat="48.41606" lon="2.62134">
        <ele>104.92</ele>
        <time>2017-03-19T09:58:56Z</time>
      </trkpt>
      <trkpt lat="48.41606" lon="2.62106">
        <ele>104.92</ele>
        <time>2017-03-19T09:59:02Z</time>
      </trkpt>
      <trkpt lat="48.41606" lon="2.62096">
        <ele>104.92</ele>
        <time>2017-03-19T09:59:04Z</time>
      </trkpt>
      <trkpt lat="48.41606" lon="2.62083">
        <ele>105.4</ele>
        <time>2017-03-19T09:59:07Z</time>
      </trkpt>
      <trkpt lat="48.41609" lon="2.62047">
        <ele>107.32</ele>
        <time>2017-03-19T09:59:15Z</time>
      </trkpt>
      <trkpt lat="48.4161" lon="2.62033">
        <ele>107.32</ele>
        <time>2017-03-19T09:59:18Z</time>
      </trkpt>
      <trkpt lat="48.41614" lon="2.61992">
        <ele>104.92</ele>
        <time>2017-03-19T09:59:28Z</time>
      </trkpt>
      <trkpt lat="48.41619" lon="2.61947">
        <ele>103.96</ele>
        <time>2017-03-19T09:59:37Z</time>
      </trkpt>
      <trkpt lat="48.41626" lon="2.61908">
        <ele>104.92</ele>
        <time>2017-03-19T09:59:44Z</time>
      </trkpt>
      <trkpt lat="48.4163" lon="2.61883">
        <ele>105.4</ele>
        <time>2017-03-19T09:59:48Z</time>
      </trkpt>
      <trkpt lat="48.41632" lon="2.61862">
        <ele>106.84</ele>
        <time>2017-03-19T09:59:51Z</time>
      </trkpt>
      <trkpt lat="48.41632" lon="2.61824">
        <ele>106.84</ele>
        <time>2017-03-19T09:59:56Z</time>
      </trkpt>
      <trkpt lat="48.41639" lon="2.61741">
        <ele>103</ele>
        <time>2017-03-19T10:00:06Z</time>
      </trkpt>
      <trkpt lat="48.4164" lon="2.61725">
        <ele>102.52</ele>
        <time>2017-03-19T10:00:08Z</time>
      </trkpt>
      <trkpt lat="48.41644" lon="2.61677">
        <ele>100.11</ele>
        <time>2017-03-19T10:00:14Z</time>
      </trkpt>
      <trkpt lat="48.41644" lon="2.61653">
        <ele>99.63</ele>
        <time>2017-03-19T10:00:17Z</time>
      </trkpt>
      <trkpt lat="48.41648" lon="2.61589">
        <ele>95.79</ele>
        <time>2017-03-19T10:00:25Z</time>
      </trkpt>
      <trkpt lat="48.41651" lon="2.61547">
        <ele>94.83</ele>
        <time>2017-03-19T10:00:30Z</time>
      </trkpt>
      <trkpt lat="48.41655" lon="2.61504">
        <ele>94.83</ele>
        <time>2017-03-19T10:00:35Z</time>
      </trkpt>
      <trkpt lat="48.41658" lon="2.61465">
        <ele>96.27</ele>
        <time>2017-03-19T10:00:40Z</time>
      </trkpt>
      <trkpt lat="48.41661" lon="2.61399">
        <ele>98.19</ele>
        <time>2017-03-19T10:00:49Z</time>
      </trkpt>
      <trkpt lat="48.41663" lon="2.61368">
        <ele>97.71</ele>
        <time>2017-03-19T10:00:54Z</time>
      </trkpt>
      <trkpt lat="48.41665" lon="2.61336">
        <ele>98.19</ele>
        <time>2017-03-19T10:00:59Z</time>
      </trkpt>
      <trkpt lat="48.41669" lon="2.61274">
        <ele>100.6</ele>
        <time>2017-03-19T10:01:09Z</time>
      </trkpt>
      <trkpt lat="48.41669" lon="2.6123">
        <ele>101.56</ele>
        <time>2017-03-19T10:01:17Z</time>
      </trkpt>
      <trkpt lat="48.41667" lon="2.61206">
        <ele>102.04</ele>
        <time>2017-03-19T10:01:22Z</time>
      </trkpt>
      <trkpt lat="48.41667" lon="2.61167">
        <ele>98.67</ele>
        <time>2017-03-19T10:01:31Z</time>
      </trkpt>
      <trkpt lat="48.41665" lon="2.61142">
        <ele>98.67</ele>
        <time>2017-03-19T10:01:35Z</time>
      </trkpt>
      <trkpt lat="48.41664" lon="2.61114">
        <ele>97.71</ele>
        <time>2017-03-19T10:01:40Z</time>
      </trkpt>
      <trkpt lat="48.41657" lon="2.61041">
        <ele>94.83</ele>
        <time>2017-03-19T10:01:48Z</time>
      </trkpt>
      <trkpt lat="48.41647" lon="2.60967">
        <ele>91.46</ele>
        <time>2017-03-19T10:01:54Z</time>
      </trkpt>
      <trkpt lat="48.41629" lon="2.60835">
        <ele>85.69</ele>
        <time>2017-03-19T10:02:05Z</time>
      </trkpt>
      <trkpt lat="48.41628" lon="2.60824">
        <ele>85.69</ele>
        <time>2017-03-19T10:02:06Z</time>
      </trkpt>
      <trkpt lat="48.41624" lon="2.60795">
        <ele>85.21</ele>
        <time>2017-03-19T10:02:09Z</time>
      </trkpt>
      <trkpt lat="48.41622" lon="2.60772">
        <ele>84.25</ele>
        <time>2017-03-19T10:02:15Z</time>
      </trkpt>
      <trkpt lat="48.41624" lon="2.60768">
        <ele>82.81</ele>
        <time>2017-03-19T10:02:26Z</time>
      </trkpt>
      <trkpt lat="48.41626" lon="2.60764">
        <ele>83.29</ele>
        <time>2017-03-19T10:02:36Z</time>
      </trkpt>
      <trkpt lat="48.41626" lon="2.60764">
        <ele>84.73</ele>
        <time>2017-03-19T10:02:54Z</time>
      </trkpt>
      <trkpt lat="48.41627" lon="2.60766">
        <ele>84.73</ele>
        <time>2017-03-19T10:03:10Z</time>
      </trkpt>
      <trkpt lat="48.41628" lon="2.60762">
        <ele>85.69</ele>
        <time>2017-03-19T10:03:21Z</time>
      </trkpt>
      <trkpt lat="48.41628" lon="2.6076">
        <ele>87.62</ele>
        <time>2017-03-19T10:03:35Z</time>
      </trkpt>
      <trkpt lat="48.41621" lon="2.60758">
        <ele>88.1</ele>
        <time>2017-03-19T10:03:46Z</time>
      </trkpt>
      <trkpt lat="48.41618" lon="2.60761">
        <ele>87.62</ele>
        <time>2017-03-19T10:03:56Z</time>
      </trkpt>
      <trkpt lat="48.41617" lon="2.60758">
        <ele>88.1</ele>
        <time>2017-03-19T10:04:04Z</time>
      </trkpt>
      <trkpt lat="48.41616" lon="2.60756">
        <ele>88.1</ele>
        <time>2017-03-19T10:04:08Z</time>
      </trkpt>
      <trkpt lat="48.41615" lon="2.60754">
        <ele>87.62</ele>
        <time>2017-03-19T10:04:10Z</time>
      </trkpt>
      <trkpt lat="48.41601" lon="2.6073">
        <ele>86.66</ele>
        <time>2017-03-19T10:04:17Z</time>
      </trkpt>
      <trkpt lat="48.41596" lon="2.6072">
        <ele>86.18</ele>
        <time>2017-03-19T10:04:19Z</time>
      </trkpt>
      <trkpt lat="48.41585" lon="2.607">
        <ele>87.14</ele>
        <time>2017-03-19T10:04:23Z</time>
      </trkpt>
      <trkpt lat="48.41571" lon="2.60674">
        <ele>87.62</ele>
        <time>2017-03-19T10:04:28Z</time>
      </trkpt>
      <trkpt lat="48.41555" lon="2.60645">
        <ele>87.62</ele>
        <time>2017-03-19T10:04:34Z</time>
      </trkpt>
      <trkpt lat="48.41531" lon="2.60604">
        <ele>84.25</ele>
        <time>2017-03-19T10:04:43Z</time>
      </trkpt>
      <trkpt lat="48.41503" lon="2.60554">
        <ele>83.29</ele>
        <time>2017-03-19T10:04:54Z</time>
      </trkpt>
      <trkpt lat="48.41483" lon="2.60517">
        <ele>83.29</ele>
        <time>2017-03-19T10:05:03Z</time>
      </trkpt>
      <trkpt lat="48.4147" lon="2.60496">
        <ele>83.77</ele>
        <time>2017-03-19T10:05:08Z</time>
      </trkpt>
      <trkpt lat="48.41446" lon="2.60453">
        <ele>86.18</ele>
        <time>2017-03-19T10:05:18Z</time>
      </trkpt>
      <trkpt lat="48.41421" lon="2.60409">
        <ele>88.58</ele>
        <time>2017-03-19T10:05:28Z</time>
      </trkpt>
      <trkpt lat="48.41405" lon="2.60378">
        <ele>90.5</ele>
        <time>2017-03-19T10:05:35Z</time>
      </trkpt>
      <trkpt lat="48.41384" lon="2.60343">
        <ele>88.58</ele>
        <time>2017-03-19T10:05:44Z</time>
      </trkpt>
      <trkpt lat="48.41383" lon="2.6034">
        <ele>88.1</ele>
        <time>2017-03-19T10:05:45Z</time>
      </trkpt>
      <trkpt lat="48.41361" lon="2.60298">
        <ele>85.69</ele>
        <time>2017-03-19T10:05:54Z</time>
      </trkpt>
      <trkpt lat="48.4134" lon="2.60258">
        <ele>84.25</ele>
        <time>2017-03-19T10:06:03Z</time>
      </trkpt>
      <trkpt lat="48.41321" lon="2.60226">
        <ele>82.33</ele>
        <time>2017-03-19T10:06:10Z</time>
      </trkpt>
      <trkpt lat="48.41309" lon="2.60202">
        <ele>80.89</ele>
        <time>2017-03-19T10:06:15Z</time>
      </trkpt>
      <trkpt lat="48.41307" lon="2.60197">
        <ele>80.89</ele>
        <time>2017-03-19T10:06:16Z</time>
      </trkpt>
      <trkpt lat="48.41305" lon="2.60192">
        <ele>80.89</ele>
        <time>2017-03-19T10:06:17Z</time>
      </trkpt>
      <trkpt lat="48.41276" lon="2.60142">
        <ele>81.37</ele>
        <time>2017-03-19T10:06:27Z</time>
      </trkpt>
      <trkpt lat="48.41274" lon="2.60137">
        <ele>81.37</ele>
        <time>2017-03-19T10:06:28Z</time>
      </trkpt>
      <trkpt lat="48.41271" lon="2.60131">
        <ele>81.37</ele>
        <time>2017-03-19T10:06:29Z</time>
      </trkpt>
      <trkpt lat="48.41247" lon="2.60088">
        <ele>80.41</ele>
        <time>2017-03-19T10:06:38Z</time>
      </trkpt>
      <trkpt lat="48.41244" lon="2.60082">
        <ele>80.41</ele>
        <time>2017-03-19T10:06:39Z</time>
      </trkpt>
      <trkpt lat="48.41218" lon="2.60037">
        <ele>78.48</ele>
        <time>2017-03-19T10:06:48Z</time>
      </trkpt>
      <trkpt lat="48.41215" lon="2.60032">
        <ele>78.48</ele>
        <time>2017-03-19T10:06:49Z</time>
      </trkpt>
      <trkpt lat="48.41213" lon="2.60027">
        <ele>78.48</ele>
        <time>2017-03-19T10:06:50Z</time>
      </trkpt>
      <trkpt lat="48.4121" lon="2.60021">
        <ele>78.48</ele>
        <time>2017-03-19T10:06:51Z</time>
      </trkpt>
      <trkpt lat="48.41207" lon="2.60016">
        <ele>78.48</ele>
        <time>2017-03-19T10:06:52Z</time>
      </trkpt>
      <trkpt lat="48.41204" lon="2.6001">
        <ele>78.97</ele>
        <time>2017-03-19T10:06:53Z</time>
      </trkpt>
      <trkpt lat="48.41201" lon="2.60005">
        <ele>78.97</ele>
        <time>2017-03-19T10:06:54Z</time>
      </trkpt>
      <trkpt lat="48.41198" lon="2.6">
        <ele>78.97</ele>
        <time>2017-03-19T10:06:55Z</time>
      </trkpt>
      <trkpt lat="48.41191" lon="2.59989">
        <ele>79.45</ele>
        <time>2017-03-19T10:06:57Z</time>
      </trkpt>
      <trkpt lat="48.41164" lon="2.59938">
        <ele>79.93</ele>
        <time>2017-03-19T10:07:07Z</time>
      </trkpt>
      <trkpt lat="48.41155" lon="2.59924">
        <ele>79.45</ele>
        <time>2017-03-19T10:07:10Z</time>
      </trkpt>
      <trkpt lat="48.41151" lon="2.59921">
        <ele>79.45</ele>
        <time>2017-03-19T10:07:11Z</time>
      </trkpt>
      <trkpt lat="48.41144" lon="2.59913">
        <ele>79.45</ele>
        <time>2017-03-19T10:07:16Z</time>
      </trkpt>
      <trkpt lat="48.4114" lon="2.59897">
        <ele>78.48</ele>
        <time>2017-03-19T10:07:21Z</time>
      </trkpt>
      <trkpt lat="48.41127" lon="2.59872">
        <ele>79.45</ele>
        <time>2017-03-19T10:07:27Z</time>
      </trkpt>
      <trkpt lat="48.41112" lon="2.59848">
        <ele>79.45</ele>
        <time>2017-03-19T10:07:33Z</time>
      </trkpt>
      <trkpt lat="48.41093" lon="2.59819">
        <ele>79.93</ele>
        <time>2017-03-19T10:07:39Z</time>
      </trkpt>
      <trkpt lat="48.41068" lon="2.5977">
        <ele>80.89</ele>
        <time>2017-03-19T10:07:48Z</time>
      </trkpt>
      <trkpt lat="48.41065" lon="2.59765">
        <ele>80.89</ele>
        <time>2017-03-19T10:07:49Z</time>
      </trkpt>
      <trkpt lat="48.41056" lon="2.59744">
        <ele>82.33</ele>
        <time>2017-03-19T10:07:53Z</time>
      </trkpt>
      <trkpt lat="48.4103" lon="2.59695">
        <ele>83.29</ele>
        <time>2017-03-19T10:08:03Z</time>
      </trkpt>
      <trkpt lat="48.41003" lon="2.59648">
        <ele>81.37</ele>
        <time>2017-03-19T10:08:13Z</time>
      </trkpt>
      <trkpt lat="48.40974" lon="2.59597">
        <ele>78</ele>
        <time>2017-03-19T10:08:23Z</time>
      </trkpt>
      <trkpt lat="48.40971" lon="2.59591">
        <ele>78</ele>
        <time>2017-03-19T10:08:24Z</time>
      </trkpt>
      <trkpt lat="48.40962" lon="2.59558">
        <ele>78</ele>
        <time>2017-03-19T10:08:30Z</time>
      </trkpt>
      <trkpt lat="48.40965" lon="2.59503">
        <ele>78.48</ele>
        <time>2017-03-19T10:08:38Z</time>
      </trkpt>
      <trkpt lat="48.40971" lon="2.59444">
        <ele>79.45</ele>
        <time>2017-03-19T10:08:47Z</time>
      </trkpt>
      <trkpt lat="48.40973" lon="2.59402">
        <ele>80.89</ele>
        <time>2017-03-19T10:08:55Z</time>
      </trkpt>
      <trkpt lat="48.40976" lon="2.59367">
        <ele>83.77</ele>
        <time>2017-03-19T10:09:03Z</time>
      </trkpt>
      <trkpt lat="48.40979" lon="2.59345">
        <ele>84.73</ele>
        <time>2017-03-19T10:09:07Z</time>
      </trkpt>
      <trkpt lat="48.40983" lon="2.59319">
        <ele>85.69</ele>
        <time>2017-03-19T10:09:11Z</time>
      </trkpt>
      <trkpt lat="48.40986" lon="2.59246">
        <ele>86.66</ele>
        <time>2017-03-19T10:09:21Z</time>
      </trkpt>
      <trkpt lat="48.40983" lon="2.59191">
        <ele>88.58</ele>
        <time>2017-03-19T10:09:30Z</time>
      </trkpt>
      <trkpt lat="48.40981" lon="2.59188">
        <ele>88.58</ele>
        <time>2017-03-19T10:09:31Z</time>
      </trkpt>
      <trkpt lat="48.40961" lon="2.59193">
        <ele>85.21</ele>
        <time>2017-03-19T10:09:40Z</time>
      </trkpt>
      <trkpt lat="48.40943" lon="2.59201">
        <ele>84.25</ele>
        <time>2017-03-19T10:09:49Z</time>
      </trkpt>
      <trkpt lat="48.40926" lon="2.59205">
        <ele>83.77</ele>
        <time>2017-03-19T10:09:57Z</time>
      </trkpt>
      <trkpt lat="48.40917" lon="2.59205">
        <ele>83.29</ele>
        <time>2017-03-19T10:10:01Z</time>
      </trkpt>
      <trkpt lat="48.40901" lon="2.59221">
        <ele>84.25</ele>
        <time>2017-03-19T10:10:08Z</time>
      </trkpt>
      <trkpt lat="48.40887" lon="2.59227">
        <ele>85.21</ele>
        <time>2017-03-19T10:10:15Z</time>
      </trkpt>
      <trkpt lat="48.40865" lon="2.59239">
        <ele>84.73</ele>
        <time>2017-03-19T10:10:26Z</time>
      </trkpt>
      <trkpt lat="48.40851" lon="2.59248">
        <ele>83.77</ele>
        <time>2017-03-19T10:10:35Z</time>
      </trkpt>
      <trkpt lat="48.40835" lon="2.59255">
        <ele>83.77</ele>
        <time>2017-03-19T10:10:45Z</time>
      </trkpt>
      <trkpt lat="48.40828" lon="2.59259">
        <ele>84.25</ele>
        <time>2017-03-19T10:10:49Z</time>
      </trkpt>
      <trkpt lat="48.40815" lon="2.59265">
        <ele>85.69</ele>
        <time>2017-03-19T10:10:58Z</time>
      </trkpt>
      <trkpt lat="48.40809" lon="2.5927">
        <ele>87.62</ele>
        <time>2017-03-19T10:11:02Z</time>
      </trkpt>
      <trkpt lat="48.40798" lon="2.59278">
        <ele>89.06</ele>
        <time>2017-03-19T10:11:12Z</time>
      </trkpt>
      <trkpt lat="48.40786" lon="2.59283">
        <ele>89.54</ele>
        <time>2017-03-19T10:11:22Z</time>
      </trkpt>
      <trkpt lat="48.40778" lon="2.59284">
        <ele>90.5</ele>
        <time>2017-03-19T10:11:30Z</time>
      </trkpt>
      <trkpt lat="48.40774" lon="2.59285">
        <ele>91.46</ele>
        <time>2017-03-19T10:11:33Z</time>
      </trkpt>
      <trkpt lat="48.4076" lon="2.59281">
        <ele>96.27</ele>
        <time>2017-03-19T10:11:44Z</time>
      </trkpt>
      <trkpt lat="48.40744" lon="2.59276">
        <ele>101.08</ele>
        <time>2017-03-19T10:11:56Z</time>
      </trkpt>
      <trkpt lat="48.40736" lon="2.59268">
        <ele>103.48</ele>
        <time>2017-03-19T10:12:06Z</time>
      </trkpt>
      <trkpt lat="48.40731" lon="2.59259">
        <ele>102.52</ele>
        <time>2017-03-19T10:12:14Z</time>
      </trkpt>
      <trkpt lat="48.40725" lon="2.59241">
        <ele>103.48</ele>
        <time>2017-03-19T10:12:24Z</time>
      </trkpt>
      <trkpt lat="48.40725" lon="2.59236">
        <ele>104.44</ele>
        <time>2017-03-19T10:12:27Z</time>
      </trkpt>
      <trkpt lat="48.40725" lon="2.59229">
        <ele>105.4</ele>
        <time>2017-03-19T10:12:31Z</time>
      </trkpt>
      <trkpt lat="48.40724" lon="2.59226">
        <ele>104.92</ele>
        <time>2017-03-19T10:12:33Z</time>
      </trkpt>
      <trkpt lat="48.40725" lon="2.5921">
        <ele>103</ele>
        <time>2017-03-19T10:12:43Z</time>
      </trkpt>
      <trkpt lat="48.40725" lon="2.59193">
        <ele>104.92</ele>
        <time>2017-03-19T10:12:52Z</time>
      </trkpt>
      <trkpt lat="48.40722" lon="2.59189">
        <ele>105.4</ele>
        <time>2017-03-19T10:12:56Z</time>
      </trkpt>
      <trkpt lat="48.40712" lon="2.59192">
        <ele>106.84</ele>
        <time>2017-03-19T10:13:08Z</time>
      </trkpt>
      <trkpt lat="48.40704" lon="2.59197">
        <ele>107.32</ele>
        <time>2017-03-19T10:13:18Z</time>
      </trkpt>
      <trkpt lat="48.40699" lon="2.59205">
        <ele>108.77</ele>
        <time>2017-03-19T10:13:23Z</time>
      </trkpt>
      <trkpt lat="48.40692" lon="2.59213">
        <ele>109.73</ele>
        <time>2017-03-19T10:13:29Z</time>
      </trkpt>
      <trkpt lat="48.40686" lon="2.59219">
        <ele>110.69</ele>
        <time>2017-03-19T10:13:35Z</time>
      </trkpt>
      <trkpt lat="48.40679" lon="2.59225">
        <ele>109.73</ele>
        <time>2017-03-19T10:13:42Z</time>
      </trkpt>
      <trkpt lat="48.40675" lon="2.59226">
        <ele>109.25</ele>
        <time>2017-03-19T10:13:46Z</time>
      </trkpt>
      <trkpt lat="48.40667" lon="2.5922">
        <ele>109.73</ele>
        <time>2017-03-19T10:13:54Z</time>
      </trkpt>
      <trkpt lat="48.40658" lon="2.59206">
        <ele>112.61</ele>
        <time>2017-03-19T10:14:04Z</time>
      </trkpt>
      <trkpt lat="48.4064" lon="2.59201">
        <ele>113.57</ele>
        <time>2017-03-19T10:14:12Z</time>
      </trkpt>
      <trkpt lat="48.40622" lon="2.59176">
        <ele>110.21</ele>
        <time>2017-03-19T10:14:20Z</time>
      </trkpt>
      <trkpt lat="48.40618" lon="2.59162">
        <ele>107.81</ele>
        <time>2017-03-19T10:14:23Z</time>
      </trkpt>
      <trkpt lat="48.40626" lon="2.59105">
        <ele>103.48</ele>
        <time>2017-03-19T10:14:29Z</time>
      </trkpt>
      <trkpt lat="48.4063" lon="2.59082">
        <ele>102.52</ele>
        <time>2017-03-19T10:14:31Z</time>
      </trkpt>
      <trkpt lat="48.40632" lon="2.5906">
        <ele>101.56</ele>
        <time>2017-03-19T10:14:33Z</time>
      </trkpt>
      <trkpt lat="48.40612" lon="2.59012">
        <ele>98.67</ele>
        <time>2017-03-19T10:14:38Z</time>
      </trkpt>
      <trkpt lat="48.40587" lon="2.59006">
        <ele>95.79</ele>
        <time>2017-03-19T10:14:41Z</time>
      </trkpt>
      <trkpt lat="48.40547" lon="2.58988">
        <ele>89.06</ele>
        <time>2017-03-19T10:14:47Z</time>
      </trkpt>
      <trkpt lat="48.40519" lon="2.58953">
        <ele>83.29</ele>
        <time>2017-03-19T10:14:52Z</time>
      </trkpt>
      <trkpt lat="48.40498" lon="2.5894">
        <ele>79.93</ele>
        <time>2017-03-19T10:14:55Z</time>
      </trkpt>
      <trkpt lat="48.40484" lon="2.58912">
        <ele>77.04</ele>
        <time>2017-03-19T10:14:59Z</time>
      </trkpt>
      <trkpt lat="48.40489" lon="2.58884">
        <ele>75.12</ele>
        <time>2017-03-19T10:15:02Z</time>
      </trkpt>
      <trkpt lat="48.40492" lon="2.58823">
        <ele>72.24</ele>
        <time>2017-03-19T10:15:09Z</time>
      </trkpt>
      <trkpt lat="48.40503" lon="2.58799">
        <ele>71.27</ele>
        <time>2017-03-19T10:15:12Z</time>
      </trkpt>
      <trkpt lat="48.40512" lon="2.58771">
        <ele>70.31</ele>
        <time>2017-03-19T10:15:15Z</time>
      </trkpt>
      <trkpt lat="48.40518" lon="2.58734">
        <ele>69.35</ele>
        <time>2017-03-19T10:15:19Z</time>
      </trkpt>
      <trkpt lat="48.40518" lon="2.58707">
        <ele>68.87</ele>
        <time>2017-03-19T10:15:22Z</time>
      </trkpt>
      <trkpt lat="48.40516" lon="2.58641">
        <ele>67.43</ele>
        <time>2017-03-19T10:15:28Z</time>
      </trkpt>
      <trkpt lat="48.40521" lon="2.5862">
        <ele>66.47</ele>
        <time>2017-03-19T10:15:30Z</time>
      </trkpt>
      <trkpt lat="48.40518" lon="2.58561">
        <ele>64.55</ele>
        <time>2017-03-19T10:15:36Z</time>
      </trkpt>
      <trkpt lat="48.40484" lon="2.58541">
        <ele>62.14</ele>
        <time>2017-03-19T10:15:42Z</time>
      </trkpt>
      <trkpt lat="48.40441" lon="2.58532">
        <ele>61.66</ele>
        <time>2017-03-19T10:15:49Z</time>
      </trkpt>
      <trkpt lat="48.40394" lon="2.58505">
        <ele>61.66</ele>
        <time>2017-03-19T10:15:58Z</time>
      </trkpt>
      <trkpt lat="48.4039" lon="2.58502">
        <ele>61.66</ele>
        <time>2017-03-19T10:15:59Z</time>
      </trkpt>
      <trkpt lat="48.40365" lon="2.58482">
        <ele>63.1</ele>
        <time>2017-03-19T10:16:04Z</time>
      </trkpt>
      <trkpt lat="48.40357" lon="2.58477">
        <ele>63.1</ele>
        <time>2017-03-19T10:16:06Z</time>
      </trkpt>
      <trkpt lat="48.40343" lon="2.58466">
        <ele>63.1</ele>
        <time>2017-03-19T10:16:09Z</time>
      </trkpt>
      <trkpt lat="48.40329" lon="2.58457">
        <ele>62.62</ele>
        <time>2017-03-19T10:16:12Z</time>
      </trkpt>
      <trkpt lat="48.40305" lon="2.58443">
        <ele>61.66</ele>
        <time>2017-03-19T10:16:17Z</time>
      </trkpt>
      <trkpt lat="48.40291" lon="2.58435">
        <ele>61.66</ele>
        <time>2017-03-19T10:16:20Z</time>
      </trkpt>
      <trkpt lat="48.40268" lon="2.58417">
        <ele>61.66</ele>
        <time>2017-03-19T10:16:25Z</time>
      </trkpt>
      <trkpt lat="48.40252" lon="2.58424">
        <ele>60.7</ele>
        <time>2017-03-19T10:16:30Z</time>
      </trkpt>
      <trkpt lat="48.40246" lon="2.5847">
        <ele>64.07</ele>
        <time>2017-03-19T10:16:39Z</time>
      </trkpt>
      <trkpt lat="48.40246" lon="2.58481">
        <ele>65.03</ele>
        <time>2017-03-19T10:16:41Z</time>
      </trkpt>
      <trkpt lat="48.40247" lon="2.58494">
        <ele>66.47</ele>
        <time>2017-03-19T10:16:43Z</time>
      </trkpt>
      <trkpt lat="48.40251" lon="2.58521">
        <ele>66.95</ele>
        <time>2017-03-19T10:16:48Z</time>
      </trkpt>
      <trkpt lat="48.4025" lon="2.58537">
        <ele>67.43</ele>
        <time>2017-03-19T10:16:51Z</time>
      </trkpt>
      <trkpt lat="48.40247" lon="2.58559">
        <ele>68.39</ele>
        <time>2017-03-19T10:16:56Z</time>
      </trkpt>
      <trkpt lat="48.40247" lon="2.58568">
        <ele>68.39</ele>
        <time>2017-03-19T10:16:58Z</time>
      </trkpt>
      <trkpt lat="48.40247" lon="2.58598">
        <ele>72.24</ele>
        <time>2017-03-19T10:17:05Z</time>
      </trkpt>
      <trkpt lat="48.40244" lon="2.58656">
        <ele>76.56</ele>
        <time>2017-03-19T10:17:15Z</time>
      </trkpt>
      <trkpt lat="48.40239" lon="2.58694">
        <ele>81.37</ele>
        <time>2017-03-19T10:17:22Z</time>
      </trkpt>
      <trkpt lat="48.40236" lon="2.58732">
        <ele>87.14</ele>
        <time>2017-03-19T10:17:30Z</time>
      </trkpt>
      <trkpt lat="48.40231" lon="2.58771">
        <ele>91.46</ele>
        <time>2017-03-19T10:17:39Z</time>
      </trkpt>
      <trkpt lat="48.40231" lon="2.58775">
        <ele>91.46</ele>
        <time>2017-03-19T10:17:40Z</time>
      </trkpt>
      <trkpt lat="48.40234" lon="2.58802">
        <ele>94.83</ele>
        <time>2017-03-19T10:17:47Z</time>
      </trkpt>
      <trkpt lat="48.40238" lon="2.58838">
        <ele>94.83</ele>
        <time>2017-03-19T10:17:56Z</time>
      </trkpt>
      <trkpt lat="48.40242" lon="2.58868">
        <ele>98.67</ele>
        <time>2017-03-19T10:18:05Z</time>
      </trkpt>
      <trkpt lat="48.40243" lon="2.58882">
        <ele>102.04</ele>
        <time>2017-03-19T10:18:09Z</time>
      </trkpt>
      <trkpt lat="48.40245" lon="2.5891">
        <ele>104.92</ele>
        <time>2017-03-19T10:18:17Z</time>
      </trkpt>
      <trkpt lat="48.4025" lon="2.58948">
        <ele>108.77</ele>
        <time>2017-03-19T10:18:27Z</time>
      </trkpt>
      <trkpt lat="48.40253" lon="2.58987">
        <ele>105.88</ele>
        <time>2017-03-19T10:18:37Z</time>
      </trkpt>
      <trkpt lat="48.40255" lon="2.59023">
        <ele>108.29</ele>
        <time>2017-03-19T10:18:46Z</time>
      </trkpt>
      <trkpt lat="48.40258" lon="2.59055">
        <ele>111.65</ele>
        <time>2017-03-19T10:18:55Z</time>
      </trkpt>
      <trkpt lat="48.40261" lon="2.59076">
        <ele>112.61</ele>
        <time>2017-03-19T10:19:02Z</time>
      </trkpt>
      <trkpt lat="48.40263" lon="2.59105">
        <ele>111.17</ele>
        <time>2017-03-19T10:19:12Z</time>
      </trkpt>
      <trkpt lat="48.40266" lon="2.5914">
        <ele>103.96</ele>
        <time>2017-03-19T10:19:23Z</time>
      </trkpt>
      <trkpt lat="48.40267" lon="2.59162">
        <ele>101.56</ele>
        <time>2017-03-19T10:19:31Z</time>
      </trkpt>
      <trkpt lat="48.40272" lon="2.59175">
        <ele>101.56</ele>
        <time>2017-03-19T10:19:36Z</time>
      </trkpt>
      <trkpt lat="48.40271" lon="2.59182">
        <ele>101.08</ele>
        <time>2017-03-19T10:19:39Z</time>
      </trkpt>
      <trkpt lat="48.40272" lon="2.59194">
        <ele>101.08</ele>
        <time>2017-03-19T10:19:43Z</time>
      </trkpt>
      <trkpt lat="48.40274" lon="2.5922">
        <ele>103</ele>
        <time>2017-03-19T10:19:52Z</time>
      </trkpt>
      <trkpt lat="48.40274" lon="2.59235">
        <ele>104.92</ele>
        <time>2017-03-19T10:19:58Z</time>
      </trkpt>
      <trkpt lat="48.40276" lon="2.5926">
        <ele>107.81</ele>
        <time>2017-03-19T10:20:06Z</time>
      </trkpt>
      <trkpt lat="48.40277" lon="2.59268">
        <ele>108.29</ele>
        <time>2017-03-19T10:20:09Z</time>
      </trkpt>
      <trkpt lat="48.40277" lon="2.59297">
        <ele>109.25</ele>
        <time>2017-03-19T10:20:20Z</time>
      </trkpt>
      <trkpt lat="48.40281" lon="2.59319">
        <ele>107.81</ele>
        <time>2017-03-19T10:20:28Z</time>
      </trkpt>
      <trkpt lat="48.40285" lon="2.59347">
        <ele>104.44</ele>
        <time>2017-03-19T10:20:38Z</time>
      </trkpt>
      <trkpt lat="48.40289" lon="2.59372">
        <ele>97.71</ele>
        <time>2017-03-19T10:20:47Z</time>
      </trkpt>
      <trkpt lat="48.40291" lon="2.59387">
        <ele>94.83</ele>
        <time>2017-03-19T10:20:53Z</time>
      </trkpt>
      <trkpt lat="48.40292" lon="2.59392">
        <ele>94.35</ele>
        <time>2017-03-19T10:20:55Z</time>
      </trkpt>
      <trkpt lat="48.40293" lon="2.59411">
        <ele>95.79</ele>
        <time>2017-03-19T10:21:03Z</time>
      </trkpt>
      <trkpt lat="48.40292" lon="2.59426">
        <ele>97.71</ele>
        <time>2017-03-19T10:21:09Z</time>
      </trkpt>
      <trkpt lat="48.40291" lon="2.59433">
        <ele>97.23</ele>
        <time>2017-03-19T10:21:12Z</time>
      </trkpt>
      <trkpt lat="48.40286" lon="2.59451">
        <ele>96.27</ele>
        <time>2017-03-19T10:21:20Z</time>
      </trkpt>
      <trkpt lat="48.40284" lon="2.5946">
        <ele>96.27</ele>
        <time>2017-03-19T10:21:24Z</time>
      </trkpt>
      <trkpt lat="48.40278" lon="2.59479">
        <ele>97.23</ele>
        <time>2017-03-19T10:21:34Z</time>
      </trkpt>
      <trkpt lat="48.40275" lon="2.59494">
        <ele>98.19</ele>
        <time>2017-03-19T10:21:40Z</time>
      </trkpt>
      <trkpt lat="48.40273" lon="2.59501">
        <ele>97.71</ele>
        <time>2017-03-19T10:21:43Z</time>
      </trkpt>
      <trkpt lat="48.40273" lon="2.59531">
        <ele>99.63</ele>
        <time>2017-03-19T10:21:54Z</time>
      </trkpt>
      <trkpt lat="48.40272" lon="2.59546">
        <ele>100.6</ele>
        <time>2017-03-19T10:22:00Z</time>
      </trkpt>
      <trkpt lat="48.40273" lon="2.59564">
        <ele>103</ele>
        <time>2017-03-19T10:22:08Z</time>
      </trkpt>
      <trkpt lat="48.40272" lon="2.59589">
        <ele>104.92</ele>
        <time>2017-03-19T10:22:17Z</time>
      </trkpt>
      <trkpt lat="48.40274" lon="2.59613">
        <ele>103</ele>
        <time>2017-03-19T10:22:28Z</time>
      </trkpt>
      <trkpt lat="48.40275" lon="2.59626">
        <ele>103</ele>
        <time>2017-03-19T10:22:33Z</time>
      </trkpt>
      <trkpt lat="48.40275" lon="2.59635">
        <ele>101.08</ele>
        <time>2017-03-19T10:22:37Z</time>
      </trkpt>
      <trkpt lat="48.40276" lon="2.59651">
        <ele>97.71</ele>
        <time>2017-03-19T10:22:45Z</time>
      </trkpt>
      <trkpt lat="48.40276" lon="2.59659">
        <ele>95.79</ele>
        <time>2017-03-19T10:22:50Z</time>
      </trkpt>
      <trkpt lat="48.40275" lon="2.59683">
        <ele>94.35</ele>
        <time>2017-03-19T10:23:02Z</time>
      </trkpt>
      <trkpt lat="48.40271" lon="2.597">
        <ele>95.31</ele>
        <time>2017-03-19T10:23:12Z</time>
      </trkpt>
      <trkpt lat="48.40271" lon="2.59702">
        <ele>96.27</ele>
        <time>2017-03-19T10:23:13Z</time>
      </trkpt>
      <trkpt lat="48.40269" lon="2.59725">
        <ele>100.6</ele>
        <time>2017-03-19T10:23:23Z</time>
      </trkpt>
      <trkpt lat="48.40262" lon="2.59747">
        <ele>103.96</ele>
        <time>2017-03-19T10:23:34Z</time>
      </trkpt>
      <trkpt lat="48.40261" lon="2.5975">
        <ele>104.44</ele>
        <time>2017-03-19T10:23:36Z</time>
      </trkpt>
      <trkpt lat="48.40255" lon="2.59767">
        <ele>104.44</ele>
        <time>2017-03-19T10:23:45Z</time>
      </trkpt>
      <trkpt lat="48.40247" lon="2.59784">
        <ele>104.92</ele>
        <time>2017-03-19T10:23:55Z</time>
      </trkpt>
      <trkpt lat="48.40243" lon="2.59801">
        <ele>106.84</ele>
        <time>2017-03-19T10:24:03Z</time>
      </trkpt>
      <trkpt lat="48.40243" lon="2.59804">
        <ele>106.84</ele>
        <time>2017-03-19T10:24:04Z</time>
      </trkpt>
      <trkpt lat="48.40243" lon="2.59824">
        <ele>110.21</ele>
        <time>2017-03-19T10:24:11Z</time>
      </trkpt>
      <trkpt lat="48.40245" lon="2.59854">
        <ele>113.57</ele>
        <time>2017-03-19T10:24:21Z</time>
      </trkpt>
      <trkpt lat="48.40245" lon="2.5989">
        <ele>113.57</ele>
        <time>2017-03-19T10:24:31Z</time>
      </trkpt>
      <trkpt lat="48.40241" lon="2.59927">
        <ele>113.57</ele>
        <time>2017-03-19T10:24:42Z</time>
      </trkpt>
      <trkpt lat="48.40238" lon="2.59942">
        <ele>113.57</ele>
        <time>2017-03-19T10:24:47Z</time>
      </trkpt>
      <trkpt lat="48.40234" lon="2.59974">
        <ele>114.53</ele>
        <time>2017-03-19T10:24:58Z</time>
      </trkpt>
      <trkpt lat="48.40232" lon="2.59981">
        <ele>115.01</ele>
        <time>2017-03-19T10:25:00Z</time>
      </trkpt>
      <trkpt lat="48.40228" lon="2.59999">
        <ele>115.98</ele>
        <time>2017-03-19T10:25:05Z</time>
      </trkpt>
      <trkpt lat="48.40226" lon="2.60013">
        <ele>116.94</ele>
        <time>2017-03-19T10:25:09Z</time>
      </trkpt>
      <trkpt lat="48.40222" lon="2.60057">
        <ele>117.9</ele>
        <time>2017-03-19T10:25:21Z</time>
      </trkpt>
      <trkpt lat="48.40221" lon="2.60072">
        <ele>116.94</ele>
        <time>2017-03-19T10:25:26Z</time>
      </trkpt>
      <trkpt lat="48.4022" lon="2.60096">
        <ele>116.46</ele>
        <time>2017-03-19T10:25:35Z</time>
      </trkpt>
      <trkpt lat="48.40222" lon="2.60117">
        <ele>120.3</ele>
        <time>2017-03-19T10:25:42Z</time>
      </trkpt>
      <trkpt lat="48.40225" lon="2.60135">
        <ele>125.59</ele>
        <time>2017-03-19T10:25:48Z</time>
      </trkpt>
      <trkpt lat="48.40227" lon="2.60147">
        <ele>128.95</ele>
        <time>2017-03-19T10:25:52Z</time>
      </trkpt>
      <trkpt lat="48.40228" lon="2.60162">
        <ele>132.8</ele>
        <time>2017-03-19T10:25:57Z</time>
      </trkpt>
      <trkpt lat="48.40228" lon="2.60174">
        <ele>135.68</ele>
        <time>2017-03-19T10:26:01Z</time>
      </trkpt>
      <trkpt lat="48.40228" lon="2.60186">
        <ele>138.09</ele>
        <time>2017-03-19T10:26:05Z</time>
      </trkpt>
      <trkpt lat="48.40221" lon="2.60208">
        <ele>138.09</ele>
        <time>2017-03-19T10:26:14Z</time>
      </trkpt>
      <trkpt lat="48.40214" lon="2.60214">
        <ele>138.57</ele>
        <time>2017-03-19T10:26:18Z</time>
      </trkpt>
      <trkpt lat="48.40194" lon="2.60224">
        <ele>134.24</ele>
        <time>2017-03-19T10:26:29Z</time>
      </trkpt>
      <trkpt lat="48.40174" lon="2.60233">
        <ele>128.95</ele>
        <time>2017-03-19T10:26:39Z</time>
      </trkpt>
      <trkpt lat="48.40161" lon="2.60237">
        <ele>124.63</ele>
        <time>2017-03-19T10:26:47Z</time>
      </trkpt>
      <trkpt lat="48.40143" lon="2.60242">
        <ele>121.26</ele>
        <time>2017-03-19T10:26:55Z</time>
      </trkpt>
      <trkpt lat="48.40133" lon="2.60246">
        <ele>120.78</ele>
        <time>2017-03-19T10:26:59Z</time>
      </trkpt>
      <trkpt lat="48.40109" lon="2.60257">
        <ele>116.46</ele>
        <time>2017-03-19T10:27:07Z</time>
      </trkpt>
      <trkpt lat="48.40079" lon="2.60269">
        <ele>110.69</ele>
        <time>2017-03-19T10:27:15Z</time>
      </trkpt>
      <trkpt lat="48.40062" lon="2.60273">
        <ele>111.17</ele>
        <time>2017-03-19T10:27:20Z</time>
      </trkpt>
      <trkpt lat="48.40046" lon="2.60284">
        <ele>111.65</ele>
        <time>2017-03-19T10:27:23Z</time>
      </trkpt>
      <trkpt lat="48.40034" lon="2.60296">
        <ele>111.17</ele>
        <time>2017-03-19T10:27:25Z</time>
      </trkpt>
      <trkpt lat="48.40012" lon="2.60324">
        <ele>111.17</ele>
        <time>2017-03-19T10:27:29Z</time>
      </trkpt>
      <trkpt lat="48.39993" lon="2.60386">
        <ele>110.69</ele>
        <time>2017-03-19T10:27:36Z</time>
      </trkpt>
      <trkpt lat="48.39977" lon="2.60445">
        <ele>111.65</ele>
        <time>2017-03-19T10:27:43Z</time>
      </trkpt>
      <trkpt lat="48.39963" lon="2.6045">
        <ele>112.61</ele>
        <time>2017-03-19T10:27:48Z</time>
      </trkpt>
      <trkpt lat="48.39952" lon="2.60442">
        <ele>112.13</ele>
        <time>2017-03-19T10:27:52Z</time>
      </trkpt>
      <trkpt lat="48.39923" lon="2.6042">
        <ele>108.29</ele>
        <time>2017-03-19T10:28:02Z</time>
      </trkpt>
      <trkpt lat="48.39905" lon="2.60407">
        <ele>102.04</ele>
        <time>2017-03-19T10:28:10Z</time>
      </trkpt>
      <trkpt lat="48.39886" lon="2.60406">
        <ele>95.79</ele>
        <time>2017-03-19T10:28:19Z</time>
      </trkpt>
      <trkpt lat="48.3987" lon="2.60406">
        <ele>90.98</ele>
        <time>2017-03-19T10:28:26Z</time>
      </trkpt>
      <trkpt lat="48.39869" lon="2.60404">
        <ele>90.98</ele>
        <time>2017-03-19T10:28:27Z</time>
      </trkpt>
      <trkpt lat="48.39853" lon="2.60361">
        <ele>89.54</ele>
        <time>2017-03-19T10:28:38Z</time>
      </trkpt>
      <trkpt lat="48.39835" lon="2.60322">
        <ele>94.83</ele>
        <time>2017-03-19T10:28:47Z</time>
      </trkpt>
      <trkpt lat="48.39821" lon="2.60286">
        <ele>97.71</ele>
        <time>2017-03-19T10:28:55Z</time>
      </trkpt>
      <trkpt lat="48.39805" lon="2.60257">
        <ele>99.63</ele>
        <time>2017-03-19T10:29:04Z</time>
      </trkpt>
      <trkpt lat="48.39793" lon="2.60232">
        <ele>100.6</ele>
        <time>2017-03-19T10:29:09Z</time>
      </trkpt>
      <trkpt lat="48.39798" lon="2.60191">
        <ele>101.08</ele>
        <time>2017-03-19T10:29:17Z</time>
      </trkpt>
      <trkpt lat="48.39799" lon="2.60187">
        <ele>101.08</ele>
        <time>2017-03-19T10:29:18Z</time>
      </trkpt>
      <trkpt lat="48.39811" lon="2.60138">
        <ele>101.08</ele>
        <time>2017-03-19T10:29:27Z</time>
      </trkpt>
      <trkpt lat="48.39815" lon="2.60108">
        <ele>100.6</ele>
        <time>2017-03-19T10:29:33Z</time>
      </trkpt>
      <trkpt lat="48.39821" lon="2.60079">
        <ele>101.08</ele>
        <time>2017-03-19T10:29:39Z</time>
      </trkpt>
      <trkpt lat="48.39828" lon="2.60029">
        <ele>104.92</ele>
        <time>2017-03-19T10:29:50Z</time>
      </trkpt>
      <trkpt lat="48.3984" lon="2.59991">
        <ele>105.88</ele>
        <time>2017-03-19T10:29:59Z</time>
      </trkpt>
      <trkpt lat="48.39849" lon="2.59969">
        <ele>105.88</ele>
        <time>2017-03-19T10:30:05Z</time>
      </trkpt>
      <trkpt lat="48.39865" lon="2.59942">
        <ele>107.81</ele>
        <time>2017-03-19T10:30:13Z</time>
      </trkpt>
      <trkpt lat="48.39878" lon="2.59914">
        <ele>108.29</ele>
        <time>2017-03-19T10:30:20Z</time>
      </trkpt>
      <trkpt lat="48.3988" lon="2.59911">
        <ele>108.29</ele>
        <time>2017-03-19T10:30:21Z</time>
      </trkpt>
      <trkpt lat="48.39896" lon="2.59873">
        <ele>111.65</ele>
        <time>2017-03-19T10:30:31Z</time>
      </trkpt>
      <trkpt lat="48.39905" lon="2.59857">
        <ele>113.57</ele>
        <time>2017-03-19T10:30:36Z</time>
      </trkpt>
      <trkpt lat="48.39908" lon="2.5985">
        <ele>113.57</ele>
        <time>2017-03-19T10:30:38Z</time>
      </trkpt>
      <trkpt lat="48.39903" lon="2.5981">
        <ele>110.21</ele>
        <time>2017-03-19T10:30:48Z</time>
      </trkpt>
      <trkpt lat="48.39897" lon="2.59774">
        <ele>109.25</ele>
        <time>2017-03-19T10:30:55Z</time>
      </trkpt>
      <trkpt lat="48.39896" lon="2.5975">
        <ele>108.77</ele>
        <time>2017-03-19T10:30:59Z</time>
      </trkpt>
      <trkpt lat="48.39894" lon="2.59699">
        <ele>108.29</ele>
        <time>2017-03-19T10:31:06Z</time>
      </trkpt>
      <trkpt lat="48.39891" lon="2.59668">
        <ele>109.73</ele>
        <time>2017-03-19T10:31:10Z</time>
      </trkpt>
      <trkpt lat="48.39888" lon="2.59625">
        <ele>111.17</ele>
        <time>2017-03-19T10:31:16Z</time>
      </trkpt>
      <trkpt lat="48.39887" lon="2.59595">
        <ele>113.09</ele>
        <time>2017-03-19T10:31:20Z</time>
      </trkpt>
      <trkpt lat="48.39886" lon="2.59573">
        <ele>113.57</ele>
        <time>2017-03-19T10:31:23Z</time>
      </trkpt>
      <trkpt lat="48.39885" lon="2.59526">
        <ele>115.5</ele>
        <time>2017-03-19T10:31:30Z</time>
      </trkpt>
      <trkpt lat="48.39883" lon="2.59495">
        <ele>116.46</ele>
        <time>2017-03-19T10:31:34Z</time>
      </trkpt>
      <trkpt lat="48.39895" lon="2.59461">
        <ele>116.94</ele>
        <time>2017-03-19T10:31:41Z</time>
      </trkpt>
      <trkpt lat="48.39911" lon="2.59456">
        <ele>119.34</ele>
        <time>2017-03-19T10:31:50Z</time>
      </trkpt>
      <trkpt lat="48.39923" lon="2.59452">
        <ele>120.78</ele>
        <time>2017-03-19T10:31:59Z</time>
      </trkpt>
      <trkpt lat="48.39926" lon="2.59451">
        <ele>120.78</ele>
        <time>2017-03-19T10:32:01Z</time>
      </trkpt>
      <trkpt lat="48.39943" lon="2.59447">
        <ele>117.42</ele>
        <time>2017-03-19T10:32:11Z</time>
      </trkpt>
      <trkpt lat="48.39947" lon="2.59434">
        <ele>116.94</ele>
        <time>2017-03-19T10:32:19Z</time>
      </trkpt>
      <trkpt lat="48.39945" lon="2.59424">
        <ele>117.9</ele>
        <time>2017-03-19T10:32:25Z</time>
      </trkpt>
      <trkpt lat="48.39942" lon="2.59406">
        <ele>117.9</ele>
        <time>2017-03-19T10:32:34Z</time>
      </trkpt>
      <trkpt lat="48.39934" lon="2.59387">
        <ele>116.46</ele>
        <time>2017-03-19T10:32:44Z</time>
      </trkpt>
      <trkpt lat="48.39931" lon="2.5938">
        <ele>115.98</ele>
        <time>2017-03-19T10:32:47Z</time>
      </trkpt>
      <trkpt lat="48.39931" lon="2.59368">
        <ele>113.57</ele>
        <time>2017-03-19T10:32:52Z</time>
      </trkpt>
      <trkpt lat="48.3993" lon="2.59357">
        <ele>112.13</ele>
        <time>2017-03-19T10:32:57Z</time>
      </trkpt>
      <trkpt lat="48.39929" lon="2.59348">
        <ele>112.61</ele>
        <time>2017-03-19T10:33:00Z</time>
      </trkpt>
      <trkpt lat="48.3993" lon="2.59328">
        <ele>112.61</ele>
        <time>2017-03-19T10:33:06Z</time>
      </trkpt>
      <trkpt lat="48.3993" lon="2.59321">
        <ele>112.61</ele>
        <time>2017-03-19T10:33:08Z</time>
      </trkpt>
      <trkpt lat="48.39937" lon="2.59294">
        <ele>114.53</ele>
        <time>2017-03-19T10:33:16Z</time>
      </trkpt>
      <trkpt lat="48.39939" lon="2.59267">
        <ele>113.09</ele>
        <time>2017-03-19T10:33:21Z</time>
      </trkpt>
      <trkpt lat="48.39938" lon="2.59254">
        <ele>112.61</ele>
        <time>2017-03-19T10:33:23Z</time>
      </trkpt>
      <trkpt lat="48.39936" lon="2.59235">
        <ele>112.61</ele>
        <time>2017-03-19T10:33:25Z</time>
      </trkpt>
      <trkpt lat="48.39931" lon="2.59205">
        <ele>111.65</ele>
        <time>2017-03-19T10:33:28Z</time>
      </trkpt>
      <trkpt lat="48.39926" lon="2.59185">
        <ele>110.21</ele>
        <time>2017-03-19T10:33:30Z</time>
      </trkpt>
      <trkpt lat="48.39922" lon="2.59147">
        <ele>106.84</ele>
        <time>2017-03-19T10:33:34Z</time>
      </trkpt>
      <trkpt lat="48.39936" lon="2.59084">
        <ele>100.11</ele>
        <time>2017-03-19T10:33:42Z</time>
      </trkpt>
      <trkpt lat="48.39934" lon="2.59075">
        <ele>98.67</ele>
        <time>2017-03-19T10:33:44Z</time>
      </trkpt>
      <trkpt lat="48.3993" lon="2.59066">
        <ele>98.19</ele>
        <time>2017-03-19T10:33:46Z</time>
      </trkpt>
      <trkpt lat="48.39924" lon="2.5904">
        <ele>100.6</ele>
        <time>2017-03-19T10:33:56Z</time>
      </trkpt>
      <trkpt lat="48.39916" lon="2.59024">
        <ele>107.81</ele>
        <time>2017-03-19T10:34:03Z</time>
      </trkpt>
      <trkpt lat="48.39913" lon="2.59014">
        <ele>109.25</ele>
        <time>2017-03-19T10:34:07Z</time>
      </trkpt>
      <trkpt lat="48.3991" lon="2.59005">
        <ele>109.73</ele>
        <time>2017-03-19T10:34:11Z</time>
      </trkpt>
      <trkpt lat="48.39904" lon="2.58993">
        <ele>110.21</ele>
        <time>2017-03-19T10:34:18Z</time>
      </trkpt>
      <trkpt lat="48.39904" lon="2.58993">
        <ele>110.69</ele>
        <time>2017-03-19T10:34:19Z</time>
      </trkpt>
      <trkpt lat="48.39893" lon="2.58987">
        <ele>110.21</ele>
        <time>2017-03-19T10:34:24Z</time>
      </trkpt>
      <trkpt lat="48.3988" lon="2.58994">
        <ele>106.36</ele>
        <time>2017-03-19T10:34:29Z</time>
      </trkpt>
      <trkpt lat="48.39844" lon="2.58995">
        <ele>103.96</ele>
        <time>2017-03-19T10:34:37Z</time>
      </trkpt>
      <trkpt lat="48.3984" lon="2.58954">
        <ele>102.04</ele>
        <time>2017-03-19T10:34:41Z</time>
      </trkpt>
      <trkpt lat="48.39829" lon="2.58907">
        <ele>100.11</ele>
        <time>2017-03-19T10:34:45Z</time>
      </trkpt>
      <trkpt lat="48.39814" lon="2.58885">
        <ele>97.23</ele>
        <time>2017-03-19T10:34:49Z</time>
      </trkpt>
      <trkpt lat="48.39788" lon="2.58874">
        <ele>95.79</ele>
        <time>2017-03-19T10:34:53Z</time>
      </trkpt>
      <trkpt lat="48.39747" lon="2.58849">
        <ele>93.87</ele>
        <time>2017-03-19T10:34:59Z</time>
      </trkpt>
      <trkpt lat="48.39717" lon="2.58846">
        <ele>93.39</ele>
        <time>2017-03-19T10:35:03Z</time>
      </trkpt>
      <trkpt lat="48.39698" lon="2.58851">
        <ele>92.9</ele>
        <time>2017-03-19T10:35:05Z</time>
      </trkpt>
      <trkpt lat="48.39661" lon="2.58864">
        <ele>92.42</ele>
        <time>2017-03-19T10:35:09Z</time>
      </trkpt>
      <trkpt lat="48.39644" lon="2.58886">
        <ele>91.46</ele>
        <time>2017-03-19T10:35:13Z</time>
      </trkpt>
      <trkpt lat="48.39636" lon="2.58923">
        <ele>89.06</ele>
        <time>2017-03-19T10:35:21Z</time>
      </trkpt>
      <trkpt lat="48.39633" lon="2.58976">
        <ele>88.1</ele>
        <time>2017-03-19T10:35:31Z</time>
      </trkpt>
      <trkpt lat="48.39629" lon="2.59016">
        <ele>86.18</ele>
        <time>2017-03-19T10:35:39Z</time>
      </trkpt>
      <trkpt lat="48.39626" lon="2.5905">
        <ele>81.85</ele>
        <time>2017-03-19T10:35:47Z</time>
      </trkpt>
      <trkpt lat="48.39623" lon="2.59078">
        <ele>79.93</ele>
        <time>2017-03-19T10:35:53Z</time>
      </trkpt>
      <trkpt lat="48.39625" lon="2.59101">
        <ele>80.41</ele>
        <time>2017-03-19T10:35:58Z</time>
      </trkpt>
      <trkpt lat="48.39624" lon="2.59133">
        <ele>79.45</ele>
        <time>2017-03-19T10:36:07Z</time>
      </trkpt>
      <trkpt lat="48.39623" lon="2.59139">
        <ele>79.45</ele>
        <time>2017-03-19T10:36:09Z</time>
      </trkpt>
      <trkpt lat="48.39616" lon="2.59177">
        <ele>80.41</ele>
        <time>2017-03-19T10:36:19Z</time>
      </trkpt>
      <trkpt lat="48.3961" lon="2.59221">
        <ele>80.41</ele>
        <time>2017-03-19T10:36:27Z</time>
      </trkpt>
      <trkpt lat="48.39606" lon="2.59245">
        <ele>81.37</ele>
        <time>2017-03-19T10:36:32Z</time>
      </trkpt>
      <trkpt lat="48.39596" lon="2.5929">
        <ele>79.93</ele>
        <time>2017-03-19T10:36:42Z</time>
      </trkpt>
      <trkpt lat="48.3959" lon="2.5933">
        <ele>78.97</ele>
        <time>2017-03-19T10:36:50Z</time>
      </trkpt>
      <trkpt lat="48.39585" lon="2.59374">
        <ele>73.2</ele>
        <time>2017-03-19T10:36:59Z</time>
      </trkpt>
      <trkpt lat="48.39577" lon="2.59428">
        <ele>69.83</ele>
        <time>2017-03-19T10:37:10Z</time>
      </trkpt>
      <trkpt lat="48.39576" lon="2.59432">
        <ele>69.35</ele>
        <time>2017-03-19T10:37:11Z</time>
      </trkpt>
      <trkpt lat="48.39573" lon="2.59451">
        <ele>67.43</ele>
        <time>2017-03-19T10:37:15Z</time>
      </trkpt>
      <trkpt lat="48.39568" lon="2.59491">
        <ele>63.58</ele>
        <time>2017-03-19T10:37:25Z</time>
      </trkpt>
      <trkpt lat="48.39561" lon="2.59522">
        <ele>65.03</ele>
        <time>2017-03-19T10:37:33Z</time>
      </trkpt>
      <trkpt lat="48.39555" lon="2.59557">
        <ele>66.95</ele>
        <time>2017-03-19T10:37:41Z</time>
      </trkpt>
      <trkpt lat="48.39552" lon="2.59595">
        <ele>70.31</ele>
        <time>2017-03-19T10:37:50Z</time>
      </trkpt>
      <trkpt lat="48.39546" lon="2.59633">
        <ele>73.68</ele>
        <time>2017-03-19T10:37:59Z</time>
      </trkpt>
      <trkpt lat="48.39542" lon="2.59673">
        <ele>75.12</ele>
        <time>2017-03-19T10:38:08Z</time>
      </trkpt>
      <trkpt lat="48.39534" lon="2.59714">
        <ele>77.52</ele>
        <time>2017-03-19T10:38:17Z</time>
      </trkpt>
      <trkpt lat="48.39528" lon="2.59748">
        <ele>79.45</ele>
        <time>2017-03-19T10:38:25Z</time>
      </trkpt>
      <trkpt lat="48.39521" lon="2.59786">
        <ele>81.37</ele>
        <time>2017-03-19T10:38:33Z</time>
      </trkpt>
      <trkpt lat="48.39518" lon="2.59825">
        <ele>80.89</ele>
        <time>2017-03-19T10:38:41Z</time>
      </trkpt>
      <trkpt lat="48.39511" lon="2.59856">
        <ele>82.33</ele>
        <time>2017-03-19T10:38:48Z</time>
      </trkpt>
      <trkpt lat="48.39502" lon="2.59899">
        <ele>84.25</ele>
        <time>2017-03-19T10:38:59Z</time>
      </trkpt>
      <trkpt lat="48.39495" lon="2.59946">
        <ele>83.29</ele>
        <time>2017-03-19T10:39:09Z</time>
      </trkpt>
      <trkpt lat="48.39488" lon="2.59967">
        <ele>81.37</ele>
        <time>2017-03-19T10:39:14Z</time>
      </trkpt>
      <trkpt lat="48.39469" lon="2.59963">
        <ele>82.33</ele>
        <time>2017-03-19T10:39:22Z</time>
      </trkpt>
      <trkpt lat="48.39453" lon="2.59954">
        <ele>82.81</ele>
        <time>2017-03-19T10:39:31Z</time>
      </trkpt>
      <trkpt lat="48.39432" lon="2.59942">
        <ele>78.97</ele>
        <time>2017-03-19T10:39:44Z</time>
      </trkpt>
      <trkpt lat="48.39419" lon="2.59936">
        <ele>75.6</ele>
        <time>2017-03-19T10:39:54Z</time>
      </trkpt>
      <trkpt lat="48.39413" lon="2.59932">
        <ele>74.64</ele>
        <time>2017-03-19T10:39:59Z</time>
      </trkpt>
      <trkpt lat="48.39399" lon="2.59922">
        <ele>79.45</ele>
        <time>2017-03-19T10:40:10Z</time>
      </trkpt>
      <trkpt lat="48.39385" lon="2.59915">
        <ele>85.21</ele>
        <time>2017-03-19T10:40:21Z</time>
      </trkpt>
      <trkpt lat="48.3938" lon="2.59913">
        <ele>87.14</ele>
        <time>2017-03-19T10:40:25Z</time>
      </trkpt>
      <trkpt lat="48.39363" lon="2.59904">
        <ele>86.66</ele>
        <time>2017-03-19T10:40:37Z</time>
      </trkpt>
      <trkpt lat="48.39348" lon="2.59895">
        <ele>85.21</ele>
        <time>2017-03-19T10:40:47Z</time>
      </trkpt>
      <trkpt lat="48.39335" lon="2.59884">
        <ele>86.66</ele>
        <time>2017-03-19T10:40:57Z</time>
      </trkpt>
      <trkpt lat="48.39323" lon="2.59877">
        <ele>89.06</ele>
        <time>2017-03-19T10:41:06Z</time>
      </trkpt>
      <trkpt lat="48.39315" lon="2.59872">
        <ele>90.98</ele>
        <time>2017-03-19T10:41:13Z</time>
      </trkpt>
      <trkpt lat="48.39302" lon="2.59864">
        <ele>90.02</ele>
        <time>2017-03-19T10:41:24Z</time>
      </trkpt>
      <trkpt lat="48.3929" lon="2.59859">
        <ele>90.98</ele>
        <time>2017-03-19T10:41:34Z</time>
      </trkpt>
      <trkpt lat="48.39281" lon="2.59856">
        <ele>90.5</ele>
        <time>2017-03-19T10:41:43Z</time>
      </trkpt>
      <trkpt lat="48.39268" lon="2.59853">
        <ele>92.9</ele>
        <time>2017-03-19T10:41:55Z</time>
      </trkpt>
      <trkpt lat="48.39266" lon="2.59854">
        <ele>93.87</ele>
        <time>2017-03-19T10:41:57Z</time>
      </trkpt>
      <trkpt lat="48.39255" lon="2.59852">
        <ele>97.23</ele>
        <time>2017-03-19T10:42:07Z</time>
      </trkpt>
      <trkpt lat="48.39244" lon="2.59851">
        <ele>98.67</ele>
        <time>2017-03-19T10:42:17Z</time>
      </trkpt>
      <trkpt lat="48.39237" lon="2.5985">
        <ele>98.19</ele>
        <time>2017-03-19T10:42:24Z</time>
      </trkpt>
      <trkpt lat="48.39231" lon="2.59849">
        <ele>99.15</ele>
        <time>2017-03-19T10:42:29Z</time>
      </trkpt>
      <trkpt lat="48.39228" lon="2.59847">
        <ele>100.6</ele>
        <time>2017-03-19T10:42:33Z</time>
      </trkpt>
      <trkpt lat="48.39216" lon="2.59847">
        <ele>100.11</ele>
        <time>2017-03-19T10:42:44Z</time>
      </trkpt>
      <trkpt lat="48.39215" lon="2.59847">
        <ele>99.63</ele>
        <time>2017-03-19T10:42:45Z</time>
      </trkpt>
      <trkpt lat="48.39203" lon="2.59843">
        <ele>99.63</ele>
        <time>2017-03-19T10:42:56Z</time>
      </trkpt>
      <trkpt lat="48.3919" lon="2.59842">
        <ele>99.63</ele>
        <time>2017-03-19T10:43:07Z</time>
      </trkpt>
      <trkpt lat="48.39187" lon="2.5984">
        <ele>99.63</ele>
        <time>2017-03-19T10:43:09Z</time>
      </trkpt>
      <trkpt lat="48.39172" lon="2.59837">
        <ele>97.71</ele>
        <time>2017-03-19T10:43:21Z</time>
      </trkpt>
      <trkpt lat="48.3917" lon="2.59837">
        <ele>97.23</ele>
        <time>2017-03-19T10:43:24Z</time>
      </trkpt>
      <trkpt lat="48.39158" lon="2.59834">
        <ele>96.27</ele>
        <time>2017-03-19T10:43:33Z</time>
      </trkpt>
      <trkpt lat="48.39141" lon="2.5983">
        <ele>95.79</ele>
        <time>2017-03-19T10:43:44Z</time>
      </trkpt>
      <trkpt lat="48.39125" lon="2.59826">
        <ele>92.9</ele>
        <time>2017-03-19T10:43:53Z</time>
      </trkpt>
      <trkpt lat="48.39107" lon="2.5982">
        <ele>88.58</ele>
        <time>2017-03-19T10:44:02Z</time>
      </trkpt>
      <trkpt lat="48.39094" lon="2.59818">
        <ele>90.5</ele>
        <time>2017-03-19T10:44:07Z</time>
      </trkpt>
      <trkpt lat="48.3907" lon="2.59815">
        <ele>92.42</ele>
        <time>2017-03-19T10:44:16Z</time>
      </trkpt>
      <trkpt lat="48.39037" lon="2.59809">
        <ele>95.31</ele>
        <time>2017-03-19T10:44:25Z</time>
      </trkpt>
      <trkpt lat="48.39013" lon="2.59806">
        <ele>96.27</ele>
        <time>2017-03-19T10:44:32Z</time>
      </trkpt>
      <trkpt lat="48.38985" lon="2.59801">
        <ele>96.75</ele>
        <time>2017-03-19T10:44:39Z</time>
      </trkpt>
      <trkpt lat="48.38953" lon="2.59795">
        <ele>95.79</ele>
        <time>2017-03-19T10:44:47Z</time>
      </trkpt>
      <trkpt lat="48.38938" lon="2.5979">
        <ele>95.79</ele>
        <time>2017-03-19T10:44:51Z</time>
      </trkpt>
      <trkpt lat="48.389" lon="2.59782">
        <ele>96.27</ele>
        <time>2017-03-19T10:44:59Z</time>
      </trkpt>
      <trkpt lat="48.38882" lon="2.59781">
        <ele>95.79</ele>
        <time>2017-03-19T10:45:02Z</time>
      </trkpt>
      <trkpt lat="48.38855" lon="2.59796">
        <ele>101.08</ele>
        <time>2017-03-19T10:45:08Z</time>
      </trkpt>
      <trkpt lat="48.38833" lon="2.59798">
        <ele>103.96</ele>
        <time>2017-03-19T10:45:13Z</time>
      </trkpt>
      <trkpt lat="48.38807" lon="2.59801">
        <ele>108.29</ele>
        <time>2017-03-19T10:45:23Z</time>
      </trkpt>
      <trkpt lat="48.38793" lon="2.59838">
        <ele>112.61</ele>
        <time>2017-03-19T10:45:34Z</time>
      </trkpt>
      <trkpt lat="48.38791" lon="2.59841">
        <ele>112.61</ele>
        <time>2017-03-19T10:45:35Z</time>
      </trkpt>
      <trkpt lat="48.38779" lon="2.59858">
        <ele>112.61</ele>
        <time>2017-03-19T10:45:40Z</time>
      </trkpt>
      <trkpt lat="48.38756" lon="2.59894">
        <ele>113.09</ele>
        <time>2017-03-19T10:45:50Z</time>
      </trkpt>
      <trkpt lat="48.38733" lon="2.59903">
        <ele>112.61</ele>
        <time>2017-03-19T10:45:58Z</time>
      </trkpt>
      <trkpt lat="48.38721" lon="2.59898">
        <ele>112.13</ele>
        <time>2017-03-19T10:46:02Z</time>
      </trkpt>
      <trkpt lat="48.38707" lon="2.59892">
        <ele>111.65</ele>
        <time>2017-03-19T10:46:05Z</time>
      </trkpt>
      <trkpt lat="48.38691" lon="2.59891">
        <ele>110.69</ele>
        <time>2017-03-19T10:46:08Z</time>
      </trkpt>
      <trkpt lat="48.38672" lon="2.59901">
        <ele>109.25</ele>
        <time>2017-03-19T10:46:12Z</time>
      </trkpt>
      <trkpt lat="48.38646" lon="2.5992">
        <ele>106.84</ele>
        <time>2017-03-19T10:46:20Z</time>
      </trkpt>
      <trkpt lat="48.38644" lon="2.59921">
        <ele>106.36</ele>
        <time>2017-03-19T10:46:21Z</time>
      </trkpt>
      <trkpt lat="48.38637" lon="2.5991">
        <ele>106.84</ele>
        <time>2017-03-19T10:46:25Z</time>
      </trkpt>
      <trkpt lat="48.38642" lon="2.59854">
        <ele>108.77</ele>
        <time>2017-03-19T10:46:36Z</time>
      </trkpt>
      <trkpt lat="48.38643" lon="2.5985">
        <ele>108.77</ele>
        <time>2017-03-19T10:46:37Z</time>
      </trkpt>
      <trkpt lat="48.38648" lon="2.59829">
        <ele>107.81</ele>
        <time>2017-03-19T10:46:43Z</time>
      </trkpt>
      <trkpt lat="48.38651" lon="2.59791">
        <ele>108.77</ele>
        <time>2017-03-19T10:46:52Z</time>
      </trkpt>
      <trkpt lat="48.38653" lon="2.59739">
        <ele>108.77</ele>
        <time>2017-03-19T10:47:01Z</time>
      </trkpt>
      <trkpt lat="48.38654" lon="2.59724">
        <ele>108.29</ele>
        <time>2017-03-19T10:47:04Z</time>
      </trkpt>
      <trkpt lat="48.38654" lon="2.59689">
        <ele>105.4</ele>
        <time>2017-03-19T10:47:12Z</time>
      </trkpt>
      <trkpt lat="48.38657" lon="2.59662">
        <ele>104.44</ele>
        <time>2017-03-19T10:47:17Z</time>
      </trkpt>
      <trkpt lat="48.38664" lon="2.59603">
        <ele>104.44</ele>
        <time>2017-03-19T10:47:28Z</time>
      </trkpt>
      <trkpt lat="48.38665" lon="2.59598">
        <ele>104.44</ele>
        <time>2017-03-19T10:47:29Z</time>
      </trkpt>
      <trkpt lat="48.38667" lon="2.59569">
        <ele>105.4</ele>
        <time>2017-03-19T10:47:35Z</time>
      </trkpt>
      <trkpt lat="48.38671" lon="2.5952">
        <ele>106.36</ele>
        <time>2017-03-19T10:47:44Z</time>
      </trkpt>
      <trkpt lat="48.38671" lon="2.59476">
        <ele>105.4</ele>
        <time>2017-03-19T10:47:52Z</time>
      </trkpt>
      <trkpt lat="48.38665" lon="2.59431">
        <ele>109.25</ele>
        <time>2017-03-19T10:48:00Z</time>
      </trkpt>
      <trkpt lat="48.38657" lon="2.59399">
        <ele>110.69</ele>
        <time>2017-03-19T10:48:06Z</time>
      </trkpt>
      <trkpt lat="48.38645" lon="2.59373">
        <ele>109.73</ele>
        <time>2017-03-19T10:48:10Z</time>
      </trkpt>
      <trkpt lat="48.3863" lon="2.59339">
        <ele>107.32</ele>
        <time>2017-03-19T10:48:14Z</time>
      </trkpt>
      <trkpt lat="48.38625" lon="2.59296">
        <ele>104.92</ele>
        <time>2017-03-19T10:48:18Z</time>
      </trkpt>
      <trkpt lat="48.38643" lon="2.59252">
        <ele>102.52</ele>
        <time>2017-03-19T10:48:24Z</time>
      </trkpt>
      <trkpt lat="48.38651" lon="2.5924">
        <ele>102.04</ele>
        <time>2017-03-19T10:48:26Z</time>
      </trkpt>
      <trkpt lat="48.38668" lon="2.5919">
        <ele>99.63</ele>
        <time>2017-03-19T10:48:33Z</time>
      </trkpt>
      <trkpt lat="48.3864" lon="2.59136">
        <ele>97.23</ele>
        <time>2017-03-19T10:48:43Z</time>
      </trkpt>
      <trkpt lat="48.38637" lon="2.59131">
        <ele>97.23</ele>
        <time>2017-03-19T10:48:44Z</time>
      </trkpt>
      <trkpt lat="48.38627" lon="2.59114">
        <ele>97.71</ele>
        <time>2017-03-19T10:48:48Z</time>
      </trkpt>
      <trkpt lat="48.38601" lon="2.59081">
        <ele>99.15</ele>
        <time>2017-03-19T10:48:54Z</time>
      </trkpt>
      <trkpt lat="48.38582" lon="2.59035">
        <ele>101.08</ele>
        <time>2017-03-19T10:49:03Z</time>
      </trkpt>
      <trkpt lat="48.38567" lon="2.58993">
        <ele>102.52</ele>
        <time>2017-03-19T10:49:10Z</time>
      </trkpt>
      <trkpt lat="48.38553" lon="2.58953">
        <ele>100.11</ele>
        <time>2017-03-19T10:49:18Z</time>
      </trkpt>
      <trkpt lat="48.38541" lon="2.58928">
        <ele>98.67</ele>
        <time>2017-03-19T10:49:24Z</time>
      </trkpt>
      <trkpt lat="48.38528" lon="2.5891">
        <ele>97.23</ele>
        <time>2017-03-19T10:49:28Z</time>
      </trkpt>
      <trkpt lat="48.38509" lon="2.58863">
        <ele>95.31</ele>
        <time>2017-03-19T10:49:36Z</time>
      </trkpt>
      <trkpt lat="48.3849" lon="2.58828">
        <ele>95.31</ele>
        <time>2017-03-19T10:49:44Z</time>
      </trkpt>
      <trkpt lat="48.38488" lon="2.58819">
        <ele>96.75</ele>
        <time>2017-03-19T10:49:46Z</time>
      </trkpt>
      <trkpt lat="48.38477" lon="2.58803">
        <ele>99.15</ele>
        <time>2017-03-19T10:49:51Z</time>
      </trkpt>
      <trkpt lat="48.38449" lon="2.58785">
        <ele>97.71</ele>
        <time>2017-03-19T10:49:59Z</time>
      </trkpt>
      <trkpt lat="48.3843" lon="2.58782">
        <ele>95.79</ele>
        <time>2017-03-19T10:50:05Z</time>
      </trkpt>
      <trkpt lat="48.38415" lon="2.58784">
        <ele>94.35</ele>
        <time>2017-03-19T10:50:08Z</time>
      </trkpt>
      <trkpt lat="48.38396" lon="2.58777">
        <ele>92.42</ele>
        <time>2017-03-19T10:50:12Z</time>
      </trkpt>
      <trkpt lat="48.38378" lon="2.58772">
        <ele>90.5</ele>
        <time>2017-03-19T10:50:17Z</time>
      </trkpt>
      <trkpt lat="48.38377" lon="2.58792">
        <ele>80.89</ele>
        <time>2017-03-19T10:50:24Z</time>
      </trkpt>
      <trkpt lat="48.38382" lon="2.58807">
        <ele>77.04</ele>
        <time>2017-03-19T10:50:29Z</time>
      </trkpt>
      <trkpt lat="48.38389" lon="2.58819">
        <ele>73.2</ele>
        <time>2017-03-19T10:50:33Z</time>
      </trkpt>
      <trkpt lat="48.38408" lon="2.58849">
        <ele>68.39</ele>
        <time>2017-03-19T10:50:43Z</time>
      </trkpt>
      <trkpt lat="48.38424" lon="2.58878">
        <ele>68.39</ele>
        <time>2017-03-19T10:50:52Z</time>
      </trkpt>
      <trkpt lat="48.38431" lon="2.58888">
        <ele>67.91</ele>
        <time>2017-03-19T10:50:55Z</time>
      </trkpt>
      <trkpt lat="48.3844" lon="2.58901">
        <ele>68.87</ele>
        <time>2017-03-19T10:51:00Z</time>
      </trkpt>
      <trkpt lat="48.38448" lon="2.58919">
        <ele>72.24</ele>
        <time>2017-03-19T10:51:06Z</time>
      </trkpt>
      <trkpt lat="48.38459" lon="2.58936">
        <ele>74.16</ele>
        <time>2017-03-19T10:51:13Z</time>
      </trkpt>
      <trkpt lat="48.38463" lon="2.58944">
        <ele>74.64</ele>
        <time>2017-03-19T10:51:16Z</time>
      </trkpt>
      <trkpt lat="48.38467" lon="2.58963">
        <ele>77.52</ele>
        <time>2017-03-19T10:51:24Z</time>
      </trkpt>
      <trkpt lat="48.38469" lon="2.58981">
        <ele>77.52</ele>
        <time>2017-03-19T10:51:30Z</time>
      </trkpt>
      <trkpt lat="48.38469" lon="2.58988">
        <ele>79.45</ele>
        <time>2017-03-19T10:51:33Z</time>
      </trkpt>
      <trkpt lat="48.3847" lon="2.59004">
        <ele>81.37</ele>
        <time>2017-03-19T10:51:42Z</time>
      </trkpt>
      <trkpt lat="48.3847" lon="2.59023">
        <ele>81.37</ele>
        <time>2017-03-19T10:51:50Z</time>
      </trkpt>
      <trkpt lat="48.3847" lon="2.59042">
        <ele>82.81</ele>
        <time>2017-03-19T10:51:59Z</time>
      </trkpt>
      <trkpt lat="48.3847" lon="2.59058">
        <ele>85.69</ele>
        <time>2017-03-19T10:52:07Z</time>
      </trkpt>
      <trkpt lat="48.3847" lon="2.59062">
        <ele>86.66</ele>
        <time>2017-03-19T10:52:09Z</time>
      </trkpt>
      <trkpt lat="48.38469" lon="2.59081">
        <ele>91.46</ele>
        <time>2017-03-19T10:52:19Z</time>
      </trkpt>
      <trkpt lat="48.38468" lon="2.59096">
        <ele>94.83</ele>
        <time>2017-03-19T10:52:28Z</time>
      </trkpt>
      <trkpt lat="48.38467" lon="2.59106">
        <ele>95.31</ele>
        <time>2017-03-19T10:52:34Z</time>
      </trkpt>
      <trkpt lat="48.38463" lon="2.59118">
        <ele>96.75</ele>
        <time>2017-03-19T10:52:44Z</time>
      </trkpt>
      <trkpt lat="48.38456" lon="2.5913">
        <ele>98.19</ele>
        <time>2017-03-19T10:52:53Z</time>
      </trkpt>
      <trkpt lat="48.38449" lon="2.59138">
        <ele>99.15</ele>
        <time>2017-03-19T10:53:02Z</time>
      </trkpt>
      <trkpt lat="48.3844" lon="2.59144">
        <ele>101.56</ele>
        <time>2017-03-19T10:53:11Z</time>
      </trkpt>
      <trkpt lat="48.38431" lon="2.5915">
        <ele>102.04</ele>
        <time>2017-03-19T10:53:19Z</time>
      </trkpt>
      <trkpt lat="48.38429" lon="2.59151">
        <ele>102.52</ele>
        <time>2017-03-19T10:53:21Z</time>
      </trkpt>
      <trkpt lat="48.38416" lon="2.59156">
        <ele>103.48</ele>
        <time>2017-03-19T10:53:33Z</time>
      </trkpt>
      <trkpt lat="48.38407" lon="2.59161">
        <ele>102.04</ele>
        <time>2017-03-19T10:53:44Z</time>
      </trkpt>
      <trkpt lat="48.38399" lon="2.5917">
        <ele>101.56</ele>
        <time>2017-03-19T10:53:54Z</time>
      </trkpt>
      <trkpt lat="48.38391" lon="2.59179">
        <ele>101.08</ele>
        <time>2017-03-19T10:54:04Z</time>
      </trkpt>
      <trkpt lat="48.38382" lon="2.59189">
        <ele>101.08</ele>
        <time>2017-03-19T10:54:16Z</time>
      </trkpt>
      <trkpt lat="48.38372" lon="2.59201">
        <ele>102.52</ele>
        <time>2017-03-19T10:54:27Z</time>
      </trkpt>
      <trkpt lat="48.38363" lon="2.59218">
        <ele>105.88</ele>
        <time>2017-03-19T10:54:38Z</time>
      </trkpt>
      <trkpt lat="48.38355" lon="2.5923">
        <ele>106.84</ele>
        <time>2017-03-19T10:54:48Z</time>
      </trkpt>
      <trkpt lat="48.38348" lon="2.59241">
        <ele>105.4</ele>
        <time>2017-03-19T10:54:58Z</time>
      </trkpt>
      <trkpt lat="48.38339" lon="2.59252">
        <ele>103</ele>
        <time>2017-03-19T10:55:07Z</time>
      </trkpt>
      <trkpt lat="48.38338" lon="2.59254">
        <ele>103</ele>
        <time>2017-03-19T10:55:09Z</time>
      </trkpt>
      <trkpt lat="48.38333" lon="2.59263">
        <ele>103.96</ele>
        <time>2017-03-19T10:55:15Z</time>
      </trkpt>
      <trkpt lat="48.38322" lon="2.59278">
        <ele>107.81</ele>
        <time>2017-03-19T10:55:25Z</time>
      </trkpt>
      <trkpt lat="48.38304" lon="2.59301">
        <ele>108.29</ele>
        <time>2017-03-19T10:55:37Z</time>
      </trkpt>
      <trkpt lat="48.38297" lon="2.59311">
        <ele>107.32</ele>
        <time>2017-03-19T10:55:42Z</time>
      </trkpt>
      <trkpt lat="48.38292" lon="2.59318">
        <ele>106.84</ele>
        <time>2017-03-19T10:55:46Z</time>
      </trkpt>
      <trkpt lat="48.38274" lon="2.59342">
        <ele>107.32</ele>
        <time>2017-03-19T10:55:57Z</time>
      </trkpt>
      <trkpt lat="48.38259" lon="2.59362">
        <ele>105.4</ele>
        <time>2017-03-19T10:56:06Z</time>
      </trkpt>
      <trkpt lat="48.38249" lon="2.59378">
        <ele>107.32</ele>
        <time>2017-03-19T10:56:11Z</time>
      </trkpt>
      <trkpt lat="48.3823" lon="2.59406">
        <ele>110.21</ele>
        <time>2017-03-19T10:56:22Z</time>
      </trkpt>
      <trkpt lat="48.38222" lon="2.59417">
        <ele>109.73</ele>
        <time>2017-03-19T10:56:26Z</time>
      </trkpt>
      <trkpt lat="48.38206" lon="2.59437">
        <ele>107.32</ele>
        <time>2017-03-19T10:56:35Z</time>
      </trkpt>
      <trkpt lat="48.38192" lon="2.59457">
        <ele>102.04</ele>
        <time>2017-03-19T10:56:42Z</time>
      </trkpt>
      <trkpt lat="48.38173" lon="2.59484">
        <ele>97.23</ele>
        <time>2017-03-19T10:56:51Z</time>
      </trkpt>
      <trkpt lat="48.38161" lon="2.59498">
        <ele>95.31</ele>
        <time>2017-03-19T10:56:57Z</time>
      </trkpt>
      <trkpt lat="48.38152" lon="2.59507">
        <ele>95.31</ele>
        <time>2017-03-19T10:57:01Z</time>
      </trkpt>
      <trkpt lat="48.38126" lon="2.59545">
        <ele>97.23</ele>
        <time>2017-03-19T10:57:10Z</time>
      </trkpt>
      <trkpt lat="48.38111" lon="2.59566">
        <ele>98.67</ele>
        <time>2017-03-19T10:57:15Z</time>
      </trkpt>
      <trkpt lat="48.38097" lon="2.59586">
        <ele>100.11</ele>
        <time>2017-03-19T10:57:20Z</time>
      </trkpt>
      <trkpt lat="48.38066" lon="2.59621">
        <ele>104.92</ele>
        <time>2017-03-19T10:57:30Z</time>
      </trkpt>
      <trkpt lat="48.38038" lon="2.59617">
        <ele>106.84</ele>
        <time>2017-03-19T10:57:39Z</time>
      </trkpt>
      <trkpt lat="48.38007" lon="2.59602">
        <ele>106.84</ele>
        <time>2017-03-19T10:57:50Z</time>
      </trkpt>
      <trkpt lat="48.37992" lon="2.59581">
        <ele>106.84</ele>
        <time>2017-03-19T10:57:59Z</time>
      </trkpt>
      <trkpt lat="48.37993" lon="2.59527">
        <ele>111.17</ele>
        <time>2017-03-19T10:58:11Z</time>
      </trkpt>
      <trkpt lat="48.37996" lon="2.59494">
        <ele>112.61</ele>
        <time>2017-03-19T10:58:18Z</time>
      </trkpt>
      <trkpt lat="48.37994" lon="2.59459">
        <ele>112.61</ele>
        <time>2017-03-19T10:58:25Z</time>
      </trkpt>
      <trkpt lat="48.37995" lon="2.5941">
        <ele>112.61</ele>
        <time>2017-03-19T10:58:34Z</time>
      </trkpt>
      <trkpt lat="48.37996" lon="2.59375">
        <ele>112.61</ele>
        <time>2017-03-19T10:58:41Z</time>
      </trkpt>
      <trkpt lat="48.37996" lon="2.59334">
        <ele>113.57</ele>
        <time>2017-03-19T10:58:49Z</time>
      </trkpt>
      <trkpt lat="48.37998" lon="2.59296">
        <ele>109.73</ele>
        <time>2017-03-19T10:58:57Z</time>
      </trkpt>
      <trkpt lat="48.38" lon="2.59251">
        <ele>107.81</ele>
        <time>2017-03-19T10:59:05Z</time>
      </trkpt>
      <trkpt lat="48.38001" lon="2.59203">
        <ele>109.25</ele>
        <time>2017-03-19T10:59:14Z</time>
      </trkpt>
      <trkpt lat="48.38001" lon="2.59179">
        <ele>111.17</ele>
        <time>2017-03-19T10:59:19Z</time>
      </trkpt>
      <trkpt lat="48.38" lon="2.59156">
        <ele>112.13</ele>
        <time>2017-03-19T10:59:24Z</time>
      </trkpt>
      <trkpt lat="48.38002" lon="2.59117">
        <ele>110.21</ele>
        <time>2017-03-19T10:59:33Z</time>
      </trkpt>
      <trkpt lat="48.38002" lon="2.59112">
        <ele>109.73</ele>
        <time>2017-03-19T10:59:34Z</time>
      </trkpt>
      <trkpt lat="48.37986" lon="2.59105">
        <ele>109.25</ele>
        <time>2017-03-19T10:59:41Z</time>
      </trkpt>
      <trkpt lat="48.37984" lon="2.59106">
        <ele>108.77</ele>
        <time>2017-03-19T10:59:42Z</time>
      </trkpt>
      <trkpt lat="48.37949" lon="2.59131">
        <ele>108.77</ele>
        <time>2017-03-19T10:59:57Z</time>
      </trkpt>
      <trkpt lat="48.37925" lon="2.59151">
        <ele>112.13</ele>
        <time>2017-03-19T11:00:07Z</time>
      </trkpt>
      <trkpt lat="48.37903" lon="2.59168">
        <ele>115.98</ele>
        <time>2017-03-19T11:00:16Z</time>
      </trkpt>
      <trkpt lat="48.37886" lon="2.59181">
        <ele>116.94</ele>
        <time>2017-03-19T11:00:24Z</time>
      </trkpt>
      <trkpt lat="48.37867" lon="2.59198">
        <ele>117.9</ele>
        <time>2017-03-19T11:00:33Z</time>
      </trkpt>
      <trkpt lat="48.37845" lon="2.59215">
        <ele>116.94</ele>
        <time>2017-03-19T11:00:43Z</time>
      </trkpt>
      <trkpt lat="48.37829" lon="2.59228">
        <ele>114.53</ele>
        <time>2017-03-19T11:00:51Z</time>
      </trkpt>
      <trkpt lat="48.37805" lon="2.59247">
        <ele>112.61</ele>
        <time>2017-03-19T11:01:01Z</time>
      </trkpt>
      <trkpt lat="48.37787" lon="2.59262">
        <ele>113.57</ele>
        <time>2017-03-19T11:01:09Z</time>
      </trkpt>
      <trkpt lat="48.37768" lon="2.59279">
        <ele>110.69</ele>
        <time>2017-03-19T11:01:18Z</time>
      </trkpt>
      <trkpt lat="48.3775" lon="2.59292">
        <ele>108.29</ele>
        <time>2017-03-19T11:01:26Z</time>
      </trkpt>
      <trkpt lat="48.37728" lon="2.59308">
        <ele>104.92</ele>
        <time>2017-03-19T11:01:36Z</time>
      </trkpt>
      <trkpt lat="48.37707" lon="2.59323">
        <ele>106.36</ele>
        <time>2017-03-19T11:01:44Z</time>
      </trkpt>
      <trkpt lat="48.37689" lon="2.59338">
        <ele>105.4</ele>
        <time>2017-03-19T11:01:52Z</time>
      </trkpt>
      <trkpt lat="48.37666" lon="2.59353">
        <ele>101.56</ele>
        <time>2017-03-19T11:02:02Z</time>
      </trkpt>
      <trkpt lat="48.3765" lon="2.59367">
        <ele>100.6</ele>
        <time>2017-03-19T11:02:11Z</time>
      </trkpt>
      <trkpt lat="48.37629" lon="2.59387">
        <ele>104.92</ele>
        <time>2017-03-19T11:02:20Z</time>
      </trkpt>
      <trkpt lat="48.37625" lon="2.59391">
        <ele>105.4</ele>
        <time>2017-03-19T11:02:22Z</time>
      </trkpt>
      <trkpt lat="48.37598" lon="2.59408">
        <ele>107.32</ele>
        <time>2017-03-19T11:02:35Z</time>
      </trkpt>
      <trkpt lat="48.37584" lon="2.5942">
        <ele>105.4</ele>
        <time>2017-03-19T11:02:43Z</time>
      </trkpt>
      <trkpt lat="48.37561" lon="2.59438">
        <ele>106.84</ele>
        <time>2017-03-19T11:02:54Z</time>
      </trkpt>
      <trkpt lat="48.37549" lon="2.59446">
        <ele>106.84</ele>
        <time>2017-03-19T11:03:01Z</time>
      </trkpt>
      <trkpt lat="48.37545" lon="2.59449">
        <ele>105.88</ele>
        <time>2017-03-19T11:03:03Z</time>
      </trkpt>
      <trkpt lat="48.37539" lon="2.59459">
        <ele>105.88</ele>
        <time>2017-03-19T11:03:07Z</time>
      </trkpt>
      <trkpt lat="48.37536" lon="2.59474">
        <ele>106.84</ele>
        <time>2017-03-19T11:03:11Z</time>
      </trkpt>
      <trkpt lat="48.37533" lon="2.59491">
        <ele>108.29</ele>
        <time>2017-03-19T11:03:14Z</time>
      </trkpt>
      <trkpt lat="48.37526" lon="2.59519">
        <ele>106.36</ele>
        <time>2017-03-19T11:03:20Z</time>
      </trkpt>
      <trkpt lat="48.37522" lon="2.59568">
        <ele>105.4</ele>
        <time>2017-03-19T11:03:28Z</time>
      </trkpt>
      <trkpt lat="48.37522" lon="2.59583">
        <ele>104.92</ele>
        <time>2017-03-19T11:03:30Z</time>
      </trkpt>
      <trkpt lat="48.37522" lon="2.59605">
        <ele>104.92</ele>
        <time>2017-03-19T11:03:33Z</time>
      </trkpt>
      <trkpt lat="48.37522" lon="2.59655">
        <ele>105.4</ele>
        <time>2017-03-19T11:03:40Z</time>
      </trkpt>
      <trkpt lat="48.37524" lon="2.59735">
        <ele>108.29</ele>
        <time>2017-03-19T11:03:51Z</time>
      </trkpt>
      <trkpt lat="48.37531" lon="2.59841">
        <ele>115.01</ele>
        <time>2017-03-19T11:04:05Z</time>
      </trkpt>
      <trkpt lat="48.37531" lon="2.59898">
        <ele>115.5</ele>
        <time>2017-03-19T11:04:12Z</time>
      </trkpt>
      <trkpt lat="48.37534" lon="2.59992">
        <ele>113.57</ele>
        <time>2017-03-19T11:04:21Z</time>
      </trkpt>
      <trkpt lat="48.37532" lon="2.60067">
        <ele>113.09</ele>
        <time>2017-03-19T11:04:29Z</time>
      </trkpt>
      <trkpt lat="48.37531" lon="2.60086">
        <ele>113.09</ele>
        <time>2017-03-19T11:04:31Z</time>
      </trkpt>
      <trkpt lat="48.37528" lon="2.60124">
        <ele>111.65</ele>
        <time>2017-03-19T11:04:35Z</time>
      </trkpt>
      <trkpt lat="48.37529" lon="2.60215">
        <ele>109.25</ele>
        <time>2017-03-19T11:04:45Z</time>
      </trkpt>
      <trkpt lat="48.37531" lon="2.60255">
        <ele>108.29</ele>
        <time>2017-03-19T11:04:49Z</time>
      </trkpt>
      <trkpt lat="48.3753" lon="2.60274">
        <ele>107.32</ele>
        <time>2017-03-19T11:04:51Z</time>
      </trkpt>
      <trkpt lat="48.3753" lon="2.6032">
        <ele>103.96</ele>
        <time>2017-03-19T11:04:56Z</time>
      </trkpt>
      <trkpt lat="48.37529" lon="2.60345">
        <ele>102.04</ele>
        <time>2017-03-19T11:04:59Z</time>
      </trkpt>
      <trkpt lat="48.37538" lon="2.60382">
        <ele>97.23</ele>
        <time>2017-03-19T11:05:05Z</time>
      </trkpt>
      <trkpt lat="48.3755" lon="2.60398">
        <ele>95.79</ele>
        <time>2017-03-19T11:05:08Z</time>
      </trkpt>
      <trkpt lat="48.37561" lon="2.60411">
        <ele>96.75</ele>
        <time>2017-03-19T11:05:11Z</time>
      </trkpt>
      <trkpt lat="48.37591" lon="2.60447">
        <ele>101.08</ele>
        <time>2017-03-19T11:05:20Z</time>
      </trkpt>
      <trkpt lat="48.37613" lon="2.60472">
        <ele>103.48</ele>
        <time>2017-03-19T11:05:28Z</time>
      </trkpt>
      <trkpt lat="48.37638" lon="2.60497">
        <ele>107.81</ele>
        <time>2017-03-19T11:05:37Z</time>
      </trkpt>
      <trkpt lat="48.37656" lon="2.60522">
        <ele>107.81</ele>
        <time>2017-03-19T11:05:46Z</time>
      </trkpt>
      <trkpt lat="48.37673" lon="2.60543">
        <ele>104.44</ele>
        <time>2017-03-19T11:05:54Z</time>
      </trkpt>
      <trkpt lat="48.37676" lon="2.60546">
        <ele>104.44</ele>
        <time>2017-03-19T11:05:55Z</time>
      </trkpt>
      <trkpt lat="48.37696" lon="2.60572">
        <ele>104.92</ele>
        <time>2017-03-19T11:06:04Z</time>
      </trkpt>
      <trkpt lat="48.37717" lon="2.60596">
        <ele>107.32</ele>
        <time>2017-03-19T11:06:12Z</time>
      </trkpt>
      <trkpt lat="48.37736" lon="2.60616">
        <ele>109.25</ele>
        <time>2017-03-19T11:06:20Z</time>
      </trkpt>
      <trkpt lat="48.37759" lon="2.60641">
        <ele>112.13</ele>
        <time>2017-03-19T11:06:29Z</time>
      </trkpt>
      <trkpt lat="48.3778" lon="2.60665">
        <ele>115.01</ele>
        <time>2017-03-19T11:06:38Z</time>
      </trkpt>
      <trkpt lat="48.37804" lon="2.60693">
        <ele>117.9</ele>
        <time>2017-03-19T11:06:48Z</time>
      </trkpt>
      <trkpt lat="48.3782" lon="2.60714">
        <ele>117.9</ele>
        <time>2017-03-19T11:06:56Z</time>
      </trkpt>
      <trkpt lat="48.37828" lon="2.60726">
        <ele>116.94</ele>
        <time>2017-03-19T11:07:00Z</time>
      </trkpt>
      <trkpt lat="48.3785" lon="2.60753">
        <ele>118.86</ele>
        <time>2017-03-19T11:07:10Z</time>
      </trkpt>
      <trkpt lat="48.37866" lon="2.60772">
        <ele>121.26</ele>
        <time>2017-03-19T11:07:17Z</time>
      </trkpt>
      <trkpt lat="48.37868" lon="2.60775">
        <ele>121.74</ele>
        <time>2017-03-19T11:07:18Z</time>
      </trkpt>
      <trkpt lat="48.37888" lon="2.60798">
        <ele>123.19</ele>
        <time>2017-03-19T11:07:26Z</time>
      </trkpt>
      <trkpt lat="48.37905" lon="2.60817">
        <ele>121.26</ele>
        <time>2017-03-19T11:07:33Z</time>
      </trkpt>
      <trkpt lat="48.37921" lon="2.60839">
        <ele>120.3</ele>
        <time>2017-03-19T11:07:41Z</time>
      </trkpt>
      <trkpt lat="48.37945" lon="2.60865">
        <ele>119.34</ele>
        <time>2017-03-19T11:07:50Z</time>
      </trkpt>
      <trkpt lat="48.37967" lon="2.60893">
        <ele>118.38</ele>
        <time>2017-03-19T11:07:59Z</time>
      </trkpt>
      <trkpt lat="48.37982" lon="2.60911">
        <ele>117.9</ele>
        <time>2017-03-19T11:08:05Z</time>
      </trkpt>
      <trkpt lat="48.38003" lon="2.60938">
        <ele>116.94</ele>
        <time>2017-03-19T11:08:14Z</time>
      </trkpt>
      <trkpt lat="48.38027" lon="2.60963">
        <ele>117.9</ele>
        <time>2017-03-19T11:08:23Z</time>
      </trkpt>
      <trkpt lat="48.38041" lon="2.60981">
        <ele>116.94</ele>
        <time>2017-03-19T11:08:30Z</time>
      </trkpt>
      <trkpt lat="48.38055" lon="2.61001">
        <ele>117.9</ele>
        <time>2017-03-19T11:08:37Z</time>
      </trkpt>
      <trkpt lat="48.38059" lon="2.61006">
        <ele>118.38</ele>
        <time>2017-03-19T11:08:39Z</time>
      </trkpt>
      <trkpt lat="48.38073" lon="2.61018">
        <ele>118.86</ele>
        <time>2017-03-19T11:08:43Z</time>
      </trkpt>
      <trkpt lat="48.38095" lon="2.61047">
        <ele>120.3</ele>
        <time>2017-03-19T11:08:52Z</time>
      </trkpt>
      <trkpt lat="48.38116" lon="2.61072">
        <ele>119.82</ele>
        <time>2017-03-19T11:09:01Z</time>
      </trkpt>
      <trkpt lat="48.38128" lon="2.6109">
        <ele>117.9</ele>
        <time>2017-03-19T11:09:09Z</time>
      </trkpt>
      <trkpt lat="48.38129" lon="2.61094">
        <ele>116.94</ele>
        <time>2017-03-19T11:09:11Z</time>
      </trkpt>
      <trkpt lat="48.38124" lon="2.61096">
        <ele>115.98</ele>
        <time>2017-03-19T11:09:14Z</time>
      </trkpt>
      <trkpt lat="48.38116" lon="2.61101">
        <ele>114.53</ele>
        <time>2017-03-19T11:09:18Z</time>
      </trkpt>
      <trkpt lat="48.38096" lon="2.61111">
        <ele>113.57</ele>
        <time>2017-03-19T11:09:28Z</time>
      </trkpt>
      <trkpt lat="48.38094" lon="2.6111">
        <ele>112.61</ele>
        <time>2017-03-19T11:09:33Z</time>
      </trkpt>
      <trkpt lat="48.38091" lon="2.61102">
        <ele>112.61</ele>
        <time>2017-03-19T11:09:39Z</time>
      </trkpt>
      <trkpt lat="48.38091" lon="2.61093">
        <ele>112.61</ele>
        <time>2017-03-19T11:09:48Z</time>
      </trkpt>
      <trkpt lat="48.38091" lon="2.6109">
        <ele>114.53</ele>
        <time>2017-03-19T11:09:59Z</time>
      </trkpt>
      <trkpt lat="48.38091" lon="2.61089">
        <ele>115.5</ele>
        <time>2017-03-19T11:10:26Z</time>
      </trkpt>
      <trkpt lat="48.38091" lon="2.6109">
        <ele>115.01</ele>
        <time>2017-03-19T11:10:46Z</time>
      </trkpt>
      <trkpt lat="48.38091" lon="2.61089">
        <ele>115.98</ele>
        <time>2017-03-19T11:11:08Z</time>
      </trkpt>
      <trkpt lat="48.38094" lon="2.61091">
        <ele>116.46</ele>
        <time>2017-03-19T11:11:35Z</time>
      </trkpt>
      <trkpt lat="48.38093" lon="2.61092">
        <ele>116.94</ele>
        <time>2017-03-19T11:11:58Z</time>
      </trkpt>
      <trkpt lat="48.38093" lon="2.61092">
        <ele>119.34</ele>
        <time>2017-03-19T11:12:15Z</time>
      </trkpt>
      <trkpt lat="48.38092" lon="2.61092">
        <ele>121.26</ele>
        <time>2017-03-19T11:12:45Z</time>
      </trkpt>
      <trkpt lat="48.38092" lon="2.61093">
        <ele>121.26</ele>
        <time>2017-03-19T11:13:09Z</time>
      </trkpt>
      <trkpt lat="48.38091" lon="2.61093">
        <ele>121.26</ele>
        <time>2017-03-19T11:13:32Z</time>
      </trkpt>
      <trkpt lat="48.38092" lon="2.61091">
        <ele>122.71</ele>
        <time>2017-03-19T11:14:01Z</time>
      </trkpt>
      <trkpt lat="48.38092" lon="2.6109">
        <ele>122.71</ele>
        <time>2017-03-19T11:14:23Z</time>
      </trkpt>
      <trkpt lat="48.38092" lon="2.61091">
        <ele>123.19</ele>
        <time>2017-03-19T11:14:41Z</time>
      </trkpt>
      <trkpt lat="48.38092" lon="2.61091">
        <ele>124.15</ele>
        <time>2017-03-19T11:15:03Z</time>
      </trkpt>
      <trkpt lat="48.38093" lon="2.6109">
        <ele>125.59</ele>
        <time>2017-03-19T11:15:29Z</time>
      </trkpt>
      <trkpt lat="48.38093" lon="2.61091">
        <ele>125.11</ele>
        <time>2017-03-19T11:15:55Z</time>
      </trkpt>
      <trkpt lat="48.38092" lon="2.6109">
        <ele>124.15</ele>
        <time>2017-03-19T11:16:21Z</time>
      </trkpt>
      <trkpt lat="48.38092" lon="2.61091">
        <ele>125.11</ele>
        <time>2017-03-19T11:16:42Z</time>
      </trkpt>
      <trkpt lat="48.38092" lon="2.6109">
        <ele>126.07</ele>
        <time>2017-03-19T11:17:02Z</time>
      </trkpt>
      <trkpt lat="48.38092" lon="2.61091">
        <ele>126.55</ele>
        <time>2017-03-19T11:17:04Z</time>
      </trkpt>
      <trkpt lat="48.38091" lon="2.61093">
        <ele>126.55</ele>
        <time>2017-03-19T11:17:06Z</time>
      </trkpt>
      <trkpt lat="48.38092" lon="2.61101">
        <ele>126.07</ele>
        <time>2017-03-19T11:17:11Z</time>
      </trkpt>
      <trkpt lat="48.38098" lon="2.6111">
        <ele>122.71</ele>
        <time>2017-03-19T11:17:19Z</time>
      </trkpt>
      <trkpt lat="48.381" lon="2.61111">
        <ele>123.19</ele>
        <time>2017-03-19T11:17:29Z</time>
      </trkpt>
      <trkpt lat="48.38117" lon="2.61102">
        <ele>122.71</ele>
        <time>2017-03-19T11:17:38Z</time>
      </trkpt>
      <trkpt lat="48.38134" lon="2.61105">
        <ele>122.71</ele>
        <time>2017-03-19T11:17:45Z</time>
      </trkpt>
      <trkpt lat="48.38135" lon="2.6112">
        <ele>122.71</ele>
        <time>2017-03-19T11:17:49Z</time>
      </trkpt>
      <trkpt lat="48.38133" lon="2.61146">
        <ele>123.19</ele>
        <time>2017-03-19T11:17:54Z</time>
      </trkpt>
      <trkpt lat="48.38128" lon="2.61191">
        <ele>121.74</ele>
        <time>2017-03-19T11:18:02Z</time>
      </trkpt>
      <trkpt lat="48.38132" lon="2.61226">
        <ele>121.26</ele>
        <time>2017-03-19T11:18:09Z</time>
      </trkpt>
      <trkpt lat="48.3813" lon="2.61245">
        <ele>120.78</ele>
        <time>2017-03-19T11:18:12Z</time>
      </trkpt>
      <trkpt lat="48.3813" lon="2.61279">
        <ele>120.3</ele>
        <time>2017-03-19T11:18:17Z</time>
      </trkpt>
      <trkpt lat="48.3813" lon="2.61305">
        <ele>120.78</ele>
        <time>2017-03-19T11:18:21Z</time>
      </trkpt>
      <trkpt lat="48.38129" lon="2.61352">
        <ele>121.26</ele>
        <time>2017-03-19T11:18:27Z</time>
      </trkpt>
      <trkpt lat="48.38127" lon="2.6139">
        <ele>118.86</ele>
        <time>2017-03-19T11:18:32Z</time>
      </trkpt>
      <trkpt lat="48.38124" lon="2.61426">
        <ele>117.42</ele>
        <time>2017-03-19T11:18:37Z</time>
      </trkpt>
      <trkpt lat="48.38126" lon="2.61439">
        <ele>116.46</ele>
        <time>2017-03-19T11:18:39Z</time>
      </trkpt>
      <trkpt lat="48.38129" lon="2.61491">
        <ele>112.61</ele>
        <time>2017-03-19T11:18:46Z</time>
      </trkpt>
      <trkpt lat="48.38128" lon="2.61498">
        <ele>112.13</ele>
        <time>2017-03-19T11:18:47Z</time>
      </trkpt>
      <trkpt lat="48.38129" lon="2.61521">
        <ele>110.21</ele>
        <time>2017-03-19T11:18:50Z</time>
      </trkpt>
      <trkpt lat="48.38129" lon="2.61556">
        <ele>108.29</ele>
        <time>2017-03-19T11:18:55Z</time>
      </trkpt>
      <trkpt lat="48.38124" lon="2.61589">
        <ele>106.36</ele>
        <time>2017-03-19T11:19:00Z</time>
      </trkpt>
      <trkpt lat="48.38121" lon="2.61638">
        <ele>104.92</ele>
        <time>2017-03-19T11:19:07Z</time>
      </trkpt>
      <trkpt lat="48.38122" lon="2.61651">
        <ele>104.92</ele>
        <time>2017-03-19T11:19:09Z</time>
      </trkpt>
      <trkpt lat="48.38126" lon="2.6168">
        <ele>104.44</ele>
        <time>2017-03-19T11:19:14Z</time>
      </trkpt>
      <trkpt lat="48.38127" lon="2.61704">
        <ele>103.96</ele>
        <time>2017-03-19T11:19:18Z</time>
      </trkpt>
      <trkpt lat="48.38125" lon="2.61732">
        <ele>103</ele>
        <time>2017-03-19T11:19:22Z</time>
      </trkpt>
      <trkpt lat="48.3814" lon="2.61766">
        <ele>101.08</ele>
        <time>2017-03-19T11:19:29Z</time>
      </trkpt>
      <trkpt lat="48.38141" lon="2.61771">
        <ele>100.11</ele>
        <time>2017-03-19T11:19:30Z</time>
      </trkpt>
      <trkpt lat="48.38156" lon="2.61816">
        <ele>95.31</ele>
        <time>2017-03-19T11:19:39Z</time>
      </trkpt>
      <trkpt lat="48.38157" lon="2.61852">
        <ele>96.27</ele>
        <time>2017-03-19T11:19:45Z</time>
      </trkpt>
      <trkpt lat="48.38161" lon="2.619">
        <ele>101.08</ele>
        <time>2017-03-19T11:19:54Z</time>
      </trkpt>
      <trkpt lat="48.38169" lon="2.61945">
        <ele>102.52</ele>
        <time>2017-03-19T11:20:03Z</time>
      </trkpt>
      <trkpt lat="48.38174" lon="2.61971">
        <ele>99.63</ele>
        <time>2017-03-19T11:20:08Z</time>
      </trkpt>
      <trkpt lat="48.38179" lon="2.61994">
        <ele>100.6</ele>
        <time>2017-03-19T11:20:12Z</time>
      </trkpt>
      <trkpt lat="48.38183" lon="2.62003">
        <ele>102.04</ele>
        <time>2017-03-19T11:20:14Z</time>
      </trkpt>
      <trkpt lat="48.38189" lon="2.62031">
        <ele>103.48</ele>
        <time>2017-03-19T11:20:19Z</time>
      </trkpt>
      <trkpt lat="48.38198" lon="2.62073">
        <ele>105.88</ele>
        <time>2017-03-19T11:20:27Z</time>
      </trkpt>
      <trkpt lat="48.3821" lon="2.62126">
        <ele>108.29</ele>
        <time>2017-03-19T11:20:37Z</time>
      </trkpt>
      <trkpt lat="48.38231" lon="2.62178">
        <ele>109.25</ele>
        <time>2017-03-19T11:20:48Z</time>
      </trkpt>
      <trkpt lat="48.38246" lon="2.62205">
        <ele>110.21</ele>
        <time>2017-03-19T11:20:55Z</time>
      </trkpt>
      <trkpt lat="48.38262" lon="2.62231">
        <ele>113.57</ele>
        <time>2017-03-19T11:21:01Z</time>
      </trkpt>
      <trkpt lat="48.38277" lon="2.62275">
        <ele>115.98</ele>
        <time>2017-03-19T11:21:10Z</time>
      </trkpt>
      <trkpt lat="48.38278" lon="2.62284">
        <ele>115.98</ele>
        <time>2017-03-19T11:21:12Z</time>
      </trkpt>
      <trkpt lat="48.38294" lon="2.62324">
        <ele>117.9</ele>
        <time>2017-03-19T11:21:20Z</time>
      </trkpt>
      <trkpt lat="48.38303" lon="2.62346">
        <ele>119.34</ele>
        <time>2017-03-19T11:21:25Z</time>
      </trkpt>
      <trkpt lat="48.38307" lon="2.62376">
        <ele>118.38</ele>
        <time>2017-03-19T11:21:31Z</time>
      </trkpt>
      <trkpt lat="48.38317" lon="2.62395">
        <ele>119.82</ele>
        <time>2017-03-19T11:21:35Z</time>
      </trkpt>
      <trkpt lat="48.38337" lon="2.6244">
        <ele>120.78</ele>
        <time>2017-03-19T11:21:44Z</time>
      </trkpt>
      <trkpt lat="48.38345" lon="2.62482">
        <ele>118.86</ele>
        <time>2017-03-19T11:21:52Z</time>
      </trkpt>
      <trkpt lat="48.38349" lon="2.62497">
        <ele>118.86</ele>
        <time>2017-03-19T11:21:55Z</time>
      </trkpt>
      <trkpt lat="48.38356" lon="2.62531">
        <ele>118.86</ele>
        <time>2017-03-19T11:22:02Z</time>
      </trkpt>
      <trkpt lat="48.38358" lon="2.62542">
        <ele>118.86</ele>
        <time>2017-03-19T11:22:04Z</time>
      </trkpt>
      <trkpt lat="48.38371" lon="2.62565">
        <ele>118.86</ele>
        <time>2017-03-19T11:22:09Z</time>
      </trkpt>
      <trkpt lat="48.38382" lon="2.62611">
        <ele>118.86</ele>
        <time>2017-03-19T11:22:17Z</time>
      </trkpt>
      <trkpt lat="48.38386" lon="2.62622">
        <ele>118.86</ele>
        <time>2017-03-19T11:22:19Z</time>
      </trkpt>
      <trkpt lat="48.38401" lon="2.6266">
        <ele>119.34</ele>
        <time>2017-03-19T11:22:26Z</time>
      </trkpt>
      <trkpt lat="48.3841" lon="2.62694">
        <ele>118.86</ele>
        <time>2017-03-19T11:22:32Z</time>
      </trkpt>
      <trkpt lat="48.38426" lon="2.6274">
        <ele>119.34</ele>
        <time>2017-03-19T11:22:40Z</time>
      </trkpt>
      <trkpt lat="48.38433" lon="2.62762">
        <ele>119.34</ele>
        <time>2017-03-19T11:22:44Z</time>
      </trkpt>
      <trkpt lat="48.38449" lon="2.62805">
        <ele>120.3</ele>
        <time>2017-03-19T11:22:52Z</time>
      </trkpt>
      <trkpt lat="48.38457" lon="2.62826">
        <ele>122.22</ele>
        <time>2017-03-19T11:22:56Z</time>
      </trkpt>
      <trkpt lat="48.38468" lon="2.62854">
        <ele>122.71</ele>
        <time>2017-03-19T11:23:01Z</time>
      </trkpt>
      <trkpt lat="48.38482" lon="2.62897">
        <ele>122.71</ele>
        <time>2017-03-19T11:23:09Z</time>
      </trkpt>
      <trkpt lat="48.38484" lon="2.62903">
        <ele>122.71</ele>
        <time>2017-03-19T11:23:10Z</time>
      </trkpt>
      <trkpt lat="48.38491" lon="2.62927">
        <ele>123.19</ele>
        <time>2017-03-19T11:23:14Z</time>
      </trkpt>
      <trkpt lat="48.38504" lon="2.62976">
        <ele>124.15</ele>
        <time>2017-03-19T11:23:23Z</time>
      </trkpt>
      <trkpt lat="48.38515" lon="2.6301">
        <ele>123.19</ele>
        <time>2017-03-19T11:23:30Z</time>
      </trkpt>
      <trkpt lat="48.38521" lon="2.6303">
        <ele>122.71</ele>
        <time>2017-03-19T11:23:34Z</time>
      </trkpt>
      <trkpt lat="48.38525" lon="2.63069">
        <ele>124.15</ele>
        <time>2017-03-19T11:23:42Z</time>
      </trkpt>
      <trkpt lat="48.38529" lon="2.63079">
        <ele>124.63</ele>
        <time>2017-03-19T11:23:44Z</time>
      </trkpt>
      <trkpt lat="48.38541" lon="2.63094">
        <ele>125.11</ele>
        <time>2017-03-19T11:23:48Z</time>
      </trkpt>
      <trkpt lat="48.38546" lon="2.6311">
        <ele>125.11</ele>
        <time>2017-03-19T11:23:51Z</time>
      </trkpt>
      <trkpt lat="48.38551" lon="2.63128">
        <ele>125.11</ele>
        <time>2017-03-19T11:23:54Z</time>
      </trkpt>
      <trkpt lat="48.38554" lon="2.63164">
        <ele>124.63</ele>
        <time>2017-03-19T11:24:00Z</time>
      </trkpt>
      <trkpt lat="48.38554" lon="2.63189">
        <ele>125.59</ele>
        <time>2017-03-19T11:24:04Z</time>
      </trkpt>
      <trkpt lat="48.38555" lon="2.63203">
        <ele>126.07</ele>
        <time>2017-03-19T11:24:06Z</time>
      </trkpt>
      <trkpt lat="48.38554" lon="2.63236">
        <ele>127.03</ele>
        <time>2017-03-19T11:24:11Z</time>
      </trkpt>
      <trkpt lat="48.38555" lon="2.63264">
        <ele>127.51</ele>
        <time>2017-03-19T11:24:15Z</time>
      </trkpt>
      <trkpt lat="48.38554" lon="2.63304">
        <ele>127.51</ele>
        <time>2017-03-19T11:24:21Z</time>
      </trkpt>
      <trkpt lat="48.38561" lon="2.63371">
        <ele>129.43</ele>
        <time>2017-03-19T11:24:32Z</time>
      </trkpt>
      <trkpt lat="48.38561" lon="2.63385">
        <ele>129.43</ele>
        <time>2017-03-19T11:24:34Z</time>
      </trkpt>
      <trkpt lat="48.38562" lon="2.63412">
        <ele>129.92</ele>
        <time>2017-03-19T11:24:38Z</time>
      </trkpt>
      <trkpt lat="48.38563" lon="2.63438">
        <ele>128.95</ele>
        <time>2017-03-19T11:24:42Z</time>
      </trkpt>
      <trkpt lat="48.38566" lon="2.63505">
        <ele>127.51</ele>
        <time>2017-03-19T11:24:52Z</time>
      </trkpt>
      <trkpt lat="48.38567" lon="2.63533">
        <ele>126.07</ele>
        <time>2017-03-19T11:24:56Z</time>
      </trkpt>
      <trkpt lat="48.38571" lon="2.6356">
        <ele>124.63</ele>
        <time>2017-03-19T11:25:00Z</time>
      </trkpt>
      <trkpt lat="48.38572" lon="2.63593">
        <ele>121.74</ele>
        <time>2017-03-19T11:25:05Z</time>
      </trkpt>
      <trkpt lat="48.38575" lon="2.6365">
        <ele>120.3</ele>
        <time>2017-03-19T11:25:13Z</time>
      </trkpt>
      <trkpt lat="48.38574" lon="2.63673">
        <ele>120.3</ele>
        <time>2017-03-19T11:25:16Z</time>
      </trkpt>
      <trkpt lat="48.38582" lon="2.63699">
        <ele>119.82</ele>
        <time>2017-03-19T11:25:21Z</time>
      </trkpt>
      <trkpt lat="48.38618" lon="2.63707">
        <ele>119.34</ele>
        <time>2017-03-19T11:25:30Z</time>
      </trkpt>
      <trkpt lat="48.38637" lon="2.6371">
        <ele>119.34</ele>
        <time>2017-03-19T11:25:34Z</time>
      </trkpt>
      <trkpt lat="48.38656" lon="2.63716">
        <ele>118.38</ele>
        <time>2017-03-19T11:25:38Z</time>
      </trkpt>
      <trkpt lat="48.38689" lon="2.63722">
        <ele>117.42</ele>
        <time>2017-03-19T11:25:46Z</time>
      </trkpt>
      <trkpt lat="48.38697" lon="2.63724">
        <ele>117.42</ele>
        <time>2017-03-19T11:25:48Z</time>
      </trkpt>
      <trkpt lat="48.38729" lon="2.63727">
        <ele>115.98</ele>
        <time>2017-03-19T11:25:54Z</time>
      </trkpt>
      <trkpt lat="48.38751" lon="2.6373">
        <ele>115.5</ele>
        <time>2017-03-19T11:26:00Z</time>
      </trkpt>
      <trkpt lat="48.38761" lon="2.6373">
        <ele>115.5</ele>
        <time>2017-03-19T11:26:04Z</time>
      </trkpt>
      <trkpt lat="48.38781" lon="2.63733">
        <ele>117.9</ele>
        <time>2017-03-19T11:26:14Z</time>
      </trkpt>
      <trkpt lat="48.38794" lon="2.63739">
        <ele>119.34</ele>
        <time>2017-03-19T11:26:24Z</time>
      </trkpt>
      <trkpt lat="48.38807" lon="2.63743">
        <ele>120.3</ele>
        <time>2017-03-19T11:26:32Z</time>
      </trkpt>
      <trkpt lat="48.3882" lon="2.63745">
        <ele>120.78</ele>
        <time>2017-03-19T11:26:40Z</time>
      </trkpt>
      <trkpt lat="48.38823" lon="2.6376">
        <ele>121.26</ele>
        <time>2017-03-19T11:26:46Z</time>
      </trkpt>
      <trkpt lat="48.38825" lon="2.63772">
        <ele>120.3</ele>
        <time>2017-03-19T11:26:50Z</time>
      </trkpt>
      <trkpt lat="48.38828" lon="2.63791">
        <ele>119.34</ele>
        <time>2017-03-19T11:26:58Z</time>
      </trkpt>
      <trkpt lat="48.38831" lon="2.63809">
        <ele>116.46</ele>
        <time>2017-03-19T11:27:04Z</time>
      </trkpt>
      <trkpt lat="48.38833" lon="2.6384">
        <ele>114.53</ele>
        <time>2017-03-19T11:27:12Z</time>
      </trkpt>
      <trkpt lat="48.38828" lon="2.63874">
        <ele>112.61</ele>
        <time>2017-03-19T11:27:19Z</time>
      </trkpt>
      <trkpt lat="48.38832" lon="2.63896">
        <ele>112.61</ele>
        <time>2017-03-19T11:27:24Z</time>
      </trkpt>
      <trkpt lat="48.38834" lon="2.63929">
        <ele>114.05</ele>
        <time>2017-03-19T11:27:31Z</time>
      </trkpt>
      <trkpt lat="48.38839" lon="2.63948">
        <ele>114.53</ele>
        <time>2017-03-19T11:27:35Z</time>
      </trkpt>
      <trkpt lat="48.38849" lon="2.63993">
        <ele>114.53</ele>
        <time>2017-03-19T11:27:43Z</time>
      </trkpt>
      <trkpt lat="48.38853" lon="2.64017">
        <ele>114.05</ele>
        <time>2017-03-19T11:27:47Z</time>
      </trkpt>
      <trkpt lat="48.38859" lon="2.64065">
        <ele>113.57</ele>
        <time>2017-03-19T11:27:56Z</time>
      </trkpt>
      <trkpt lat="48.38855" lon="2.64103">
        <ele>113.09</ele>
        <time>2017-03-19T11:28:04Z</time>
      </trkpt>
      <trkpt lat="48.38838" lon="2.64138">
        <ele>112.61</ele>
        <time>2017-03-19T11:28:12Z</time>
      </trkpt>
      <trkpt lat="48.38828" lon="2.6416">
        <ele>113.09</ele>
        <time>2017-03-19T11:28:16Z</time>
      </trkpt>
      <trkpt lat="48.38811" lon="2.64195">
        <ele>115.5</ele>
        <time>2017-03-19T11:28:22Z</time>
      </trkpt>
      <trkpt lat="48.38802" lon="2.64242">
        <ele>115.98</ele>
        <time>2017-03-19T11:28:28Z</time>
      </trkpt>
      <trkpt lat="48.38812" lon="2.64328">
        <ele>113.09</ele>
        <time>2017-03-19T11:28:36Z</time>
      </trkpt>
      <trkpt lat="48.38835" lon="2.6445">
        <ele>108.77</ele>
        <time>2017-03-19T11:28:44Z</time>
      </trkpt>
      <trkpt lat="48.38854" lon="2.64601">
        <ele>102.04</ele>
        <time>2017-03-19T11:28:54Z</time>
      </trkpt>
      <trkpt lat="48.3886" lon="2.64661">
        <ele>98.19</ele>
        <time>2017-03-19T11:28:59Z</time>
      </trkpt>
      <trkpt lat="48.38852" lon="2.6467">
        <ele>95.79</ele>
        <time>2017-03-19T11:29:03Z</time>
      </trkpt>
      <trkpt lat="48.38839" lon="2.64663">
        <ele>94.83</ele>
        <time>2017-03-19T11:29:06Z</time>
      </trkpt>
      <trkpt lat="48.388" lon="2.64641">
        <ele>93.39</ele>
        <time>2017-03-19T11:29:15Z</time>
      </trkpt>
      <trkpt lat="48.38761" lon="2.64624">
        <ele>94.35</ele>
        <time>2017-03-19T11:29:26Z</time>
      </trkpt>
      <trkpt lat="48.3872" lon="2.64605">
        <ele>94.35</ele>
        <time>2017-03-19T11:29:37Z</time>
      </trkpt>
      <trkpt lat="48.38695" lon="2.64593">
        <ele>94.83</ele>
        <time>2017-03-19T11:29:45Z</time>
      </trkpt>
      <trkpt lat="48.38669" lon="2.64582">
        <ele>92.9</ele>
        <time>2017-03-19T11:29:52Z</time>
      </trkpt>
      <trkpt lat="48.38665" lon="2.6458">
        <ele>92.42</ele>
        <time>2017-03-19T11:29:53Z</time>
      </trkpt>
      <trkpt lat="48.38656" lon="2.64597">
        <ele>90.02</ele>
        <time>2017-03-19T11:29:58Z</time>
      </trkpt>
      <trkpt lat="48.38657" lon="2.64604">
        <ele>89.54</ele>
        <time>2017-03-19T11:29:59Z</time>
      </trkpt>
      <trkpt lat="48.3866" lon="2.64642">
        <ele>88.58</ele>
        <time>2017-03-19T11:30:04Z</time>
      </trkpt>
      <trkpt lat="48.3866" lon="2.64664">
        <ele>87.62</ele>
        <time>2017-03-19T11:30:07Z</time>
      </trkpt>
      <trkpt lat="48.38661" lon="2.64716">
        <ele>86.18</ele>
        <time>2017-03-19T11:30:14Z</time>
      </trkpt>
      <trkpt lat="48.38663" lon="2.64746">
        <ele>85.69</ele>
        <time>2017-03-19T11:30:18Z</time>
      </trkpt>
      <trkpt lat="48.3867" lon="2.64802">
        <ele>86.18</ele>
        <time>2017-03-19T11:30:28Z</time>
      </trkpt>
      <trkpt lat="48.38674" lon="2.64846">
        <ele>85.21</ele>
        <time>2017-03-19T11:30:36Z</time>
      </trkpt>
      <trkpt lat="48.38677" lon="2.64902">
        <ele>83.29</ele>
        <time>2017-03-19T11:30:46Z</time>
      </trkpt>
      <trkpt lat="48.3868" lon="2.64921">
        <ele>83.77</ele>
        <time>2017-03-19T11:30:49Z</time>
      </trkpt>
      <trkpt lat="48.38685" lon="2.64982">
        <ele>83.77</ele>
        <time>2017-03-19T11:30:59Z</time>
      </trkpt>
      <trkpt lat="48.38689" lon="2.65017">
        <ele>84.25</ele>
        <time>2017-03-19T11:31:05Z</time>
      </trkpt>
      <trkpt lat="48.38685" lon="2.65021">
        <ele>86.66</ele>
        <time>2017-03-19T11:31:11Z</time>
      </trkpt>
      <trkpt lat="48.38676" lon="2.65009">
        <ele>87.62</ele>
        <time>2017-03-19T11:31:19Z</time>
      </trkpt>
      <trkpt lat="48.38664" lon="2.64995">
        <ele>89.54</ele>
        <time>2017-03-19T11:31:28Z</time>
      </trkpt>
      <trkpt lat="48.38647" lon="2.64973">
        <ele>92.42</ele>
        <time>2017-03-19T11:31:39Z</time>
      </trkpt>
      <trkpt lat="48.38641" lon="2.64966">
        <ele>92.42</ele>
        <time>2017-03-19T11:31:43Z</time>
      </trkpt>
      <trkpt lat="48.38629" lon="2.64954">
        <ele>94.35</ele>
        <time>2017-03-19T11:31:49Z</time>
      </trkpt>
      <trkpt lat="48.38612" lon="2.64933">
        <ele>98.19</ele>
        <time>2017-03-19T11:31:59Z</time>
      </trkpt>
      <trkpt lat="48.38594" lon="2.64908">
        <ele>99.63</ele>
        <time>2017-03-19T11:32:11Z</time>
      </trkpt>
      <trkpt lat="48.3858" lon="2.64891">
        <ele>98.67</ele>
        <time>2017-03-19T11:32:20Z</time>
      </trkpt>
      <trkpt lat="48.38566" lon="2.64871">
        <ele>95.31</ele>
        <time>2017-03-19T11:32:30Z</time>
      </trkpt>
      <trkpt lat="48.38559" lon="2.64868">
        <ele>94.35</ele>
        <time>2017-03-19T11:32:36Z</time>
      </trkpt>
      <trkpt lat="48.38551" lon="2.64878">
        <ele>97.23</ele>
        <time>2017-03-19T11:32:46Z</time>
      </trkpt>
      <trkpt lat="48.38543" lon="2.64892">
        <ele>98.67</ele>
        <time>2017-03-19T11:32:58Z</time>
      </trkpt>
      <trkpt lat="48.38539" lon="2.649">
        <ele>101.08</ele>
        <time>2017-03-19T11:33:04Z</time>
      </trkpt>
      <trkpt lat="48.38537" lon="2.64912">
        <ele>103.96</ele>
        <time>2017-03-19T11:33:13Z</time>
      </trkpt>
      <trkpt lat="48.38534" lon="2.64925">
        <ele>107.81</ele>
        <time>2017-03-19T11:33:23Z</time>
      </trkpt>
      <trkpt lat="48.38528" lon="2.64936">
        <ele>110.69</ele>
        <time>2017-03-19T11:33:33Z</time>
      </trkpt>
      <trkpt lat="48.38522" lon="2.64946">
        <ele>112.13</ele>
        <time>2017-03-19T11:33:41Z</time>
      </trkpt>
      <trkpt lat="48.38518" lon="2.64953">
        <ele>113.09</ele>
        <time>2017-03-19T11:33:48Z</time>
      </trkpt>
      <trkpt lat="48.38511" lon="2.64963">
        <ele>116.94</ele>
        <time>2017-03-19T11:33:57Z</time>
      </trkpt>
      <trkpt lat="48.3851" lon="2.64968">
        <ele>117.42</ele>
        <time>2017-03-19T11:34:04Z</time>
      </trkpt>
      <trkpt lat="48.38508" lon="2.64983">
        <ele>116.94</ele>
        <time>2017-03-19T11:34:15Z</time>
      </trkpt>
      <trkpt lat="48.38508" lon="2.64996">
        <ele>119.34</ele>
        <time>2017-03-19T11:34:24Z</time>
      </trkpt>
      <trkpt lat="48.3851" lon="2.65012">
        <ele>121.74</ele>
        <time>2017-03-19T11:34:34Z</time>
      </trkpt>
      <trkpt lat="48.3851" lon="2.65013">
        <ele>121.74</ele>
        <time>2017-03-19T11:34:35Z</time>
      </trkpt>
      <trkpt lat="48.3851" lon="2.65028">
        <ele>122.71</ele>
        <time>2017-03-19T11:34:43Z</time>
      </trkpt>
      <trkpt lat="48.38511" lon="2.65034">
        <ele>123.19</ele>
        <time>2017-03-19T11:34:46Z</time>
      </trkpt>
      <trkpt lat="48.38511" lon="2.6504">
        <ele>122.71</ele>
        <time>2017-03-19T11:34:49Z</time>
      </trkpt>
      <trkpt lat="48.38512" lon="2.65049">
        <ele>121.74</ele>
        <time>2017-03-19T11:34:54Z</time>
      </trkpt>
      <trkpt lat="48.38515" lon="2.65065">
        <ele>120.3</ele>
        <time>2017-03-19T11:35:04Z</time>
      </trkpt>
      <trkpt lat="48.38514" lon="2.65087">
        <ele>120.78</ele>
        <time>2017-03-19T11:35:13Z</time>
      </trkpt>
      <trkpt lat="48.38518" lon="2.65103">
        <ele>120.78</ele>
        <time>2017-03-19T11:35:20Z</time>
      </trkpt>
      <trkpt lat="48.3852" lon="2.65111">
        <ele>119.34</ele>
        <time>2017-03-19T11:35:24Z</time>
      </trkpt>
      <trkpt lat="48.38517" lon="2.65133">
        <ele>117.9</ele>
        <time>2017-03-19T11:35:35Z</time>
      </trkpt>
      <trkpt lat="48.38522" lon="2.65144">
        <ele>116.46</ele>
        <time>2017-03-19T11:35:40Z</time>
      </trkpt>
      <trkpt lat="48.38523" lon="2.65163">
        <ele>113.57</ele>
        <time>2017-03-19T11:35:47Z</time>
      </trkpt>
      <trkpt lat="48.38521" lon="2.65171">
        <ele>113.09</ele>
        <time>2017-03-19T11:35:50Z</time>
      </trkpt>
      <trkpt lat="48.38523" lon="2.6518">
        <ele>112.13</ele>
        <time>2017-03-19T11:35:54Z</time>
      </trkpt>
      <trkpt lat="48.38534" lon="2.65216">
        <ele>115.98</ele>
        <time>2017-03-19T11:36:04Z</time>
      </trkpt>
      <trkpt lat="48.38551" lon="2.65273">
        <ele>119.34</ele>
        <time>2017-03-19T11:36:15Z</time>
      </trkpt>
      <trkpt lat="48.38567" lon="2.65316">
        <ele>119.82</ele>
        <time>2017-03-19T11:36:23Z</time>
      </trkpt>
      <trkpt lat="48.38578" lon="2.6535">
        <ele>118.38</ele>
        <time>2017-03-19T11:36:30Z</time>
      </trkpt>
      <trkpt lat="48.38594" lon="2.65402">
        <ele>117.42</ele>
        <time>2017-03-19T11:36:40Z</time>
      </trkpt>
      <trkpt lat="48.38598" lon="2.65413">
        <ele>116.94</ele>
        <time>2017-03-19T11:36:42Z</time>
      </trkpt>
      <trkpt lat="48.38601" lon="2.65424">
        <ele>116.46</ele>
        <time>2017-03-19T11:36:44Z</time>
      </trkpt>
      <trkpt lat="48.38605" lon="2.65436">
        <ele>116.46</ele>
        <time>2017-03-19T11:36:46Z</time>
      </trkpt>
      <trkpt lat="48.38618" lon="2.65473">
        <ele>114.05</ele>
        <time>2017-03-19T11:36:51Z</time>
      </trkpt>
      <trkpt lat="48.3865" lon="2.65569">
        <ele>106.84</ele>
        <time>2017-03-19T11:37:00Z</time>
      </trkpt>
      <trkpt lat="48.38694" lon="2.65699">
        <ele>94.83</ele>
        <time>2017-03-19T11:37:09Z</time>
      </trkpt>
      <trkpt lat="48.38716" lon="2.65766">
        <ele>89.54</ele>
        <time>2017-03-19T11:37:14Z</time>
      </trkpt>
      <trkpt lat="48.38724" lon="2.65777">
        <ele>87.14</ele>
        <time>2017-03-19T11:37:18Z</time>
      </trkpt>
      <trkpt lat="48.38733" lon="2.65749">
        <ele>82.81</ele>
        <time>2017-03-19T11:37:27Z</time>
      </trkpt>
      <trkpt lat="48.38743" lon="2.65707">
        <ele>84.25</ele>
        <time>2017-03-19T11:37:36Z</time>
      </trkpt>
      <trkpt lat="48.3875" lon="2.6566">
        <ele>85.69</ele>
        <time>2017-03-19T11:37:45Z</time>
      </trkpt>
      <trkpt lat="48.38758" lon="2.65602">
        <ele>86.66</ele>
        <time>2017-03-19T11:37:57Z</time>
      </trkpt>
      <trkpt lat="48.38768" lon="2.65551">
        <ele>85.69</ele>
        <time>2017-03-19T11:38:08Z</time>
      </trkpt>
      <trkpt lat="48.38775" lon="2.65511">
        <ele>85.69</ele>
        <time>2017-03-19T11:38:16Z</time>
      </trkpt>
      <trkpt lat="48.38782" lon="2.65451">
        <ele>86.66</ele>
        <time>2017-03-19T11:38:27Z</time>
      </trkpt>
      <trkpt lat="48.38791" lon="2.65396">
        <ele>88.1</ele>
        <time>2017-03-19T11:38:38Z</time>
      </trkpt>
      <trkpt lat="48.38797" lon="2.65348">
        <ele>89.54</ele>
        <time>2017-03-19T11:38:48Z</time>
      </trkpt>
      <trkpt lat="48.38806" lon="2.65297">
        <ele>88.58</ele>
        <time>2017-03-19T11:38:58Z</time>
      </trkpt>
      <trkpt lat="48.38817" lon="2.65241">
        <ele>88.58</ele>
        <time>2017-03-19T11:39:09Z</time>
      </trkpt>
      <trkpt lat="48.38826" lon="2.65185">
        <ele>89.54</ele>
        <time>2017-03-19T11:39:20Z</time>
      </trkpt>
      <trkpt lat="48.38837" lon="2.65124">
        <ele>88.1</ele>
        <time>2017-03-19T11:39:33Z</time>
      </trkpt>
      <trkpt lat="48.38846" lon="2.65071">
        <ele>87.62</ele>
        <time>2017-03-19T11:39:45Z</time>
      </trkpt>
      <trkpt lat="48.38852" lon="2.65029">
        <ele>88.58</ele>
        <time>2017-03-19T11:39:55Z</time>
      </trkpt>
      <trkpt lat="48.38859" lon="2.64983">
        <ele>88.58</ele>
        <time>2017-03-19T11:40:06Z</time>
      </trkpt>
      <trkpt lat="48.38861" lon="2.64972">
        <ele>88.58</ele>
        <time>2017-03-19T11:40:09Z</time>
      </trkpt>
      <trkpt lat="48.38866" lon="2.64937">
        <ele>89.06</ele>
        <time>2017-03-19T11:40:19Z</time>
      </trkpt>
      <trkpt lat="48.38872" lon="2.64917">
        <ele>88.58</ele>
        <time>2017-03-19T11:40:26Z</time>
      </trkpt>
      <trkpt lat="48.38875" lon="2.64915">
        <ele>88.58</ele>
        <time>2017-03-19T11:40:28Z</time>
      </trkpt>
      <trkpt lat="48.38882" lon="2.64916">
        <ele>89.06</ele>
        <time>2017-03-19T11:40:32Z</time>
      </trkpt>
      <trkpt lat="48.38897" lon="2.64912">
        <ele>90.5</ele>
        <time>2017-03-19T11:40:42Z</time>
      </trkpt>
      <trkpt lat="48.38911" lon="2.64911">
        <ele>90.02</ele>
        <time>2017-03-19T11:40:52Z</time>
      </trkpt>
      <trkpt lat="48.38915" lon="2.64912">
        <ele>91.46</ele>
        <time>2017-03-19T11:41:00Z</time>
      </trkpt>
      <trkpt lat="48.38924" lon="2.64917">
        <ele>91.94</ele>
        <time>2017-03-19T11:41:08Z</time>
      </trkpt>
      <trkpt lat="48.38931" lon="2.6492">
        <ele>92.42</ele>
        <time>2017-03-19T11:41:15Z</time>
      </trkpt>
      <trkpt lat="48.38942" lon="2.64923">
        <ele>91.94</ele>
        <time>2017-03-19T11:41:23Z</time>
      </trkpt>
      <trkpt lat="48.38951" lon="2.64927">
        <ele>90.5</ele>
        <time>2017-03-19T11:41:30Z</time>
      </trkpt>
      <trkpt lat="48.3897" lon="2.64936">
        <ele>90.02</ele>
        <time>2017-03-19T11:41:40Z</time>
      </trkpt>
      <trkpt lat="48.38984" lon="2.64943">
        <ele>89.06</ele>
        <time>2017-03-19T11:41:44Z</time>
      </trkpt>
      <trkpt lat="48.38993" lon="2.64948">
        <ele>89.06</ele>
        <time>2017-03-19T11:41:46Z</time>
      </trkpt>
      <trkpt lat="48.39012" lon="2.64965">
        <ele>89.06</ele>
        <time>2017-03-19T11:41:50Z</time>
      </trkpt>
      <trkpt lat="48.39023" lon="2.64986">
        <ele>89.06</ele>
        <time>2017-03-19T11:41:53Z</time>
      </trkpt>
      <trkpt lat="48.39032" lon="2.65019">
        <ele>88.58</ele>
        <time>2017-03-19T11:41:57Z</time>
      </trkpt>
      <trkpt lat="48.39053" lon="2.6505">
        <ele>87.14</ele>
        <time>2017-03-19T11:42:02Z</time>
      </trkpt>
      <trkpt lat="48.39142" lon="2.65064">
        <ele>80.89</ele>
        <time>2017-03-19T11:42:12Z</time>
      </trkpt>
      <trkpt lat="48.39151" lon="2.65066">
        <ele>80.41</ele>
        <time>2017-03-19T11:42:13Z</time>
      </trkpt>
      <trkpt lat="48.39167" lon="2.6505">
        <ele>78.97</ele>
        <time>2017-03-19T11:42:18Z</time>
      </trkpt>
      <trkpt lat="48.39168" lon="2.65045">
        <ele>78.48</ele>
        <time>2017-03-19T11:42:19Z</time>
      </trkpt>
      <trkpt lat="48.3917" lon="2.65005">
        <ele>78</ele>
        <time>2017-03-19T11:42:28Z</time>
      </trkpt>
      <trkpt lat="48.39173" lon="2.64965">
        <ele>77.52</ele>
        <time>2017-03-19T11:42:37Z</time>
      </trkpt>
      <trkpt lat="48.39178" lon="2.64921">
        <ele>77.04</ele>
        <time>2017-03-19T11:42:46Z</time>
      </trkpt>
      <trkpt lat="48.39182" lon="2.64876">
        <ele>77.52</ele>
        <time>2017-03-19T11:42:55Z</time>
      </trkpt>
      <trkpt lat="48.39184" lon="2.64829">
        <ele>77.52</ele>
        <time>2017-03-19T11:43:05Z</time>
      </trkpt>
      <trkpt lat="48.3919" lon="2.64787">
        <ele>78</ele>
        <time>2017-03-19T11:43:15Z</time>
      </trkpt>
      <trkpt lat="48.39196" lon="2.64743">
        <ele>78</ele>
        <time>2017-03-19T11:43:26Z</time>
      </trkpt>
      <trkpt lat="48.39205" lon="2.64696">
        <ele>78.48</ele>
        <time>2017-03-19T11:43:39Z</time>
      </trkpt>
      <trkpt lat="48.3921" lon="2.64662">
        <ele>79.45</ele>
        <time>2017-03-19T11:43:48Z</time>
      </trkpt>
      <trkpt lat="48.39213" lon="2.64648">
        <ele>80.41</ele>
        <time>2017-03-19T11:43:52Z</time>
      </trkpt>
      <trkpt lat="48.39218" lon="2.64617">
        <ele>82.33</ele>
        <time>2017-03-19T11:44:00Z</time>
      </trkpt>
      <trkpt lat="48.39223" lon="2.64572">
        <ele>84.25</ele>
        <time>2017-03-19T11:44:10Z</time>
      </trkpt>
      <trkpt lat="48.39228" lon="2.6453">
        <ele>84.73</ele>
        <time>2017-03-19T11:44:20Z</time>
      </trkpt>
      <trkpt lat="48.39235" lon="2.64485">
        <ele>86.66</ele>
        <time>2017-03-19T11:44:31Z</time>
      </trkpt>
      <trkpt lat="48.39239" lon="2.64445">
        <ele>89.54</ele>
        <time>2017-03-19T11:44:40Z</time>
      </trkpt>
      <trkpt lat="48.39244" lon="2.6441">
        <ele>91.46</ele>
        <time>2017-03-19T11:44:48Z</time>
      </trkpt>
      <trkpt lat="48.39251" lon="2.64372">
        <ele>91.46</ele>
        <time>2017-03-19T11:44:57Z</time>
      </trkpt>
      <trkpt lat="48.39257" lon="2.64329">
        <ele>91.94</ele>
        <time>2017-03-19T11:45:07Z</time>
      </trkpt>
      <trkpt lat="48.3926" lon="2.64309">
        <ele>92.9</ele>
        <time>2017-03-19T11:45:12Z</time>
      </trkpt>
      <trkpt lat="48.39267" lon="2.64265">
        <ele>93.87</ele>
        <time>2017-03-19T11:45:22Z</time>
      </trkpt>
      <trkpt lat="48.39273" lon="2.6423">
        <ele>95.79</ele>
        <time>2017-03-19T11:45:31Z</time>
      </trkpt>
      <trkpt lat="48.39273" lon="2.64227">
        <ele>95.79</ele>
        <time>2017-03-19T11:45:32Z</time>
      </trkpt>
      <trkpt lat="48.39268" lon="2.64199">
        <ele>98.67</ele>
        <time>2017-03-19T11:45:39Z</time>
      </trkpt>
      <trkpt lat="48.39269" lon="2.64179">
        <ele>98.19</ele>
        <time>2017-03-19T11:45:44Z</time>
      </trkpt>
      <trkpt lat="48.39266" lon="2.64151">
        <ele>99.63</ele>
        <time>2017-03-19T11:45:51Z</time>
      </trkpt>
      <trkpt lat="48.39265" lon="2.64133">
        <ele>99.63</ele>
        <time>2017-03-19T11:45:56Z</time>
      </trkpt>
      <trkpt lat="48.39268" lon="2.64112">
        <ele>100.6</ele>
        <time>2017-03-19T11:46:03Z</time>
      </trkpt>
      <trkpt lat="48.39269" lon="2.6407">
        <ele>99.15</ele>
        <time>2017-03-19T11:46:13Z</time>
      </trkpt>
      <trkpt lat="48.39273" lon="2.64033">
        <ele>98.67</ele>
        <time>2017-03-19T11:46:23Z</time>
      </trkpt>
      <trkpt lat="48.39276" lon="2.63999">
        <ele>98.67</ele>
        <time>2017-03-19T11:46:32Z</time>
      </trkpt>
      <trkpt lat="48.39274" lon="2.63971">
        <ele>99.15</ele>
        <time>2017-03-19T11:46:40Z</time>
      </trkpt>
      <trkpt lat="48.3927" lon="2.63943">
        <ele>99.63</ele>
        <time>2017-03-19T11:46:48Z</time>
      </trkpt>
      <trkpt lat="48.3927" lon="2.63922">
        <ele>100.6</ele>
        <time>2017-03-19T11:46:55Z</time>
      </trkpt>
      <trkpt lat="48.39274" lon="2.63904">
        <ele>102.04</ele>
        <time>2017-03-19T11:47:02Z</time>
      </trkpt>
      <trkpt lat="48.39273" lon="2.63896">
        <ele>102.52</ele>
        <time>2017-03-19T11:47:05Z</time>
      </trkpt>
      <trkpt lat="48.39268" lon="2.6387">
        <ele>103</ele>
        <time>2017-03-19T11:47:14Z</time>
      </trkpt>
      <trkpt lat="48.39267" lon="2.63863">
        <ele>104.44</ele>
        <time>2017-03-19T11:47:17Z</time>
      </trkpt>
      <trkpt lat="48.39264" lon="2.63839">
        <ele>105.88</ele>
        <time>2017-03-19T11:47:26Z</time>
      </trkpt>
      <trkpt lat="48.39262" lon="2.63827">
        <ele>106.36</ele>
        <time>2017-03-19T11:47:31Z</time>
      </trkpt>
      <trkpt lat="48.39265" lon="2.63806">
        <ele>105.4</ele>
        <time>2017-03-19T11:47:41Z</time>
      </trkpt>
      <trkpt lat="48.39264" lon="2.63796">
        <ele>105.4</ele>
        <time>2017-03-19T11:47:46Z</time>
      </trkpt>
      <trkpt lat="48.39269" lon="2.63774">
        <ele>103.96</ele>
        <time>2017-03-19T11:47:57Z</time>
      </trkpt>
      <trkpt lat="48.39272" lon="2.63767">
        <ele>103.96</ele>
        <time>2017-03-19T11:48:00Z</time>
      </trkpt>
      <trkpt lat="48.39276" lon="2.63759">
        <ele>104.92</ele>
        <time>2017-03-19T11:48:04Z</time>
      </trkpt>
      <trkpt lat="48.39286" lon="2.63745">
        <ele>104.92</ele>
        <time>2017-03-19T11:48:14Z</time>
      </trkpt>
      <trkpt lat="48.39291" lon="2.63738">
        <ele>104.44</ele>
        <time>2017-03-19T11:48:20Z</time>
      </trkpt>
      <trkpt lat="48.39296" lon="2.63733">
        <ele>103.48</ele>
        <time>2017-03-19T11:48:25Z</time>
      </trkpt>
      <trkpt lat="48.39302" lon="2.63727">
        <ele>103</ele>
        <time>2017-03-19T11:48:30Z</time>
      </trkpt>
      <trkpt lat="48.39306" lon="2.63722">
        <ele>102.52</ele>
        <time>2017-03-19T11:48:34Z</time>
      </trkpt>
      <trkpt lat="48.39308" lon="2.63715">
        <ele>102.52</ele>
        <time>2017-03-19T11:48:38Z</time>
      </trkpt>
      <trkpt lat="48.39311" lon="2.63707">
        <ele>102.04</ele>
        <time>2017-03-19T11:48:42Z</time>
      </trkpt>
      <trkpt lat="48.39313" lon="2.63697">
        <ele>102.04</ele>
        <time>2017-03-19T11:48:47Z</time>
      </trkpt>
      <trkpt lat="48.39311" lon="2.63671">
        <ele>105.4</ele>
        <time>2017-03-19T11:48:57Z</time>
      </trkpt>
      <trkpt lat="48.39311" lon="2.63661">
        <ele>105.88</ele>
        <time>2017-03-19T11:49:02Z</time>
      </trkpt>
      <trkpt lat="48.3931" lon="2.63642">
        <ele>103.48</ele>
        <time>2017-03-19T11:49:12Z</time>
      </trkpt>
      <trkpt lat="48.39307" lon="2.63625">
        <ele>102.52</ele>
        <time>2017-03-19T11:49:22Z</time>
      </trkpt>
      <trkpt lat="48.39302" lon="2.63604">
        <ele>104.44</ele>
        <time>2017-03-19T11:49:31Z</time>
      </trkpt>
      <trkpt lat="48.39301" lon="2.63594">
        <ele>105.4</ele>
        <time>2017-03-19T11:49:36Z</time>
      </trkpt>
      <trkpt lat="48.393" lon="2.63586">
        <ele>105.88</ele>
        <time>2017-03-19T11:49:40Z</time>
      </trkpt>
      <trkpt lat="48.39301" lon="2.63583">
        <ele>106.36</ele>
        <time>2017-03-19T11:49:42Z</time>
      </trkpt>
      <trkpt lat="48.39298" lon="2.63567">
        <ele>107.32</ele>
        <time>2017-03-19T11:49:50Z</time>
      </trkpt>
      <trkpt lat="48.39296" lon="2.63553">
        <ele>106.84</ele>
        <time>2017-03-19T11:49:57Z</time>
      </trkpt>
      <trkpt lat="48.39297" lon="2.63543">
        <ele>107.32</ele>
        <time>2017-03-19T11:50:02Z</time>
      </trkpt>
      <trkpt lat="48.39301" lon="2.63524">
        <ele>107.81</ele>
        <time>2017-03-19T11:50:10Z</time>
      </trkpt>
      <trkpt lat="48.39304" lon="2.63503">
        <ele>109.25</ele>
        <time>2017-03-19T11:50:16Z</time>
      </trkpt>
      <trkpt lat="48.39311" lon="2.63482">
        <ele>110.21</ele>
        <time>2017-03-19T11:50:23Z</time>
      </trkpt>
      <trkpt lat="48.39315" lon="2.63458">
        <ele>108.77</ele>
        <time>2017-03-19T11:50:31Z</time>
      </trkpt>
      <trkpt lat="48.39319" lon="2.63429">
        <ele>109.73</ele>
        <time>2017-03-19T11:50:41Z</time>
      </trkpt>
      <trkpt lat="48.3932" lon="2.63413">
        <ele>110.69</ele>
        <time>2017-03-19T11:50:47Z</time>
      </trkpt>
      <trkpt lat="48.39322" lon="2.63394">
        <ele>111.65</ele>
        <time>2017-03-19T11:50:56Z</time>
      </trkpt>
      <trkpt lat="48.39322" lon="2.63391">
        <ele>112.13</ele>
        <time>2017-03-19T11:50:57Z</time>
      </trkpt>
      <trkpt lat="48.39322" lon="2.63365">
        <ele>115.5</ele>
        <time>2017-03-19T11:51:08Z</time>
      </trkpt>
      <trkpt lat="48.39324" lon="2.63344">
        <ele>118.38</ele>
        <time>2017-03-19T11:51:17Z</time>
      </trkpt>
      <trkpt lat="48.39327" lon="2.63321">
        <ele>119.82</ele>
        <time>2017-03-19T11:51:27Z</time>
      </trkpt>
      <trkpt lat="48.39328" lon="2.63307">
        <ele>120.3</ele>
        <time>2017-03-19T11:51:35Z</time>
      </trkpt>
      <trkpt lat="48.39333" lon="2.63287">
        <ele>120.3</ele>
        <time>2017-03-19T11:51:46Z</time>
      </trkpt>
      <trkpt lat="48.39331" lon="2.63266">
        <ele>123.19</ele>
        <time>2017-03-19T11:51:56Z</time>
      </trkpt>
      <trkpt lat="48.39331" lon="2.63264">
        <ele>123.19</ele>
        <time>2017-03-19T11:51:57Z</time>
      </trkpt>
      <trkpt lat="48.39332" lon="2.63258">
        <ele>124.63</ele>
        <time>2017-03-19T11:52:00Z</time>
      </trkpt>
      <trkpt lat="48.39332" lon="2.63234">
        <ele>127.03</ele>
        <time>2017-03-19T11:52:10Z</time>
      </trkpt>
      <trkpt lat="48.39333" lon="2.63221">
        <ele>127.51</ele>
        <time>2017-03-19T11:52:19Z</time>
      </trkpt>
      <trkpt lat="48.39336" lon="2.6321">
        <ele>128.47</ele>
        <time>2017-03-19T11:52:26Z</time>
      </trkpt>
      <trkpt lat="48.39336" lon="2.63201">
        <ele>129.43</ele>
        <time>2017-03-19T11:52:31Z</time>
      </trkpt>
      <trkpt lat="48.39338" lon="2.63189">
        <ele>130.4</ele>
        <time>2017-03-19T11:52:37Z</time>
      </trkpt>
      <trkpt lat="48.39337" lon="2.63181">
        <ele>129.92</ele>
        <time>2017-03-19T11:52:41Z</time>
      </trkpt>
      <trkpt lat="48.39336" lon="2.6317">
        <ele>128.47</ele>
        <time>2017-03-19T11:52:47Z</time>
      </trkpt>
      <trkpt lat="48.39342" lon="2.63156">
        <ele>128.95</ele>
        <time>2017-03-19T11:52:55Z</time>
      </trkpt>
      <trkpt lat="48.39356" lon="2.63142">
        <ele>130.4</ele>
        <time>2017-03-19T11:53:05Z</time>
      </trkpt>
      <trkpt lat="48.39371" lon="2.63134">
        <ele>129.43</ele>
        <time>2017-03-19T11:53:14Z</time>
      </trkpt>
      <trkpt lat="48.3938" lon="2.63132">
        <ele>129.43</ele>
        <time>2017-03-19T11:53:18Z</time>
      </trkpt>
      <trkpt lat="48.394" lon="2.63135">
        <ele>130.88</ele>
        <time>2017-03-19T11:53:27Z</time>
      </trkpt>
      <trkpt lat="48.39426" lon="2.63136">
        <ele>130.4</ele>
        <time>2017-03-19T11:53:37Z</time>
      </trkpt>
      <trkpt lat="48.39429" lon="2.63138">
        <ele>130.4</ele>
        <time>2017-03-19T11:53:38Z</time>
      </trkpt>
      <trkpt lat="48.39444" lon="2.63164">
        <ele>124.63</ele>
        <time>2017-03-19T11:53:47Z</time>
      </trkpt>
      <trkpt lat="48.39445" lon="2.63168">
        <ele>124.63</ele>
        <time>2017-03-19T11:53:48Z</time>
      </trkpt>
      <trkpt lat="48.39455" lon="2.63217">
        <ele>123.67</ele>
        <time>2017-03-19T11:53:58Z</time>
      </trkpt>
      <trkpt lat="48.39466" lon="2.63259">
        <ele>120.78</ele>
        <time>2017-03-19T11:54:06Z</time>
      </trkpt>
      <trkpt lat="48.39468" lon="2.63271">
        <ele>120.3</ele>
        <time>2017-03-19T11:54:08Z</time>
      </trkpt>
      <trkpt lat="48.39473" lon="2.63295">
        <ele>119.82</ele>
        <time>2017-03-19T11:54:12Z</time>
      </trkpt>
      <trkpt lat="48.3948" lon="2.63322">
        <ele>119.82</ele>
        <time>2017-03-19T11:54:16Z</time>
      </trkpt>
      <trkpt lat="48.39486" lon="2.63343">
        <ele>119.82</ele>
        <time>2017-03-19T11:54:19Z</time>
      </trkpt>
      <trkpt lat="48.39493" lon="2.63368">
        <ele>120.3</ele>
        <time>2017-03-19T11:54:23Z</time>
      </trkpt>
      <trkpt lat="48.39504" lon="2.63423">
        <ele>121.26</ele>
        <time>2017-03-19T11:54:31Z</time>
      </trkpt>
      <trkpt lat="48.39507" lon="2.63437">
        <ele>122.22</ele>
        <time>2017-03-19T11:54:33Z</time>
      </trkpt>
      <trkpt lat="48.39511" lon="2.6345">
        <ele>122.71</ele>
        <time>2017-03-19T11:54:35Z</time>
      </trkpt>
      <trkpt lat="48.39518" lon="2.63489">
        <ele>120.78</ele>
        <time>2017-03-19T11:54:41Z</time>
      </trkpt>
      <trkpt lat="48.39537" lon="2.63516">
        <ele>123.19</ele>
        <time>2017-03-19T11:54:46Z</time>
      </trkpt>
      <trkpt lat="48.39551" lon="2.63523">
        <ele>123.67</ele>
        <time>2017-03-19T11:54:49Z</time>
      </trkpt>
      <trkpt lat="48.3956" lon="2.63524">
        <ele>123.19</ele>
        <time>2017-03-19T11:54:51Z</time>
      </trkpt>
      <trkpt lat="48.39577" lon="2.63526">
        <ele>123.19</ele>
        <time>2017-03-19T11:54:55Z</time>
      </trkpt>
      <trkpt lat="48.39595" lon="2.63527">
        <ele>121.74</ele>
        <time>2017-03-19T11:54:59Z</time>
      </trkpt>
      <trkpt lat="48.39619" lon="2.63528">
        <ele>120.78</ele>
        <time>2017-03-19T11:55:04Z</time>
      </trkpt>
      <trkpt lat="48.39641" lon="2.63529">
        <ele>121.74</ele>
        <time>2017-03-19T11:55:08Z</time>
      </trkpt>
      <trkpt lat="48.39658" lon="2.63533">
        <ele>120.78</ele>
        <time>2017-03-19T11:55:11Z</time>
      </trkpt>
      <trkpt lat="48.39679" lon="2.63549">
        <ele>118.86</ele>
        <time>2017-03-19T11:55:16Z</time>
      </trkpt>
      <trkpt lat="48.39683" lon="2.63566">
        <ele>117.9</ele>
        <time>2017-03-19T11:55:18Z</time>
      </trkpt>
      <trkpt lat="48.39695" lon="2.63609">
        <ele>115.01</ele>
        <time>2017-03-19T11:55:22Z</time>
      </trkpt>
      <trkpt lat="48.39701" lon="2.6363">
        <ele>113.57</ele>
        <time>2017-03-19T11:55:24Z</time>
      </trkpt>
      <trkpt lat="48.3973" lon="2.6364">
        <ele>110.21</ele>
        <time>2017-03-19T11:55:29Z</time>
      </trkpt>
      <trkpt lat="48.39762" lon="2.63639">
        <ele>105.88</ele>
        <time>2017-03-19T11:55:35Z</time>
      </trkpt>
      <trkpt lat="48.39767" lon="2.63648">
        <ele>105.4</ele>
        <time>2017-03-19T11:55:36Z</time>
      </trkpt>
      <trkpt lat="48.39799" lon="2.63705">
        <ele>102.04</ele>
        <time>2017-03-19T11:55:42Z</time>
      </trkpt>
      <trkpt lat="48.39821" lon="2.63757">
        <ele>99.63</ele>
        <time>2017-03-19T11:55:47Z</time>
      </trkpt>
      <trkpt lat="48.39823" lon="2.63833">
        <ele>99.15</ele>
        <time>2017-03-19T11:55:54Z</time>
      </trkpt>
      <trkpt lat="48.39822" lon="2.63844">
        <ele>99.15</ele>
        <time>2017-03-19T11:55:55Z</time>
      </trkpt>
      <trkpt lat="48.39821" lon="2.63876">
        <ele>99.15</ele>
        <time>2017-03-19T11:55:58Z</time>
      </trkpt>
      <trkpt lat="48.39819" lon="2.6392">
        <ele>98.67</ele>
        <time>2017-03-19T11:56:02Z</time>
      </trkpt>
      <trkpt lat="48.39814" lon="2.63961">
        <ele>97.23</ele>
        <time>2017-03-19T11:56:06Z</time>
      </trkpt>
      <trkpt lat="48.39807" lon="2.64008">
        <ele>97.71</ele>
        <time>2017-03-19T11:56:11Z</time>
      </trkpt>
      <trkpt lat="48.39802" lon="2.64053">
        <ele>96.75</ele>
        <time>2017-03-19T11:56:16Z</time>
      </trkpt>
      <trkpt lat="48.39795" lon="2.64129">
        <ele>93.39</ele>
        <time>2017-03-19T11:56:23Z</time>
      </trkpt>
      <trkpt lat="48.39788" lon="2.64196">
        <ele>92.42</ele>
        <time>2017-03-19T11:56:30Z</time>
      </trkpt>
      <trkpt lat="48.39783" lon="2.64236">
        <ele>91.94</ele>
        <time>2017-03-19T11:56:34Z</time>
      </trkpt>
      <trkpt lat="48.39766" lon="2.6429">
        <ele>91.94</ele>
        <time>2017-03-19T11:56:40Z</time>
      </trkpt>
      <trkpt lat="48.39765" lon="2.64311">
        <ele>91.94</ele>
        <time>2017-03-19T11:56:42Z</time>
      </trkpt>
      <trkpt lat="48.39768" lon="2.64358">
        <ele>91.46</ele>
        <time>2017-03-19T11:56:47Z</time>
      </trkpt>
      <trkpt lat="48.3977" lon="2.64372">
        <ele>91.46</ele>
        <time>2017-03-19T11:56:49Z</time>
      </trkpt>
      <trkpt lat="48.39769" lon="2.64429">
        <ele>91.46</ele>
        <time>2017-03-19T11:56:56Z</time>
      </trkpt>
      <trkpt lat="48.3977" lon="2.64469">
        <ele>91.46</ele>
        <time>2017-03-19T11:57:01Z</time>
      </trkpt>
      <trkpt lat="48.3977" lon="2.64483">
        <ele>91.46</ele>
        <time>2017-03-19T11:57:03Z</time>
      </trkpt>
      <trkpt lat="48.3977" lon="2.64511">
        <ele>92.9</ele>
        <time>2017-03-19T11:57:07Z</time>
      </trkpt>
      <trkpt lat="48.39771" lon="2.64535">
        <ele>93.87</ele>
        <time>2017-03-19T11:57:11Z</time>
      </trkpt>
      <trkpt lat="48.3977" lon="2.64572">
        <ele>94.35</ele>
        <time>2017-03-19T11:57:16Z</time>
      </trkpt>
      <trkpt lat="48.39771" lon="2.64593">
        <ele>93.87</ele>
        <time>2017-03-19T11:57:19Z</time>
      </trkpt>
      <trkpt lat="48.39771" lon="2.64615">
        <ele>93.39</ele>
        <time>2017-03-19T11:57:22Z</time>
      </trkpt>
      <trkpt lat="48.39772" lon="2.64641">
        <ele>93.39</ele>
        <time>2017-03-19T11:57:25Z</time>
      </trkpt>
      <trkpt lat="48.39772" lon="2.64656">
        <ele>93.39</ele>
        <time>2017-03-19T11:57:27Z</time>
      </trkpt>
      <trkpt lat="48.3978" lon="2.6469">
        <ele>92.9</ele>
        <time>2017-03-19T11:57:34Z</time>
      </trkpt>
      <trkpt lat="48.39785" lon="2.64715">
        <ele>94.35</ele>
        <time>2017-03-19T11:57:42Z</time>
      </trkpt>
      <trkpt lat="48.39787" lon="2.64736">
        <ele>93.87</ele>
        <time>2017-03-19T11:57:48Z</time>
      </trkpt>
      <trkpt lat="48.39788" lon="2.64778">
        <ele>94.83</ele>
        <time>2017-03-19T11:57:59Z</time>
      </trkpt>
      <trkpt lat="48.39788" lon="2.64795">
        <ele>94.83</ele>
        <time>2017-03-19T11:58:02Z</time>
      </trkpt>
      <trkpt lat="48.39783" lon="2.64859">
        <ele>92.42</ele>
        <time>2017-03-19T11:58:10Z</time>
      </trkpt>
      <trkpt lat="48.39774" lon="2.64944">
        <ele>92.42</ele>
        <time>2017-03-19T11:58:20Z</time>
      </trkpt>
      <trkpt lat="48.39773" lon="2.6497">
        <ele>92.9</ele>
        <time>2017-03-19T11:58:23Z</time>
      </trkpt>
      <trkpt lat="48.39767" lon="2.65038">
        <ele>93.87</ele>
        <time>2017-03-19T11:58:31Z</time>
      </trkpt>
      <trkpt lat="48.39766" lon="2.65047">
        <ele>93.87</ele>
        <time>2017-03-19T11:58:32Z</time>
      </trkpt>
      <trkpt lat="48.3976" lon="2.65079">
        <ele>94.35</ele>
        <time>2017-03-19T11:58:36Z</time>
      </trkpt>
      <trkpt lat="48.39755" lon="2.65139">
        <ele>93.87</ele>
        <time>2017-03-19T11:58:43Z</time>
      </trkpt>
      <trkpt lat="48.39749" lon="2.65194">
        <ele>94.35</ele>
        <time>2017-03-19T11:58:49Z</time>
      </trkpt>
      <trkpt lat="48.39746" lon="2.65229">
        <ele>94.83</ele>
        <time>2017-03-19T11:58:53Z</time>
      </trkpt>
      <trkpt lat="48.39744" lon="2.65244">
        <ele>94.83</ele>
        <time>2017-03-19T11:58:55Z</time>
      </trkpt>
      <trkpt lat="48.39742" lon="2.65265">
        <ele>94.35</ele>
        <time>2017-03-19T11:58:58Z</time>
      </trkpt>
      <trkpt lat="48.39733" lon="2.65306">
        <ele>93.87</ele>
        <time>2017-03-19T11:59:04Z</time>
      </trkpt>
      <trkpt lat="48.39721" lon="2.65403">
        <ele>93.39</ele>
        <time>2017-03-19T11:59:15Z</time>
      </trkpt>
      <trkpt lat="48.39716" lon="2.65432">
        <ele>91.94</ele>
        <time>2017-03-19T11:59:18Z</time>
      </trkpt>
      <trkpt lat="48.39712" lon="2.65456">
        <ele>92.42</ele>
        <time>2017-03-19T11:59:21Z</time>
      </trkpt>
      <trkpt lat="48.3971" lon="2.65471">
        <ele>92.9</ele>
        <time>2017-03-19T11:59:23Z</time>
      </trkpt>
      <trkpt lat="48.39701" lon="2.65557">
        <ele>93.39</ele>
        <time>2017-03-19T11:59:33Z</time>
      </trkpt>
      <trkpt lat="48.39698" lon="2.65596">
        <ele>92.9</ele>
        <time>2017-03-19T11:59:38Z</time>
      </trkpt>
      <trkpt lat="48.39691" lon="2.65631">
        <ele>90.98</ele>
        <time>2017-03-19T11:59:42Z</time>
      </trkpt>
      <trkpt lat="48.39683" lon="2.65701">
        <ele>89.54</ele>
        <time>2017-03-19T11:59:52Z</time>
      </trkpt>
      <trkpt lat="48.39676" lon="2.65729">
        <ele>87.14</ele>
        <time>2017-03-19T12:00:00Z</time>
      </trkpt>
      <trkpt lat="48.39667" lon="2.6577">
        <ele>85.69</ele>
        <time>2017-03-19T12:00:08Z</time>
      </trkpt>
      <trkpt lat="48.39655" lon="2.65835">
        <ele>87.14</ele>
        <time>2017-03-19T12:00:17Z</time>
      </trkpt>
      <trkpt lat="48.39654" lon="2.65843">
        <ele>87.14</ele>
        <time>2017-03-19T12:00:18Z</time>
      </trkpt>
      <trkpt lat="48.39639" lon="2.65906">
        <ele>85.69</ele>
        <time>2017-03-19T12:00:29Z</time>
      </trkpt>
      <trkpt lat="48.39637" lon="2.65928">
        <ele>85.69</ele>
        <time>2017-03-19T12:00:34Z</time>
      </trkpt>
      <trkpt lat="48.3965" lon="2.65963">
        <ele>83.77</ele>
        <time>2017-03-19T12:00:43Z</time>
      </trkpt>
      <trkpt lat="48.39655" lon="2.65985">
        <ele>83.29</ele>
        <time>2017-03-19T12:00:47Z</time>
      </trkpt>
      <trkpt lat="48.39666" lon="2.66026">
        <ele>85.21</ele>
        <time>2017-03-19T12:00:57Z</time>
      </trkpt>
      <trkpt lat="48.39671" lon="2.66041">
        <ele>86.66</ele>
        <time>2017-03-19T12:01:01Z</time>
      </trkpt>
      <trkpt lat="48.39679" lon="2.6607">
        <ele>88.58</ele>
        <time>2017-03-19T12:01:10Z</time>
      </trkpt>
      <trkpt lat="48.39687" lon="2.66088">
        <ele>90.98</ele>
        <time>2017-03-19T12:01:16Z</time>
      </trkpt>
      <trkpt lat="48.39694" lon="2.66096">
        <ele>91.94</ele>
        <time>2017-03-19T12:01:20Z</time>
      </trkpt>
      <trkpt lat="48.39706" lon="2.66109">
        <ele>92.42</ele>
        <time>2017-03-19T12:01:29Z</time>
      </trkpt>
      <trkpt lat="48.39719" lon="2.6612">
        <ele>91.46</ele>
        <time>2017-03-19T12:01:40Z</time>
      </trkpt>
      <trkpt lat="48.39726" lon="2.6613">
        <ele>91.46</ele>
        <time>2017-03-19T12:01:50Z</time>
      </trkpt>
      <trkpt lat="48.39735" lon="2.66135">
        <ele>92.9</ele>
        <time>2017-03-19T12:02:00Z</time>
      </trkpt>
      <trkpt lat="48.39744" lon="2.66139">
        <ele>93.39</ele>
        <time>2017-03-19T12:02:09Z</time>
      </trkpt>
      <trkpt lat="48.39755" lon="2.66144">
        <ele>94.35</ele>
        <time>2017-03-19T12:02:20Z</time>
      </trkpt>
      <trkpt lat="48.39762" lon="2.66144">
        <ele>94.83</ele>
        <time>2017-03-19T12:02:28Z</time>
      </trkpt>
      <trkpt lat="48.3977" lon="2.66146">
        <ele>95.31</ele>
        <time>2017-03-19T12:02:38Z</time>
      </trkpt>
      <trkpt lat="48.39775" lon="2.66147">
        <ele>94.83</ele>
        <time>2017-03-19T12:02:45Z</time>
      </trkpt>
      <trkpt lat="48.39777" lon="2.66148">
        <ele>94.83</ele>
        <time>2017-03-19T12:02:47Z</time>
      </trkpt>
      <trkpt lat="48.39786" lon="2.66152">
        <ele>96.75</ele>
        <time>2017-03-19T12:02:58Z</time>
      </trkpt>
      <trkpt lat="48.39793" lon="2.66156">
        <ele>97.71</ele>
        <time>2017-03-19T12:03:06Z</time>
      </trkpt>
      <trkpt lat="48.39797" lon="2.66153">
        <ele>99.63</ele>
        <time>2017-03-19T12:03:16Z</time>
      </trkpt>
      <trkpt lat="48.39805" lon="2.66154">
        <ele>100.11</ele>
        <time>2017-03-19T12:03:26Z</time>
      </trkpt>
      <trkpt lat="48.39816" lon="2.66155">
        <ele>103</ele>
        <time>2017-03-19T12:03:37Z</time>
      </trkpt>
      <trkpt lat="48.39825" lon="2.66156">
        <ele>106.84</ele>
        <time>2017-03-19T12:03:47Z</time>
      </trkpt>
      <trkpt lat="48.39835" lon="2.66156">
        <ele>109.25</ele>
        <time>2017-03-19T12:03:58Z</time>
      </trkpt>
      <trkpt lat="48.39841" lon="2.66156">
        <ele>111.17</ele>
        <time>2017-03-19T12:04:07Z</time>
      </trkpt>
      <trkpt lat="48.3985" lon="2.66155">
        <ele>111.17</ele>
        <time>2017-03-19T12:04:19Z</time>
      </trkpt>
      <trkpt lat="48.39859" lon="2.66158">
        <ele>110.21</ele>
        <time>2017-03-19T12:04:28Z</time>
      </trkpt>
      <trkpt lat="48.3987" lon="2.66158">
        <ele>110.21</ele>
        <time>2017-03-19T12:04:32Z</time>
      </trkpt>
      <trkpt lat="48.39912" lon="2.66167">
        <ele>105.88</ele>
        <time>2017-03-19T12:04:39Z</time>
      </trkpt>
      <trkpt lat="48.39958" lon="2.66151">
        <ele>99.15</ele>
        <time>2017-03-19T12:04:46Z</time>
      </trkpt>
      <trkpt lat="48.40023" lon="2.66175">
        <ele>88.58</ele>
        <time>2017-03-19T12:04:54Z</time>
      </trkpt>
      <trkpt lat="48.40046" lon="2.66184">
        <ele>84.25</ele>
        <time>2017-03-19T12:04:57Z</time>
      </trkpt>
      <trkpt lat="48.40065" lon="2.66208">
        <ele>78.97</ele>
        <time>2017-03-19T12:05:01Z</time>
      </trkpt>
      <trkpt lat="48.40065" lon="2.6624">
        <ele>74.16</ele>
        <time>2017-03-19T12:05:05Z</time>
      </trkpt>
      <trkpt lat="48.4006" lon="2.66299">
        <ele>65.99</ele>
        <time>2017-03-19T12:05:15Z</time>
      </trkpt>
      <trkpt lat="48.40061" lon="2.66313">
        <ele>64.07</ele>
        <time>2017-03-19T12:05:18Z</time>
      </trkpt>
      <trkpt lat="48.40054" lon="2.66341">
        <ele>62.62</ele>
        <time>2017-03-19T12:05:24Z</time>
      </trkpt>
      <trkpt lat="48.40053" lon="2.66369">
        <ele>61.66</ele>
        <time>2017-03-19T12:05:32Z</time>
      </trkpt>
      <trkpt lat="48.40051" lon="2.66391">
        <ele>63.1</ele>
        <time>2017-03-19T12:05:39Z</time>
      </trkpt>
      <trkpt lat="48.40047" lon="2.66434">
        <ele>70.31</ele>
        <time>2017-03-19T12:05:47Z</time>
      </trkpt>
      <trkpt lat="48.40046" lon="2.6644">
        <ele>70.31</ele>
        <time>2017-03-19T12:05:48Z</time>
      </trkpt>
      <trkpt lat="48.40043" lon="2.66479">
        <ele>72.24</ele>
        <time>2017-03-19T12:05:54Z</time>
      </trkpt>
      <trkpt lat="48.40042" lon="2.66513">
        <ele>73.68</ele>
        <time>2017-03-19T12:05:59Z</time>
      </trkpt>
      <trkpt lat="48.4004" lon="2.66551">
        <ele>76.56</ele>
        <time>2017-03-19T12:06:04Z</time>
      </trkpt>
      <trkpt lat="48.40039" lon="2.66572">
        <ele>77.04</ele>
        <time>2017-03-19T12:06:07Z</time>
      </trkpt>
      <trkpt lat="48.40037" lon="2.66588">
        <ele>77.52</ele>
        <time>2017-03-19T12:06:09Z</time>
      </trkpt>
      <trkpt lat="48.40034" lon="2.6661">
        <ele>77.52</ele>
        <time>2017-03-19T12:06:12Z</time>
      </trkpt>
      <trkpt lat="48.40032" lon="2.66664">
        <ele>79.45</ele>
        <time>2017-03-19T12:06:19Z</time>
      </trkpt>
      <trkpt lat="48.40033" lon="2.66697">
        <ele>80.41</ele>
        <time>2017-03-19T12:06:23Z</time>
      </trkpt>
      <trkpt lat="48.40037" lon="2.66724">
        <ele>80.89</ele>
        <time>2017-03-19T12:06:26Z</time>
      </trkpt>
      <trkpt lat="48.40066" lon="2.66738">
        <ele>79.93</ele>
        <time>2017-03-19T12:06:32Z</time>
      </trkpt>
      <trkpt lat="48.40071" lon="2.66738">
        <ele>79.93</ele>
        <time>2017-03-19T12:06:33Z</time>
      </trkpt>
      <trkpt lat="48.40112" lon="2.66744">
        <ele>76.56</ele>
        <time>2017-03-19T12:06:42Z</time>
      </trkpt>
      <trkpt lat="48.40151" lon="2.6675">
        <ele>72.24</ele>
        <time>2017-03-19T12:06:51Z</time>
      </trkpt>
      <trkpt lat="48.40169" lon="2.66751">
        <ele>73.2</ele>
        <time>2017-03-19T12:06:55Z</time>
      </trkpt>
      <trkpt lat="48.40204" lon="2.66757">
        <ele>73.2</ele>
        <time>2017-03-19T12:07:02Z</time>
      </trkpt>
      <trkpt lat="48.40249" lon="2.66764">
        <ele>74.16</ele>
        <time>2017-03-19T12:07:12Z</time>
      </trkpt>
      <trkpt lat="48.4028" lon="2.66769">
        <ele>73.2</ele>
        <time>2017-03-19T12:07:20Z</time>
      </trkpt>
      <trkpt lat="48.40303" lon="2.66771">
        <ele>73.2</ele>
        <time>2017-03-19T12:07:26Z</time>
      </trkpt>
      <trkpt lat="48.40332" lon="2.66776">
        <ele>74.16</ele>
        <time>2017-03-19T12:07:34Z</time>
      </trkpt>
      <trkpt lat="48.40364" lon="2.66782">
        <ele>75.12</ele>
        <time>2017-03-19T12:07:44Z</time>
      </trkpt>
      <trkpt lat="48.40386" lon="2.66785">
        <ele>74.64</ele>
        <time>2017-03-19T12:07:51Z</time>
      </trkpt>
      <trkpt lat="48.40411" lon="2.66789">
        <ele>74.16</ele>
        <time>2017-03-19T12:07:59Z</time>
      </trkpt>
      <trkpt lat="48.4043" lon="2.66794">
        <ele>72.72</ele>
        <time>2017-03-19T12:08:06Z</time>
      </trkpt>
      <trkpt lat="48.4045" lon="2.66796">
        <ele>71.27</ele>
        <time>2017-03-19T12:08:15Z</time>
      </trkpt>
      <trkpt lat="48.40472" lon="2.66801">
        <ele>73.2</ele>
        <time>2017-03-19T12:08:24Z</time>
      </trkpt>
      <trkpt lat="48.4049" lon="2.66802">
        <ele>75.12</ele>
        <time>2017-03-19T12:08:34Z</time>
      </trkpt>
      <trkpt lat="48.40506" lon="2.66807">
        <ele>77.04</ele>
        <time>2017-03-19T12:08:43Z</time>
      </trkpt>
      <trkpt lat="48.40515" lon="2.66809">
        <ele>78</ele>
        <time>2017-03-19T12:08:49Z</time>
      </trkpt>
      <trkpt lat="48.4053" lon="2.66813">
        <ele>81.37</ele>
        <time>2017-03-19T12:08:59Z</time>
      </trkpt>
      <trkpt lat="48.40539" lon="2.66815">
        <ele>82.33</ele>
        <time>2017-03-19T12:09:04Z</time>
      </trkpt>
      <trkpt lat="48.40548" lon="2.66818">
        <ele>85.21</ele>
        <time>2017-03-19T12:09:10Z</time>
      </trkpt>
      <trkpt lat="48.4056" lon="2.66818">
        <ele>87.62</ele>
        <time>2017-03-19T12:09:21Z</time>
      </trkpt>
      <trkpt lat="48.40569" lon="2.66821">
        <ele>89.06</ele>
        <time>2017-03-19T12:09:30Z</time>
      </trkpt>
      <trkpt lat="48.40572" lon="2.66821">
        <ele>89.06</ele>
        <time>2017-03-19T12:09:33Z</time>
      </trkpt>
      <trkpt lat="48.40588" lon="2.6683">
        <ele>92.42</ele>
        <time>2017-03-19T12:09:45Z</time>
      </trkpt>
      <trkpt lat="48.40596" lon="2.66831">
        <ele>92.42</ele>
        <time>2017-03-19T12:09:53Z</time>
      </trkpt>
      <trkpt lat="48.40606" lon="2.66832">
        <ele>92.42</ele>
        <time>2017-03-19T12:10:02Z</time>
      </trkpt>
      <trkpt lat="48.40616" lon="2.66836">
        <ele>93.39</ele>
        <time>2017-03-19T12:10:11Z</time>
      </trkpt>
      <trkpt lat="48.40623" lon="2.66839">
        <ele>93.87</ele>
        <time>2017-03-19T12:10:18Z</time>
      </trkpt>
      <trkpt lat="48.40625" lon="2.66842">
        <ele>94.35</ele>
        <time>2017-03-19T12:10:20Z</time>
      </trkpt>
      <trkpt lat="48.40623" lon="2.66851">
        <ele>95.31</ele>
        <time>2017-03-19T12:10:25Z</time>
      </trkpt>
      <trkpt lat="48.40624" lon="2.6686">
        <ele>96.27</ele>
        <time>2017-03-19T12:10:30Z</time>
      </trkpt>
      <trkpt lat="48.4062" lon="2.66881">
        <ele>94.83</ele>
        <time>2017-03-19T12:10:42Z</time>
      </trkpt>
      <trkpt lat="48.40619" lon="2.66904">
        <ele>95.79</ele>
        <time>2017-03-19T12:10:47Z</time>
      </trkpt>
      <trkpt lat="48.40612" lon="2.6696">
        <ele>95.79</ele>
        <time>2017-03-19T12:10:54Z</time>
      </trkpt>
      <trkpt lat="48.40606" lon="2.67007">
        <ele>95.31</ele>
        <time>2017-03-19T12:11:00Z</time>
      </trkpt>
      <trkpt lat="48.40597" lon="2.67083">
        <ele>93.39</ele>
        <time>2017-03-19T12:11:08Z</time>
      </trkpt>
      <trkpt lat="48.40588" lon="2.67194">
        <ele>88.58</ele>
        <time>2017-03-19T12:11:19Z</time>
      </trkpt>
      <trkpt lat="48.40579" lon="2.6729">
        <ele>85.21</ele>
        <time>2017-03-19T12:11:28Z</time>
      </trkpt>
      <trkpt lat="48.40574" lon="2.67343">
        <ele>84.25</ele>
        <time>2017-03-19T12:11:33Z</time>
      </trkpt>
      <trkpt lat="48.40573" lon="2.67375">
        <ele>83.29</ele>
        <time>2017-03-19T12:11:36Z</time>
      </trkpt>
      <trkpt lat="48.40565" lon="2.67476">
        <ele>83.29</ele>
        <time>2017-03-19T12:11:46Z</time>
      </trkpt>
      <trkpt lat="48.40557" lon="2.67557">
        <ele>79.93</ele>
        <time>2017-03-19T12:11:55Z</time>
      </trkpt>
      <trkpt lat="48.40556" lon="2.67574">
        <ele>79.93</ele>
        <time>2017-03-19T12:11:57Z</time>
      </trkpt>
      <trkpt lat="48.40546" lon="2.67671">
        <ele>80.41</ele>
        <time>2017-03-19T12:12:09Z</time>
      </trkpt>
      <trkpt lat="48.40537" lon="2.67731">
        <ele>81.37</ele>
        <time>2017-03-19T12:12:17Z</time>
      </trkpt>
      <trkpt lat="48.40532" lon="2.6777">
        <ele>81.85</ele>
        <time>2017-03-19T12:12:22Z</time>
      </trkpt>
      <trkpt lat="48.4052" lon="2.67864">
        <ele>79.45</ele>
        <time>2017-03-19T12:12:34Z</time>
      </trkpt>
      <trkpt lat="48.40518" lon="2.67888">
        <ele>78.97</ele>
        <time>2017-03-19T12:12:37Z</time>
      </trkpt>
      <trkpt lat="48.40504" lon="2.6798">
        <ele>79.93</ele>
        <time>2017-03-19T12:12:48Z</time>
      </trkpt>
      <trkpt lat="48.40491" lon="2.68072">
        <ele>81.37</ele>
        <time>2017-03-19T12:12:58Z</time>
      </trkpt>
      <trkpt lat="48.40489" lon="2.6809">
        <ele>81.85</ele>
        <time>2017-03-19T12:13:00Z</time>
      </trkpt>
      <trkpt lat="48.40471" lon="2.68206">
        <ele>80.41</ele>
        <time>2017-03-19T12:13:13Z</time>
      </trkpt>
      <trkpt lat="48.40463" lon="2.68247">
        <ele>80.89</ele>
        <time>2017-03-19T12:13:18Z</time>
      </trkpt>
      <trkpt lat="48.40461" lon="2.68263">
        <ele>80.41</ele>
        <time>2017-03-19T12:13:20Z</time>
      </trkpt>
      <trkpt lat="48.40458" lon="2.68277">
        <ele>79.93</ele>
        <time>2017-03-19T12:13:22Z</time>
      </trkpt>
      <trkpt lat="48.40452" lon="2.68322">
        <ele>79.45</ele>
        <time>2017-03-19T12:13:30Z</time>
      </trkpt>
      <trkpt lat="48.40436" lon="2.68319">
        <ele>78.97</ele>
        <time>2017-03-19T12:13:36Z</time>
      </trkpt>
      <trkpt lat="48.40429" lon="2.68312">
        <ele>78</ele>
        <time>2017-03-19T12:13:39Z</time>
      </trkpt>
      <trkpt lat="48.40411" lon="2.68303">
        <ele>78</ele>
        <time>2017-03-19T12:13:46Z</time>
      </trkpt>
      <trkpt lat="48.40406" lon="2.68299">
        <ele>78</ele>
        <time>2017-03-19T12:13:54Z</time>
      </trkpt>
      <trkpt lat="48.40406" lon="2.683">
        <ele>78.97</ele>
        <time>2017-03-19T12:14:10Z</time>
      </trkpt>
      <trkpt lat="48.40407" lon="2.68301">
        <ele>78.97</ele>
        <time>2017-03-19T12:14:26Z</time>
      </trkpt>
      <trkpt lat="48.40407" lon="2.68299">
        <ele>79.45</ele>
        <time>2017-03-19T12:14:43Z</time>
      </trkpt>
      <trkpt lat="48.40406" lon="2.68299">
        <ele>79.93</ele>
        <time>2017-03-19T12:15:00Z</time>
      </trkpt>
      <trkpt lat="48.40404" lon="2.683">
        <ele>79.93</ele>
        <time>2017-03-19T12:15:18Z</time>
      </trkpt>
      <trkpt lat="48.40403" lon="2.68301">
        <ele>79.93</ele>
        <time>2017-03-19T12:15:38Z</time>
      </trkpt>
      <trkpt lat="48.40404" lon="2.68299">
        <ele>80.89</ele>
        <time>2017-03-19T12:15:55Z</time>
      </trkpt>
      <trkpt lat="48.40404" lon="2.68299">
        <ele>81.37</ele>
        <time>2017-03-19T12:16:14Z</time>
      </trkpt>
      <trkpt lat="48.40404" lon="2.68298">
        <ele>82.33</ele>
        <time>2017-03-19T12:16:34Z</time>
      </trkpt>
      <trkpt lat="48.40404" lon="2.68298">
        <ele>82.81</ele>
        <time>2017-03-19T12:16:51Z</time>
      </trkpt>
      <trkpt lat="48.40405" lon="2.68298">
        <ele>82.33</ele>
        <time>2017-03-19T12:17:05Z</time>
      </trkpt>
      <trkpt lat="48.40405" lon="2.68298">
        <ele>81.85</ele>
        <time>2017-03-19T12:17:27Z</time>
      </trkpt>
      <trkpt lat="48.40404" lon="2.68298">
        <ele>81.85</ele>
        <time>2017-03-19T12:17:45Z</time>
      </trkpt>
      <trkpt lat="48.40404" lon="2.68298">
        <ele>81.85</ele>
        <time>2017-03-19T12:17:48Z</time>
      </trkpt>
    </trkseg>
  </trk>
</gpx>